     2              OBSERVATION DATA    GPS                 RINEX VERSION / TYPE
teqc 1999Jul19 19991123 03:02:00UTC                         PGM / RUN BY / DATE
                                                            COMMENT
Original Marker Name: 0410                                  COMMENT
Campaign Name: HPGN 1991                                    COMMENT
4-Character Station Name: 0410                              COMMENT
6-Character Antenna Code: TRMSST                            COMMENT
Vertical Measurement Point: BPA                             COMMENT
Vertical Offset to Rinex Ref. Point: 0.0000                 COMMENT
Radial Measurement Point: RRP                               COMMENT
Radial Offset to Rinex Ref. Point: 0.0000                   COMMENT
Antenna Height from Field Measurement: 2.2200 m             COMMENT
                                                            COMMENT
Original XYZ: -2684622.8212 -4254117.4765 3908100.6378      COMMENT
New XYZ position is based on association with SCEC monument COMMENT
E1F8K4W6+0011. Position of that monument is believed to be  COMMENT
valid to within 1 m horizontally; vertical accuracy         COMMENT
should be no worse than 3-times this value.                 COMMENT
                                                            COMMENT
Revised Rinex header created by UCSD GPS archive for        COMMENT
GSAC on 10-Mar-2000 (2000:070) 05:05:31 GMT                 COMMENT
For assistance contact dagnew@ucsd.edu or hjohnson@ucsd.edu COMMENT
                                                            COMMENT
HPGN CA 0410                                                MARKER NAME
0410                                                        MARKER NUMBER
-Unknown- CALIF DEPT TRANSPORTATION                         OBSERVER / AGENCY
290 TRIMBLE 4000 SST NP 4.30 / SP 4.20                      REC # / TYPE / VERS
103 TR 4000SST L1/L2 GEO                                    ANT # / TYPE
 -2684623.7908 -4254119.2790  3908101.2719                  APPROX POSITION XYZ
        2.2200        0.0000        0.0000                  ANTENNA: DELTA H/E/N
     1     1     0                                          WAVELENGTH FACT L1/2
     5    C1    L1    L2    S1    S2                        # / TYPES OF OBSERV
     0                                                      INTERVAL
  1991     5    22    17    46   15.000000                  TIME OF FIRST OBS
  1991     5    22    23    48   15.000000                  TIME OF LAST OBS
                                                            END OF HEADER
 91  5 22 17 46 15.0000000  0  4G18G11G19G 2
  20590515.109          -0.28017                        27.000
  24345242.438          -0.71215                        11.000
  20609467.641          -0.39216                        19.250
  24116127.367          -0.87115                         8.500
 91  5 22 17 46 30.0000000  0  4G18G11G19G 2
  20593218.797       14198.177 7        -0.45833        27.250           2.563
  24337078.250      -42929.497 5        -0.10731        11.000           0.375
  20608210.672       -6614.535 6                        18.750
  24105614.398      -55248.411 5                         8.000
 91  5 22 17 46 45.0000000  0  4G18G11G19G 2
  20595939.188       28503.230 7     11146.32023        27.000           2.656
  24328917.992      -85790.180 5    -33397.99721        11.000           0.469
  20606962.336      -13171.819 6        -0.14332        19.750           1.906
  24095107.195     -110462.431 5        -0.01131         8.500           0.469
 91  5 22 17 47  0.0000000  0  4G18G11G19G 2
  20598683.414       42916.742 7     22377.61823        27.000           2.594
  24320777.406     -128580.526 5    -66741.07521        10.250           0.406
  20605723.133      -19670.243 6     -5063.84922        19.750           1.906
  24084608.508     -165640.872 5    -42996.14021         9.250           0.438
 91  5 22 17 47 15.0000000  0  4G18G11G19G 2
  20601445.516       57437.292 7     33692.31423        26.750           2.656
  24312650.266     -171301.549 5   -100030.14121        11.000           0.406
  20604499.133      -26111.316 6    -10082.87122        19.750           1.781
  24074114.883     -220784.828 5    -85965.41921         9.500           0.625
 91  5 22 17 47 30.0000000  0  4G18G11G19G 2
  20604229.773       72066.005 7     45091.29723        27.250           2.719
  24304529.102     -213951.916 5   -133264.14421         9.500           0.469
  20603284.547      -32494.315 6    -15056.63122        19.250           1.906
  24063629.805     -275893.391 5   -128907.10221         9.250           0.563
 91  5 22 17 47 45.0000000  0  4G18G11G19G 2
  20607034.164       86800.654 7     56572.82823        27.250           2.719
  24296429.094     -256533.184 5   -166444.30321        10.000           0.469
  20602080.672      -38821.101 6    -19986.59222        19.500           1.875
  24053146.328     -330968.102 5   -171822.38721         9.250           0.406
 91  5 22 17 48  0.0000000  0  4G18G11G19G 2
  20609857.078      101641.951 7     68137.46123        27.000           2.625
  24288337.938     -299044.044 5   -199569.58121         9.250           0.469
  20600886.203      -45090.881 7    -24872.13922        20.000           1.906
  24042675.266     -386008.150 5   -214710.68321         9.000           0.469
 91  5 22 17 48 15.0000000  0  4G18G11G19G 2
  20612703.688      116595.871 7     79789.85123        27.250           2.688
  24280260.625     -341478.265 5   -232635.14821         8.500           0.438
  20599705.859      -51298.071 6    -29708.91222        19.250           1.938
  24032208.008     -441007.368 5   -257567.15221         9.250           0.406
 91  5 22 17 48 30.0000000  0  4G18G11G19G 2
  20615568.547      131654.957 7     91524.18423        27.250           2.781
  24272203.992     -383842.752 5   -265646.38821         8.750           0.438
  20598537.109      -57449.887 6    -34502.53522        18.250           1.906
  24021747.344     -495972.886 5   -300397.36321         9.750           0.438
 91  5 22 17 48 45.0000000  0  5G18G11G19G 2G16
  20618455.234      146820.967 7    103341.84123        27.000           2.750
  24264155.305     -426135.295 5   -298601.54921         8.500           0.438
  20597375.359      -63544.421 6    -39251.52422        19.750           1.938
  24011293.836     -550902.586 5   -343199.69021         9.500           0.375
  24214638.031          -0.39915                         9.750
 91  5 22 17 49  0.0000000  0  5G18G11G19G 2G16
  20621362.531      162098.003 7    115245.99923        27.250           2.781
  24256116.969     -468351.672 5   -331497.37021         8.500           0.469
  20596230.023      -69577.922 6    -43952.95722        18.750           1.938
  24000849.180     -605792.280 5   -385970.81821        10.250           0.438
  24206980.375      -40209.744 5                         8.000
 91  5 22 17 49 15.0000000  0  5G18G11G19G 2G16
  20624290.031      177483.004 7    127234.29223        27.250           2.719
  24248103.586     -510494.610 5   -364335.96821         9.500           0.406
  20595091.453      -75553.447 6    -48609.21222        19.750           1.906
  23990410.500     -660644.866 5   -428713.07021         9.500           0.469
  24199350.141      -80314.845 5                         8.000
 91  5 22 17 49 30.0000000  0  5G18G11G19G 2G16
  20627236.797      192970.543 7    139302.47323        27.250           2.625
  24240093.500     -552568.817 5   -397120.98721         9.250           0.469
  20593962.930      -81476.325 6    -53224.44722        19.750           1.938
  23979974.328     -715465.642 5   -471430.52021         9.000           0.406
  24191738.523     -120320.731 5                         9.000
 91  5 22 17 49 45.0000000  0  5G18G11G19G 2G16
  20630205.781      208567.471 7    151455.90723        27.250           2.781
  24232102.563     -594566.897 5   -429846.74221        10.000           0.344
  20592846.602      -87339.611 6    -57793.24122        19.250           1.906
  23969552.609     -770247.324 5   -514117.51721         9.500           0.438
  24184145.438     -160220.098 5                         8.500
 91  5 22 17 50  0.0000000  0  5G18G11G19G 2G16
  20633194.102      224274.031 7    163694.77623        27.250           2.750
  24224126.758     -636488.192 5   -462512.62621        11.250           0.375
  20591742.805      -93143.145 7    -62315.47622        20.000           1.938
  23959137.891     -824989.373 5   -556773.62121        10.000           0.375
  24176573.281     -200012.213 5        -0.21931         8.500           0.156
 91  5 22 17 50 15.0000000  0  5G18G11G19G 2G16
  20636203.555      240089.107 7    176018.18723        27.000           2.781
  24216157.930     -678333.648 5   -495119.44821        11.000           0.438
  20590650.438      -98888.354 6    -66792.26822        19.750           1.938
  23948726.617     -879693.055 5   -599399.85421        10.000           0.313
  24169016.750     -239698.525 5    -30924.60021         7.500           0.313
 91  5 22 17 50 30.0000000  0  5G18G11G19G 2G16
  20639233.758      256009.056 7    188423.32723        27.250           2.813
  24208213.438     -720106.124 6   -527669.36521        12.500           0.438
  20589569.625     -104578.511 6    -71226.15622        19.000           1.906
  23938324.938     -934361.203 5   -641998.38921        10.000           0.375
  24161485.805     -279282.162 5    -61768.97121         7.500           0.281
 91  5 22 17 50 45.0000000  0  5G18G11G19G 2G16
  20642283.578      272038.243 7    200913.58423        27.000           2.781
  24200275.758     -761800.830 6   -560158.70721        12.000           0.469
  20588496.672     -110209.337 6    -75613.81022        19.750           2.000
  23927931.039     -988989.362 5   -684565.74121        10.000           0.438
  24153973.391     -318758.316 5    -92529.55321         8.000           0.188
 91  5 22 17 51  0.0000000  0  5G18G11G19G 2G16
  20645356.703      288179.517 7    213491.18023        27.500           2.750
  24192361.438     -803414.578 6   -592584.97321        12.750           0.406
  20587436.734     -115778.121 6    -79953.12622        19.750           1.875
  23917541.258    -1043574.596 5   -727099.61321         9.750           0.469
  24146479.156     -358123.512 5   -123203.73421         7.500           0.219
 91  5 22 17 51 15.0000000  0  5G18G11G19G 2G16
  20648448.188      304428.399 8    226152.62823        28.000           2.719
  24184457.305     -844951.435 6   -624951.32221        12.250           0.313
  20586387.398     -121289.327 6    -84247.57822        19.500           1.906
  23907161.406    -1098121.295 5   -769603.49121         9.000           0.375
  24139015.133     -397382.182 5   -153794.87021         8.250           0.281
 91  5 22 17 51 30.0000000  0  5G18G11G19G 2G16
  20651560.758      320785.734 7    238898.59223        27.500           2.750
  24176564.078     -886410.277 6   -657256.90121        12.250           0.313
  20585348.180     -126742.151 6    -88496.53722        19.000           1.938
  23896792.336    -1152628.269 5   -812076.39121        10.250           0.406
  24131560.156     -436533.061 5   -184302.01421         8.500           0.250
 91  5 22 17 51 45.0000000  0  5G18G11G19G 2G16
  20654693.906      337248.800 7    251726.93223        27.750           2.813
  24168691.297     -927793.423 6   -689503.49821        12.250           0.219
  20584322.141     -132139.496 6    -92702.26122        19.250           1.781
  23886423.289    -1207098.166 5   -854520.42321        10.000           0.406
  24124133.914     -475579.102 5   -214727.49421         9.000           0.281
 91  5 22 17 52  0.0000000  0  5G18G11G19G 2G16
  20657846.258      353821.197 7    264640.47023        27.500           2.750
  24160832.594     -969096.664 6   -721687.79221        12.250           0.375
  20583306.297     -137477.488 6    -96861.74122        19.250           1.844
  23876068.883    -1261526.942 5   -896932.38421         9.000           0.406
  24116724.141     -514516.179 5   -245068.03121         9.250           0.344
 91  5 22 17 52 15.0000000  0  5G18G11G19G 2G16
  20661020.031      370499.293 7    277636.37023        27.250           2.813
  24152984.578    -1010323.159 5   -753812.33921        11.250           0.219
  20582301.344     -142759.786 6   -100977.81722        19.250           1.844
  23865714.219    -1315917.919 5   -939314.90521         9.250           0.313
  24109334.695     -553347.342 5   -275326.05621         9.000           0.375
 91  5 22 17 52 30.0000000  0  5G18G11G19G 2G16
  20664214.516      387283.372 8    290714.84823        28.000           2.656
  24145156.242    -1051472.300 5   -785876.56821        11.250           0.281
  20581305.266     -147986.141 6   -105050.30722        19.500           1.969
  23855373.078    -1370270.703 5   -981667.67721         8.750           0.406
  24101966.328     -592072.210 5   -305501.26521         9.750           0.281
 91  5 22 17 52 45.0000000  0  5G18G11G19G 2G16
  20667429.555      404175.508 7    303877.53323        27.250           2.750
  24137341.930    -1092541.458 5   -817878.46021        10.500           0.281
  20580324.055     -153154.512 6   -109077.61622        19.500           1.938
  23845035.617    -1424582.886 5  -1023988.77921         9.500           0.469
  24094616.820     -630688.412 5   -335591.77421         9.250           0.313
 91  5 22 17 53  0.0000000  0  5G18G11G19G 2G16
  20670664.281      421177.671 7    317125.95423        27.500           2.625
  24129542.211    -1133528.427 5   -849816.34421        10.250           0.344
  20579352.383     -158263.020 6   -113058.27122        19.500           1.906
  23834706.992    -1478852.453 5  -1066276.72321         9.750           0.500
  24087290.508     -669193.800 5   -365595.95421         9.000           0.250
 91  5 22 17 53 15.0000000  0  5G18G11G19G 2G16
  20673920.031      438285.067 7    330456.36923        26.750           2.688
  24121757.234    -1174437.606 5   -881693.58321        10.000           0.313
  20578389.859     -163316.649 6   -116996.17222        19.500           1.969
  23824389.984    -1533084.028 5  -1108535.00821        10.000           0.500
  24079983.281     -707593.058 5   -395517.43721         8.750           0.250
 91  5 22 17 53 30.0000000  0  5G18G11G19G 2G16
  20677196.797      455500.621 7    343871.07123        27.250           2.656
  24113986.469    -1215265.603 5   -913507.58221        10.000           0.375
  20577442.789     -168312.443 6   -120889.00522        19.250           1.906
  23814079.836    -1587274.292 5  -1150761.13321        10.250           0.469
  24072690.664     -745882.817 5   -425353.54821         9.000           0.344
 91  5 22 17 53 45.0000000  0  5G18G11G19G 2G16
  20680491.586      472821.098 7    357367.52923        26.250           2.750
  24106233.539    -1256014.794 5   -945260.15621        10.000           0.313
  20576498.539     -173253.149 6   -124738.90922        19.250           1.906
  23803776.188    -1641425.976 5  -1192957.18421        10.000           0.438
  24065430.094     -784065.639 5   -455106.41621         9.500           0.344
 91  5 22 17 54  0.0000000  0  5G18G11G19G 2G16
  20683807.555      490248.750 7    370947.50023        27.000           2.719
  24098491.313    -1296682.813 5   -976949.46921         9.750           0.406
  20575568.977     -178136.984 6   -128544.49522        19.750           1.906
  23793478.594    -1695536.906 5  -1235121.47321        11.250           0.625
  24058183.133     -822139.189 5   -484774.07521         8.750           0.250
 91  5 22 17 54 15.0000000  0  5G18G11G19G 2G16
  20687144.164      507780.310 7    384608.44023        26.500           2.594
  24090769.086    -1337272.499 5  -1008577.76821        10.250           0.375
  20574650.750     -182967.115 6   -132308.24922        19.500           1.906
  23783188.281    -1749610.045 5  -1277256.32321        11.250           0.500
  24050962.211     -860106.154 5   -514358.69821         9.750           0.375
 91  5 22 17 54 30.0000000  0  5G18G11G19G 2G16
  20690500.297      525417.774 7    398351.90523        26.250           2.750
  24083060.211    -1377781.510 5  -1040143.20621        10.500           0.531
  20573743.492     -187741.510 6   -136028.56122        19.500           1.938
  23772905.695    -1803643.242 5  -1319360.06221        11.500           0.500
  24043759.117     -897964.823 5   -543858.93421         9.750           0.313
 91  5 22 17 54 45.0000000  0  5G18G11G19G 2G16
  20693878.328      543164.421 7    412180.43923        26.000           2.719
  24075367.594    -1418205.846 5  -1071642.65321        11.250           0.594
  20572845.945     -192456.540 6   -139702.61622        19.500           1.875
  23762633.055    -1857632.727 5  -1361429.72621        11.500           0.531
  24036575.938     -935711.168 5   -573271.65621         9.500           0.313
 91  5 22 17 55  0.0000000  0  5G18G11G19G 2G16
  20697274.461      561017.281 7    426091.74123        26.250           2.781
  24067695.016    -1458548.168 6  -1103078.19521        12.250           0.594
  20571956.789     -197115.328 6   -143332.84222        19.500           1.844
  23752367.586    -1911581.355 5  -1403467.55921        11.500           0.594
  24029409.563     -973348.141 5   -602599.14321         9.250           0.344
 91  5 22 17 55 15.0000000  0  5G18G11G19G 2G16
  20700692.477      578973.631 7    440083.68523        26.750           2.750
  24060028.281    -1498810.553 5  -1134451.45521        11.750           0.594
  20571082.555     -201720.647 6   -146921.41322        19.250           1.906
  23742105.703    -1965491.387 6  -1445475.32821        12.000           0.500
  24022271.258    -1010877.704 5   -631842.94221         9.000           0.344
 91  5 22 17 55 30.0000000  0  5G18G11G19G 2G16
  20704129.266      597036.000 7    454158.23623        27.000           2.813
  24052387.047    -1538990.255 6  -1165760.28521        13.000           0.531
  20570214.617     -206270.141 6   -150466.47622        19.750           1.781
  23731854.195    -2019360.337 5  -1487451.07721        11.250           0.656
  24015152.469    -1048297.129 5   -661000.90521         9.500           0.375
 91  5 22 17 55 45.0000000  0  5G18G11G19G 2G16
  20707587.594      615206.310 7    468316.89723        26.500           2.813
  24044752.055    -1579084.720 6  -1197002.69921        12.000           0.563
  20569360.406     -210761.729 6   -153966.42022        18.750           1.938
  23721613.172    -2073185.844 6  -1529392.95721        12.000           0.625
  24008047.281    -1085604.401 5   -690071.47321         8.750           0.344
 91  5 22 17 56  0.0000000  0  5G18G11G19G 2G16
  20711065.461      633481.270 7    482557.10323        26.750           2.719
  24037140.742    -1619096.995 6  -1228181.07321        12.500           0.438
  20568514.750     -215198.954 6   -157424.00322        19.750           1.844
  23711377.039    -2126971.056 5  -1571303.45621        11.250           0.594
  24000976.164    -1122802.702 5   -719057.14521        10.000           0.344
 91  5 22 17 56 15.0000000  0  5G18G11G19G 2G16
  20714561.461      651859.533 7    496877.80623        26.250           2.906
  24029541.539    -1659028.202 6  -1259296.26921        12.250           0.438
  20567684.117     -219583.157 6   -160840.27322        19.500           1.844
  23701151.227    -2180717.221 6  -1613183.52521        12.500           0.563
  23993914.383    -1159893.014 5   -747958.65121         9.750           0.313
 91  5 22 17 56 30.0000000  0  5G18G11G19G 2G16
  20718079.641      670344.025 7    511281.28523        26.500           2.719
  24021960.797    -1698874.458 6  -1290345.29021        12.500           0.469
  20566856.961     -223910.953 7   -164212.58522        20.000           1.938
  23690931.648    -2234420.775 6  -1655030.41221        12.000           0.688
  23986875.531    -1196871.788 5   -776773.25521         9.250           0.313
 91  5 22 17 56 45.0000000  0  5G18G11G19G 2G16
  20721617.383      688936.648 7    525769.02523        26.000           2.688
  24014392.070    -1738633.694 5  -1321326.48421        11.500           0.438
  20566048.258     -228180.624 6   -167539.60622        19.750           1.781
  23680720.063    -2288079.881 6  -1696842.61621        12.250           0.688
  23979861.906    -1233736.943 5   -805499.33521         9.750           0.344
 91  5 22 17 57  0.0000000  0  5G18G11G19G 2G16
  20725174.789      707633.340 7    540337.85423        25.750           2.938
  24006839.195    -1778309.509 5  -1352242.68721        11.250           0.563
  20565242.867     -232396.100 7   -170824.39222        20.750           1.906
  23670517.531    -2341698.251 6  -1738623.10421        12.000           0.594
  23972864.461    -1270492.120 5   -834139.69321         9.250           0.375
 91  5 22 17 57 15.0000000  0  5G18G11G19G 2G16
  20728753.102      726435.410 7    554988.79423        26.000           2.844
  23999308.914    -1817900.222 5  -1383092.58221        11.250           0.469
  20564453.164     -236556.302 6   -174066.11622        19.500           1.969
  23660320.836    -2395274.482 5  -1780370.76421        11.250           0.563
  23965893.180    -1307135.985 5   -862693.32921         9.750           0.281
 91  5 22 17 57 30.0000000  0  5G18G11G19G 2G16
  20732351.758      745344.895 7    569723.44323        25.750           2.781
  23991790.875    -1857403.137 5  -1413874.04421        11.000           0.281
  20563671.391     -240658.978 6   -177263.01422        19.750           1.938
  23650136.125    -2448806.088 6  -1822083.64621        12.250           0.625
  23958944.688    -1343666.087 5   -891158.31921        10.000           0.281
 91  5 22 17 57 45.0000000  0  5G18G11G19G 2G16
  20735969.336      764360.619 7    584540.87323        25.500           2.813
  23984295.461    -1896819.107 5  -1444587.78821        11.000           0.313
  20562902.398     -244705.348 6   -180416.02922        19.250           1.906
  23639957.266    -2502293.991 5  -1863762.47221        11.750           0.625
  23952012.258    -1380083.338 5   -919535.36721        10.000           0.375
 91  5 22 17 58  0.0000000  0  5G18G11G19G 2G16
  20739608.828      783483.471 7    599441.77823        25.250           2.781
  23976803.883    -1936147.005 5  -1475232.86921        10.000           0.344
  20562143.438     -248694.632 6   -183524.56522        18.500           1.938
  23629785.039    -2555737.304 5  -1905406.56721        11.750           0.500
  23945105.031    -1416386.835 5   -947823.78221         9.750           0.313
 91  5 22 17 58 15.0000000  0  5G18G11G19G 2G16
  20743268.258      802713.173 7    614425.94423        25.500           2.875
  23969338.617    -1975386.297 5  -1505808.92021        10.250           0.469
  20561393.773     -252626.908 6   -186588.68322        19.250           1.906
  23619626.102    -2609135.652 5  -1947015.60821        11.500           0.594
  23938218.070    -1452575.979 5   -976023.10321        10.250           0.375
 91  5 22 17 58 30.0000000  0  5G18G11G19G 2G16
  20746947.703      822046.285 7    629490.68223        26.250           2.781
  23961890.359    -2014539.990 5  -1536318.25021        10.250           0.438
  20560656.273     -256505.643 6   -189611.07822        19.500           1.906
  23609470.617    -2662492.238 5  -1988592.10121        11.000           0.469
  23931351.078    -1488653.983 5  -1004135.80321         9.500           0.406
 91  5 22 17 58 45.0000000  0  5G18G11G19G 2G16
  20750646.750      841486.931 7    644639.22023        25.500           2.844
  23954452.383    -2053603.797 5  -1566757.56421         9.750           0.375
  20559928.086     -260326.988 6   -192588.74622        19.250           1.969
  23599325.867    -2715803.067 5  -2030132.95221        10.750           0.469
  23924512.555    -1524616.950 5  -1032158.84421        10.000           0.344
 91  5 22 17 59  0.0000000  0  5G18G11G19G 2G16
  20754365.852      861032.415 7    659869.44423        25.500           2.813
  23947041.242    -2092579.686 5  -1597128.35321        10.750           0.469
  20559213.609     -264093.068 6   -195523.35822        18.750           1.938
  23589190.609    -2769070.343 5  -2071639.85521        11.750           0.531
  23917685.367    -1560466.764 5  -1060093.74321         9.250           0.344
 91  5 22 17 59 15.0000000  0  5G18G11G19G 2G16
  20758106.688      880685.094 7    675183.20123        26.000           2.813
  23939639.336    -2131464.902 5  -1627428.49621        10.250           0.500
  20558508.383     -267801.632 6   -198413.15322        19.500           1.938
  23579060.086    -2822291.432 5  -2113110.78821        11.000           0.563
  23910886.766    -1596200.705 5  -1087938.35421         9.750           0.344
 91  5 22 17 59 30.0000000  0  5G18G11G19G 2G16
  20761864.930      900443.502 7    690579.34023        25.500           2.813
  23932260.180    -2170260.731 5  -1657658.98821        11.500           0.406
  20557812.219     -271454.429 6   -201259.49322        19.500           1.969
  23568944.977    -2875467.742 6  -2154546.80921        12.500           0.500
  23904108.898    -1631820.247 5  -1115693.81421         9.750           0.313
 91  5 22 17 59 45.0000000  0  5G18G11G19G 2G16
  20765646.719      920304.804 7    706055.66223        26.500           2.844
  23924887.891    -2208969.367 5  -1687821.52121        11.250           0.469
  20557126.531     -275054.272 6   -204064.56422        18.750           1.906
  23558832.234    -2928601.735 6  -2195949.87721        12.000           0.625
  23897347.453    -1667327.949 5  -1143362.14321         9.250           0.281
 91  5 22 18  0  0.0000000  0  5G18G11G19G 2G16
  20769443.492      940268.433 7    721611.71523        25.250           2.906
  23917544.750    -2247590.751 5  -1717916.08121        11.750           0.469
  20556452.227     -278601.463 6   -206828.61422        19.000           1.969
  23548729.672    -2981693.651 6  -2237320.14821        12.250           0.531
  23890618.977    -1702723.963 5  -1170943.42821         9.250           0.313
 91  5 22 18  0 15.0000000  0  5G18G11G19G 2G16
  20773263.320      960337.161 7    737249.66623        26.500           2.844
  23910209.195    -2286121.853 6  -1747940.28821        12.000           0.438
  20555786.773     -282093.381 7   -209549.59422        20.250           1.969
  23538633.570    -3034740.497 6  -2278655.31121        12.000           0.531
  23883900.406    -1738005.056 5  -1198435.17821         8.750           0.344
 91  5 22 18  0 30.0000000  0  5G18G11G19G 2G16
  20777102.125      980509.903 7    752968.66423        25.500           2.969
  23902892.352    -2324563.212 6  -1777894.56121        12.500           0.438
  20555132.992     -285530.868 6   -212228.15722        19.250           1.906
  23528548.016    -3087743.030 6  -2319955.92921        12.000           0.531
  23877209.477    -1773172.190 5  -1225838.10221         9.250           0.250
 91  5 22 18  0 45.0000000  0  5G18G11G19G 2G16
  20780959.844     1000787.077 7    768769.03923        25.250           3.000
  23895596.758    -2362914.155 6  -1807778.37921        12.750           0.500
  20554487.883     -288913.637 7   -214864.08522        20.000           1.969
  23518469.734    -3140700.677 5  -2361221.58521        11.250           0.500
  23870542.594    -1808224.475 5  -1253151.58121         9.250           0.313
 91  5 22 18  1  0.0000000  0  5G18G11G19G 2G16
  20784838.578     1021168.509 7    784650.65723        25.750           2.906
  23888315.492    -2401174.358 6  -1837591.50321        13.250           0.375
  20553859.406     -292241.840 6   -217457.48822        18.500           1.906
  23508401.594    -3193613.370 6  -2402452.18021        12.250           0.625
  23863886.031    -1843162.156 5  -1280375.71921         9.500           0.281
 91  5 22 18  1 15.0000000  0  5G18G11G19G 2G16
  20788737.430     1041655.294 7    800614.36323        26.250           2.938
  23881054.266    -2439342.248 6  -1867332.68721        13.250           0.438
  20553231.523     -295514.203 6   -220007.39522        19.750           1.906
  23498343.055    -3246479.842 6  -2443646.78821        12.000           0.688
  23857261.508    -1877983.772 5  -1307509.44721         9.750           0.344
 91  5 22 18  1 30.0000000  0  5G18G11G19G 2G16
  20792656.234     1062250.203 7    816662.33223        25.750           2.906
  23873807.773    -2477414.653 6  -1896999.45821        12.750           0.563
  20552623.961     -298727.982 6   -222511.64722        18.250           1.844
  23488291.000    -3299296.971 6  -2484802.91721        12.500           0.625
  23850663.641    -1912686.214 5  -1334550.28421        10.500           0.375
 91  5 22 18  1 45.0000000  0  5G18G11G19G 2G16
  20796595.977     1082950.032 7    832792.04223        25.500           3.000
  23866582.688    -2515394.207 6  -1926593.89121        12.750           0.406
  20552018.359     -301886.311 6   -224972.67622        19.500           1.969
  23478250.266    -3352067.650 6  -2525922.88321        12.000           0.688
  23844081.305    -1947271.954 5  -1361500.20621        10.500           0.344
 91  5 22 18  2  0.0000000  0  5G18G11G19G 2G16
  20800553.883     1103754.450 7    849003.25023        25.500           2.938
  23859367.914    -2553280.800 5  -1956115.87121        11.000           0.375
  20551430.023     -304989.590 6   -227390.82322        19.000           1.813
  23468216.508    -3404791.878 6  -2567006.64421        12.750           0.719
  23837521.641    -1981740.876 5  -1388359.08621        10.500           0.406
 91  5 22 18  2 15.0000000  0  5G18G11G19G 2G16
  20804534.445     1124661.363 7    865294.34023        25.750           2.938
  23852178.117    -2591076.342 5  -1985566.90821        11.250           0.438
  20550849.492     -308040.139 7   -229767.88122        20.000           1.969
  23458189.219    -3457471.876 6  -2608055.93921        12.500           0.625
  23830983.359    -2016095.430 5  -1415128.84121        10.250           0.469
 91  5 22 18  2 30.0000000  0  5G18G11G19G 2G16
  20808531.555     1145673.456 7    881667.38223        26.000           2.906
  23845000.648    -2628777.464 5  -2014944.36421        10.750           0.344
  20550279.367     -311034.990 6   -232101.53122        19.000           1.875
  23448174.859    -3510104.344 6  -2649068.19421        12.750           0.625
  23824464.344    -2050332.662 5  -1441807.20921         9.750           0.469
 91  5 22 18  2 45.0000000  0  5G18G11G19G 2G16
  20812550.117     1166790.412 7    898122.13723        25.750           2.969
  23837849.148    -2666384.027 5  -2044248.16021        11.750           0.375
  20549717.773     -313974.175 6   -234391.81222        19.750           1.969
  23438169.016    -3562689.262 6  -2690043.41621        12.750           0.750
  23817979.477    -2084452.117 5  -1468393.74921        10.000           0.438
 91  5 22 18  3  0.0000000  0  5G18G11G19G 2G16
  20816589.172     1188012.291 7    914658.64423        25.500           2.844
  23830707.648    -2703895.503 5  -2073477.83921        11.500           0.438
  20549173.844     -316857.723 6   -236638.74022        18.750           1.938
  23428172.977    -3615226.300 6  -2730981.30921        12.500           0.656
  23811504.375    -2118453.805 5  -1494888.55521         9.500           0.375
 91  5 22 18  3 15.0000000  0  5G18G11G19G 2G16
  20820646.156     1209337.167 7    931275.40623        25.500           2.875
  23823589.883    -2741313.701 6  -2102634.84721        12.250           0.375
  20548631.461     -319687.966 6   -238844.12722        19.750           1.938
  23418181.742    -3667717.537 6  -2771883.51221        12.000           0.813
  23805053.492    -2152339.415 5  -1521292.89321         9.250           0.438
 91  5 22 18  3 30.0000000  0  5G18G11G19G 2G16
  20824724.078     1230766.818 7    947973.82223        25.500           2.813
  23816486.500    -2778635.884 6  -2131717.03621        12.750           0.438
  20548105.008     -322462.676 6   -241006.24022        19.000           1.906
  23408203.289    -3720160.480 6  -2812748.05921        13.000           0.781
  23798631.492    -2186106.668 5  -1547605.01821         9.750           0.375
 91  5 22 18  3 44.9990000  0  5G18G11G19G 2G16
  20828821.737     1252296.656 7    964750.29823        25.500           2.781
  23809401.964    -2815862.434 6  -2160724.70621        12.750           0.406
  20547585.425     -325184.830 6   -243127.40522        19.750           1.906
  23398233.019    -3772554.639 6  -2853574.64121        13.000           0.750
  23792226.823    -2219755.989 5  -1573825.23921         9.500           0.313
 91  5 22 18  3 59.9990000  0  5G18G11G19G 2G16
  20832938.886     1273931.926 7    981608.93423        25.000           2.750
  23802336.073    -2852995.540 6  -2189659.55821        13.000           0.438
  20547079.628     -327852.324 6   -245205.97922        19.000           1.906
  23388271.862    -3824904.411 6  -2894366.59921        13.250           0.750
  23785846.769    -2253289.234 5  -1599955.02321        10.750           0.375
 91  5 22 18  4 14.9990000  0  5G18G11G19G 2G16
  20837075.714     1295672.522 7    998549.63623        25.000           2.813
  23795287.776    -2890031.139 6  -2218518.44121        12.750           0.531
  20546581.620     -330463.835 7   -247240.92722        20.250           1.906
  23378319.386    -3877204.911 6  -2935120.19221        13.000           0.656
  23779488.698    -2286702.872 5  -1625991.59321        10.250           0.344
 91  5 22 18  4 29.9990000  0  5G18G11G19G 2G16
  20841233.425     1317517.648 7   1015571.79123        24.500           2.781
  23788260.394    -2926969.391 6  -2247301.45721        13.250           0.531
  20546096.511     -333019.846 6   -249232.62522        19.000           2.000
  23368376.409    -3929456.614 6  -2975835.74221        12.750           0.750
  23773153.300    -2319997.428 5  -1651935.39821        10.250           0.344
 91  5 22 18  4 44.9990000  0  5G18G11G19G 2G16
  20845408.940     1339466.556 7   1032674.81623        24.250           2.781
  23781246.769    -2963810.428 6  -2276008.73321        12.250           0.625
  20545618.245     -335521.046 7   -251181.61822        20.000           1.938
  23358443.440    -3981659.852 6  -3016513.51221        14.000           0.875
  23766834.675    -2353173.113 5  -1677786.55621        10.250           0.375
 91  5 22 18  4 59.9990000  0  5G18G11G19G 2G16
  20849606.042     1361516.779 7   1049856.78623        24.250           2.750
  23774260.292    -3000556.441 6  -2304641.94821        12.250           0.594
  20545153.667     -337969.820 6   -253089.76722        19.250           1.969
  23348517.503    -4033816.569 6  -3057155.06421        13.500           0.750
  23760546.628    -2386232.322 5  -1703546.94821        10.000           0.406
 91  5 22 18  5 14.9990000  0  5G18G11G19G 2G16
  20853821.542     1383670.416 7   1067119.33323        24.500           2.625
  23767281.300    -3037204.723 5  -2333199.00421        11.500           0.625
  20544696.839     -340364.057 7   -254955.41822        20.000           1.938
  23338601.433    -4085924.584 6  -3097758.67821        13.000           0.625
  23754275.769    -2419172.249 5  -1729214.40321        10.000           0.313
 91  5 22 18  5 29.9990000  0  5G18G11G19G 2G16
  20858056.690     1405928.166 7   1084463.01323        24.250           2.688
  23760327.605    -3073754.284 5  -2361679.14721        11.500           0.563
  20544255.128     -342703.260 6   -256778.17722        19.000           1.844
  23328692.722    -4137983.092 6  -3138323.69821        12.000           0.688
  23748035.401    -2451991.963 5  -1754788.17421        10.000           0.406
 91  5 22 18  5 44.9990000  0  5G18G11G19G 2G16
  20862311.401     1428286.868 7   1101885.35123        24.000           2.688
  23753389.175    -3110207.929 5  -2390084.53721        10.750           0.594
  20543817.144     -344990.421 6   -258560.38422        19.750           1.844
  23318798.456    -4189995.040 6  -3178852.42721        12.500           0.781
  23741812.230    -2484694.743 5  -1780270.83321         9.750           0.406
 91  5 22 18  5 59.9990000  0  5G18G11G19G 2G16
  20866585.511     1450748.703 7   1119388.06223        24.500           2.563
  23746474.534    -3146562.853 5  -2418413.00821        10.750           0.594
  20543394.878     -347223.284 6   -260300.29222        19.000           1.906
  23308907.542    -4241957.789 6  -3219342.82721        12.500           0.750
  23735609.136    -2517277.728 5  -1805660.14121        10.250           0.344
 91  5 22 18  6 14.9990000  0  5G18G11G19G 2G16
  20870880.222     1473316.262 7   1136973.15523        24.500           2.625
  23739571.933    -3182816.116 5  -2446662.22821        10.750           0.469
  20542978.409     -349399.252 7   -261995.85722        20.250           1.844
  23299030.909    -4293868.564 6  -3259792.73221        13.000           0.781
  23729432.917    -2549738.130 5  -1830953.95721        11.000           0.375
 91  5 22 18  6 29.9990000  0  5G18G11G19G 2G16
  20875194.847     1495988.217 7   1154639.58823        24.500           2.688
  23732697.042    -3218968.516 5  -2474832.90821        11.500           0.531
  20542576.620     -351519.473 7   -263647.98322        20.000           1.813
  23289161.526    -4345728.326 6  -3300202.89121        12.500           0.844
  23723282.198    -2582077.009 5  -1856153.05921        11.250           0.375
 91  5 22 18  6 44.9990000  0  5G18G11G19G 2G16
  20879527.870     1518763.398 7   1172386.46323        24.000           2.719
  23725831.714    -3255020.763 5  -2502925.53321        11.250           0.500
  20542181.222     -353585.127 7   -265257.59522        20.000           1.906
  23279302.394    -4397537.966 6  -3340573.98121        13.250           0.750
  23717149.815    -2614294.969 5  -1881257.93921        11.250           0.406
 91  5 22 18  6 59.9990000  0  5G18G11G19G 2G16
  20883882.737     1541638.996 7   1190211.57823        24.750           2.625
  23718992.128    -3290975.028 6  -2530941.81021        12.250           0.438
  20541802.081     -355598.783 6   -266826.68822        18.750           2.000
  23269450.644    -4449299.939 6  -3380907.93721        13.250           0.781
  23711039.940    -2646394.410 5  -1906270.48621        11.250           0.313
 91  5 22 18  7 14.9990000  0  5G18G11G19G 2G16
  20888254.448     1564614.767 7   1208114.75023        24.500           2.563
  23712168.901    -3326831.533 6  -2558881.90721        13.000           0.531
  20541425.026     -357561.024 7   -268355.71022        20.000           1.906
  23259610.128    -4501014.597 6  -3421205.02521        13.250           0.781
  23704955.956    -2678375.734 5  -1931190.98921        11.500           0.438
 91  5 22 18  7 29.9990000  0  5G18G11G19G 2G16
  20892646.480     1587695.531 7   1226099.74123        24.500           2.563
  23705366.159    -3362584.726 6  -2586741.51821        13.500           0.438
  20541063.667     -359466.628 6   -269840.60322        19.250           2.063
  23249779.214    -4552676.540 6  -3461461.02721        13.750           0.750
  23698890.558    -2710233.698 5  -1956015.38221        11.000           0.406
 91  5 22 18  7 44.9990000  0  5G18G11G19G 2G16
  20897058.347     1610879.338 7   1244165.02723        24.750           2.625
  23698579.456    -3398236.121 6  -2614521.79221        13.250           0.531
  20540710.753     -361317.361 6   -271282.74022        19.750           1.969
  23239957.925    -4604287.359 6  -3501677.19921        13.750           0.719
  23692852.237    -2741969.674 5  -1980744.69821        10.250           0.375
 91  5 22 18  7 59.9990000  0  5G18G11G19G 2G16
  20901489.472     1634166.435 7   1262310.78923        24.500           2.594
  23691817.847    -3433785.242 6  -2642222.36821        13.500           0.594
  20540370.339     -363113.160 6   -272682.07022        19.000           2.031
  23230145.667    -4655846.879 6  -3541853.39121        13.750           0.781
  23686836.940    -2773583.802 5  -2005379.05921        10.250           0.438
 91  5 22 18  8 14.9990000  0  6G18G11G19G 2G16G 6
  20905938.612     1657556.232 7   1280536.58323        24.500           2.563
  23685068.565    -3469232.118 6  -2669843.28621        12.500           0.438
  20540036.823     -364854.665 6   -274039.09222        19.250           2.000
  23220344.909    -4707355.205 6  -3581989.70321        14.250           0.750
  23680844.730    -2805076.040 5  -2029918.44321        10.250           0.375
  24341904.315      -41858.509 4                         6.750
 91  5 22 18  8 29.9990000  0  6G18G11G19G 2G16G 6
  20910412.237     1681049.959 7   1298843.36023        25.750           2.656
  23678342.839    -3504574.964 6  -2697383.12921        12.750           0.531
  20539716.089     -366540.447 6   -275352.70422        19.500           1.969
  23210555.995    -4758810.985 6  -3622085.06721        13.250           0.781
  23674875.323    -2836444.697 5  -2054361.52921        10.250           0.344
  24333947.089      -83690.224 4                         7.000
 91  5 22 18  8 44.9990000  0  6G18G11G19G 2G16G 6
  20914901.792     1704644.223 7   1317228.47523        25.250           2.563
  23671637.776    -3539816.719 6  -2724844.19621        12.500           0.563
  20539406.081     -368173.820 7   -276625.47022        20.000           1.906
  23200769.706    -4810217.368 6  -3662141.92321        13.000           0.781
  23668926.995    -2867693.083 5  -2078710.89621        10.500           0.438
  24325987.448     -125498.789 4                         6.750
 91  5 22 18  8 59.9990000  0  6G18G11G19G 2G16G 6
  20919409.940     1728341.143 7   1335693.58523        24.750           2.656
  23664951.909    -3574954.620 6  -2752224.34821        12.250           0.563
  20539106.511     -369752.420 6   -277855.55022        19.750           2.031
  23191001.675    -4861571.626 6  -3702158.16421        14.500           0.875
  23663011.144    -2898818.543 5  -2102964.47521        11.500           0.375
  24318034.690     -167281.864 3                         6.000
 91  5 22 18  9 14.9990000  0  6G18G11G19G 2G16G 6
  20923938.933     1752140.372 7   1354238.41923        24.750           2.625
  23658285.565    -3609988.921 6  -2779523.75321        12.250           0.594
  20538815.105     -371276.856 6   -279043.42922        19.250           1.875
  23181237.917    -4912874.042 6  -3742134.03121        14.250           0.781
  23657105.089    -2929821.515 5  -2127122.62621        11.000           0.438
  24310091.815     -209040.007 3                         6.000
 91  5 22 18  9 29.9990000  0  6G18G11G19G 2G16G 6
  20928486.769     1776041.528 7   1372862.67023        25.000           2.563
  23651642.003    -3644919.537 6  -2806742.38021        12.500           0.688
  20538534.526     -372747.329 6   -280189.26022        19.750           1.875
  23171485.964    -4964124.892 6  -3782069.71921        14.000           0.750
  23651230.183    -2960701.843 5  -2151185.20621        11.500           0.438
  24302146.112     -250773.490 3        -0.28531         5.750           0.156
 91  5 22 18  9 44.9990000  0  6G18G11G19G 2G16G 6
  20933053.276     1800044.494 7   1391566.25623        25.000           2.719
  23645010.456    -3679746.096 6  -2833879.90321        12.000           0.594
  20538265.683     -374163.958 6   -281293.13422        19.250           1.813
  23161740.136    -5015323.794 6  -3821964.91421        13.750           0.781
  23645376.526    -2991459.410 5  -2175152.11521        11.250           0.406
  24294204.261     -292482.340 3    -32500.63021         5.250           0.188
 91  5 22 18  9 59.9990000  0  6G18G11G19G 2G16G 6
  20937642.792     1824145.695 7   1410346.39523        25.500           2.719
  23638403.495    -3714471.625 6  -2860938.72621        12.500           0.531
  20538006.980     -375530.065 6   -282357.63222        19.250           1.875
  23152007.237    -5066474.036 6  -3861822.19721        13.500           0.906
  23639545.792    -3022097.483 5  -2199025.91921        11.000           0.375
  24286277.120     -334170.028 4    -64984.46421         6.250           0.219
 91  5 22 18 10 14.9990000  0  6G18G11G19G 2G16G 6
  20942246.823     1848347.201 7   1429204.68923        25.250           2.656
  23631808.620    -3749093.511 5  -2887916.76321        11.250           0.594
  20537755.190     -376843.398 6   -283381.02122        19.500           1.844
  23142284.605    -5117573.230 6  -3901639.69021        14.250           0.969
  23633735.855    -3052613.491 5  -2222804.61321        10.750           0.375
  24278350.769     -375834.202 4    -97450.04021         6.250           0.156
 91  5 22 18 10 29.9990000  0  6G18G11G19G 2G16G 6
  20946870.519     1872652.099 7   1448143.54923        24.750           2.563
  23625246.651    -3783608.233 6  -2914811.32821        12.750           0.500
  20537519.870     -378101.157 6   -284361.09922        18.500           1.875
  23132570.644    -5168618.050 6  -3941414.82021        14.500           0.844
  23627955.722    -3083004.207 5  -2246485.66921        10.750           0.406
  24270427.261     -417471.938 4   -129894.98821         6.250           0.188
 91  5 22 18 10 44.9990000  0  6G18G11G19G 2G16G 6
  20951515.901     1897053.225 7   1467157.38623        25.250           2.625
  23618692.315    -3818022.762 6  -2941627.80221        12.000           0.406
  20537284.355     -379310.532 6   -285303.47022        19.250           2.031
  23122867.308    -5219615.642 6  -3981153.15121        14.500           0.844
  23622195.347    -3113276.619 5  -2270074.53821        10.250           0.500
  24262507.331     -459090.559 4   -162325.02721         6.500           0.156
 91  5 22 18 10 59.9990000  0  6G18G11G19G 2G16G 6
  20956178.276     1921555.876 7   1486250.34123        25.250           2.594
  23612171.972    -3852331.128 6  -2968361.58121        13.750           0.406
  20537067.089     -380465.803 6   -286203.68722        18.750           1.906
  23113172.019    -5270560.139 6  -4020850.11621        14.500           0.906
  23616457.839    -3143424.757 5  -2293566.58321        10.000           0.500
  24254589.831     -500684.287 3   -194735.69621         6.000           0.156
 91  5 22 18 11 14.9990000  0  6G18G11G19G 2G16G 6
  20960859.190     1946156.929 7   1505419.97123        25.000           2.688
  23605656.706    -3886536.171 6  -2995014.81621        13.500           0.438
  20536857.370     -381570.179 6   -287064.24422        19.500           1.875
  23103486.175    -5321454.515 6  -4060508.02621        14.000           0.906
  23610744.097    -3173451.771 5  -2316964.22521        10.500           0.438
  24246683.206     -542256.359 4   -227129.47221         6.500           0.281
 91  5 22 18 11 29.9990000  0  6G18G11G19G 2G16G 6
  20965560.956     1970856.781 7   1524666.59123        25.250           2.594
  23599174.511    -3920636.718 6  -3021586.63721        15.000           0.531
  20536658.003     -382622.813 6   -287884.48422        17.750           1.906
  23093809.198    -5372297.801 6  -4100126.12121        14.000           0.938
  23605051.940    -3203356.792 5  -2340266.82021        10.250           0.313
  24238773.331     -583806.052 4   -259505.81121         7.250           0.125
 91  5 22 18 11 44.9990000  0  6G18G11G19G 2G16G 6
  20970279.730     1995658.741 7   1543992.76723        25.000           2.563
  23592699.870    -3954629.204 6  -3048074.25021        13.500           0.500
  20536465.589     -383620.599 6   -288661.98222        19.000           1.906
  23084146.050    -5423086.723 6  -4139701.83721        14.000           1.000
  23599384.261    -3233136.443 5  -2363471.73321        10.500           0.438
  24230871.440     -625330.228 4   -291862.27421         7.000           0.219
 91  5 22 18 11 59.9990000  0  6G18G11G19G 2G16G 6
  20975018.026     2020557.618 7   1563394.46223        25.250           2.719
  23586252.855    -3988518.207 6  -3074481.24021        13.500           0.531
  20536286.823     -384568.567 6   -289400.66422        18.750           1.969
  23074488.534    -5473825.913 6  -4179238.81821        14.000           0.969
  23593744.151    -3262795.349 5  -2386582.54921        10.000           0.406
  24222976.558     -666833.736 4   -324202.60321         7.250           0.313
 91  5 22 18 12 14.9990000  0  6G18G11G19G 2G16G 6
  20979775.940     2045555.979 7   1582873.67723        25.500           2.781
  23579822.214    -4022300.942 6  -3100805.40921        12.250           0.656
  20536114.870     -385464.416 6   -290098.73422        19.250           1.844
  23064845.823    -5524512.821 6  -4218735.05721        15.000           0.969
  23588118.995    -3292331.062 5  -2409597.37721        10.000           0.438
  24215082.065     -708314.243 4   -356525.03321         6.750           0.313
 91  5 22 18 12 29.9990000  0  6G18G11G19G 2G16G 6
  20984550.933     2070653.019 7   1602429.78323        25.000           2.781
  23573415.690    -4055977.924 6  -3127047.18921        12.500           0.688
  20535956.823     -386308.855 6   -290756.74222        18.500           1.938
  23055209.495    -5575148.111 6  -4258191.09221        14.000           1.063
  23582527.440    -3321744.183 5  -2432516.67821        10.750           0.375
  24207194.667     -749772.610 5   -388830.20221         7.500           0.125
 91  5 22 18 12 44.9990000  0  6G18G11G19G 2G16G 6
  20989345.222     2095849.447 7   1622063.33323        24.750           2.688
  23567027.269    -4089547.800 6  -3153205.48921        13.000           0.500
  20535805.526     -387100.924 6   -291373.94222        19.250           1.938
  23045583.464    -5625730.539 6  -4297605.92421        13.250           1.000
  23576952.440    -3351033.284 5  -2455339.33721        11.000           0.313
  24199309.769     -791207.793 5   -421117.32521         8.000           0.188
 91  5 22 18 12 59.9990000  0  6G18G11G19G 2G16G 6
  20994160.042     2121147.478 7   1641776.06223        24.750           2.625
  23560663.237    -4123007.731 6  -3179278.11321        13.250           0.563
  20535663.972     -387838.216 6   -291948.46822        18.250           1.906
  23035970.964    -5676257.575 6  -4336977.56721        14.000           1.000
  23571402.190    -3380195.859 5  -2478063.42021        10.750           0.500
  24191429.245     -832617.462 5   -453384.54121         8.000           0.250
 91  5 22 18 13 14.9990000  0  6G18G11G19G 2G16G 6
  20998993.261     2146542.196 7   1661564.13223        25.000           2.688
  23554314.206    -4156362.214 6  -3205268.57221        13.500           0.625
  20535533.159     -388525.561 6   -292484.06822        19.000           1.969
  23026362.948    -5726733.943 6  -4376309.76721        14.000           0.938
  23565876.308    -3409236.691 5  -2500692.61821        10.750           0.313
  24183554.128     -874006.463 5   -485635.69621         7.500           0.375
 91  5 22 18 13 29.9990000  0  6G18G11G19G 2G16G 6
  21003842.378     2172033.259 7   1681427.27723        24.500           2.719
  23547985.331    -4189611.451 6  -3231177.03021        13.250           0.563
  20535415.862     -389163.412 6   -292981.09322        17.750           1.844
  23016768.573    -5777159.840 6  -4415602.61921        14.250           0.875
  23560367.214    -3438155.706 5  -2523226.91021        10.250           0.375
  24175682.815     -915375.279 4   -517871.04721         7.250           0.344
 91  5 22 18 13 44.9990000  0  6G18G11G19G 2G16G 6
  21008712.870     2197621.651 7   1701366.26623        25.000           2.719
  23541679.440    -4222753.790 6  -3257002.20221        13.250           0.563
  20535299.409     -389750.439 6   -293438.52022        19.250           1.844
  23007181.698    -5827533.755 6  -4454854.96721        13.750           1.031
  23554892.487    -3466951.666 5  -2545665.32421        11.000           0.375
  24167811.175     -956722.514 5   -550089.64821         7.750           0.313
 91  5 22 18 13 59.9990000  0  6G18G11G19G 2G16G 6
  21013600.401     2223309.554 7   1721382.78823        25.000           2.719
  23535390.355    -4255786.559 6  -3282741.99121        13.000           0.656
  20535202.628     -390284.361 6   -293854.57422        17.750           2.031
  22997606.776    -5877853.200 6  -4494064.86921        14.500           1.031
  23549437.620    -3495622.095 5  -2568005.89121        11.000           0.438
  24159953.331     -998046.004 5   -582289.70621         7.500           0.281
 91  5 22 18 14 14.9990000  0  6G18G11G19G 2G16G 6
  21018506.987     2249094.908 7   1741475.24423        24.750           2.594
  23529130.378    -4288711.322 6  -3308397.63521        13.750           0.594
  20535107.394     -390767.367 6   -294230.94622        19.250           1.875
  22988043.222    -5928120.101 6  -4533233.82921        15.000           1.000
  23544002.620    -3524168.637 5  -2590249.92821        10.500           0.406
  24152093.105    -1039347.741 4   -614472.84821         7.250           0.219
 91  5 22 18 14 29.9990000  0  6G18G11G19G 2G16G 6
  21023432.800     2274975.724 7   1761642.08923        24.750           2.688
  23522882.495    -4321529.918 6  -3333970.52221        13.500           0.531
  20535025.230     -391201.463 6   -294569.21022        18.750           1.938
  22978483.151    -5978336.375 6  -4572363.35621        14.250           0.938
  23538595.269    -3552593.487 5  -2612399.16621        11.250           0.438
  24144226.425    -1080629.734 4   -646640.62421         6.250           0.188
 91  5 22 18 14 44.9990000  0  6G18G11G19G 2G16G 6
  21028377.034     2300955.604 7   1781886.13523        24.750           2.750
  23516660.011    -4354237.994 6  -3359457.30821        13.750           0.563
  20534951.987     -391582.580 6   -294866.18522        19.250           1.844
  22968940.573    -6028497.696 6  -4611450.05121        14.500           1.000
  23533210.339    -3580892.605 5  -2634450.41921        10.500           0.406
  24136380.722    -1121888.048 4   -678789.87821         6.750           0.156
 91  5 22 18 14 59.9990000  0  6G18G11G19G 2G16G 6
  21033338.261     2327035.217 7   1802207.88023        24.000           2.656
  23510453.909    -4386834.524 6  -3384857.15421        13.000           0.625
  20534890.886     -391910.192 6   -295121.47122        18.750           1.875
  22959405.487    -6078603.184 6  -4650493.24321        14.500           0.938
  23527851.526    -3609064.760 5  -2656402.72421        11.250           0.500
  24128532.378    -1163122.158 4   -710920.33621         6.250           0.313
 91  5 22 18 15 14.9990000  0  6G18G11G19G 2G16G 6
  21038318.831     2353210.296 7   1822604.01423        24.000           2.813
  23504273.276    -4419323.454 6  -3410173.15621        12.750           0.500
  20534836.362     -392188.682 6   -295338.48222        19.750           1.875
  22949876.565    -6128657.115 6  -4689496.25821        14.000           0.938
  23522508.534    -3637114.244 5  -2678259.43821        10.750           0.469
  24120690.776    -1204336.286 3   -743035.17021         5.750           0.156
 91  5 22 18 15 29.9990000  0  6G18G11G19G 2G16G 6
  21043320.667     2379485.772 7   1843078.38623        24.750           2.750
  23498109.503    -4451699.078 6  -3435400.89621        12.750           0.469
  20534798.034     -392412.682 6   -295513.03322        18.250           1.906
  22940365.276    -6178653.858 6  -4728454.71121        14.500           1.063
  23517200.394    -3665035.354 5  -2700016.13721        11.500           0.469
  24112854.065    -1245525.142 4   -775130.33321         6.750           0.188
 91  5 22 18 15 44.9990000  0  6G18G11G19G 2G16G 6
  21048337.667     2405855.352 7   1863626.07523        24.500           2.875
  23491971.565    -4483967.321 6  -3460544.95421        12.750           0.594
  20534757.745     -392588.348 6   -295649.91922        19.250           1.906
  22930861.620    -6228599.503 6  -4767373.33821        14.500           1.063
  23511908.128    -3692834.266 5  -2721677.64021        11.750           0.438
  24105022.831    -1286694.921 4   -807210.66121         7.250           0.188
 91  5 22 18 15 59.9990000  0  6G18G11G19G 2G16G 6
  21053373.784     2432321.173 7   1884248.76623        24.500           2.719
  23485852.987    -4516125.588 6  -3485603.30621        13.500           0.500
  20534738.355     -392713.380 6                        18.750
  22921365.675    -6278491.704 6  -4806250.34421        13.500           0.969
  23506643.667    -3720508.468 5  -2743241.91821        11.500           0.375
  24097190.480    -1327843.369 4   -839274.33921         7.000           0.219
 91  5 22 18 16 14.9990000  0  6G18G11G19G 2G16G 6
  21058428.237     2458884.942 7   1904947.78823        24.500           2.906
  23479754.425    -4548172.139 6  -3510574.59021        14.000           0.656
  20534721.761     -392786.405 6                        19.250
  22911882.722    -6328328.758 6  -4845084.36021        14.250           0.969
  23501399.370    -3748056.614 5  -2764708.01021        11.500           0.438
  24089356.128    -1368969.141 3   -871320.34121         6.000           0.219
 91  5 22 18 16 29.9990000  0  6G18G11G19G 2G16G 6
  21063503.784     2485544.898 7   1925721.74923        24.500           2.719
  23473677.175    -4580108.111 6  -3535459.73621        14.250           0.594
  20534718.292     -392809.007 6                        17.750
  22902409.800    -6378112.048 6  -4883876.48521        14.000           1.000
  23496182.230    -3775479.836 5  -2786076.75221        11.250           0.469
  24081540.956    -1410073.779 4   -903349.87521         7.000           0.031
 91  5 22 18 16 44.9990000  0  6G18G11G19G 2G16G 6
  21068592.230     2512300.867 7   1946570.52723        23.500           2.625
  23467621.511    -4611933.085 6  -3560258.37421        14.000           0.594
  20534720.862     -392781.061 6                        18.250
  22892946.542    -6427841.235 6  -4922626.43821        14.250           1.031
  23490990.855    -3802777.550 5  -2807347.70021        11.500           0.438
  24073725.401    -1451157.163 5   -935362.87121         7.750           0.125
 91  5 22 18 16 59.9990000  0  6G18G11G19G 2G16G 6
  21073704.253     2539157.709 7   1967497.91923        24.250           2.719
  23461585.011    -4643641.566 6  -3584966.25921        14.000           0.688
  20534741.519     -392697.397 6                        18.250
  22883496.675    -6477511.129 6  -4961330.21021        15.000           0.969
  23485819.120    -3829944.845 5  -2828516.99021        11.250           0.438
  24065911.136    -1492214.143 5   -967355.26921         7.500           0.219
 91  5 22 18 17 14.9990000  0  6G18G11G19G 2G16G 6
  21078833.761     2566105.829 7   1988496.43023        24.500           2.688
  23455573.542    -4675243.058 6  -3609590.76921        14.250           0.531
  20534762.315     -392567.829 6                        18.750
  22874052.737    -6527131.310 6  -4999995.23821        14.250           0.844
  23480670.534    -3856991.249 5  -2849592.08821        10.750           0.531
  24058098.284    -1533254.603 4   -999334.80621         7.250           0.219
 91  5 22 18 17 29.9990000  0  6G18G11G19G 2G16G 6
  21083978.886     2593151.125 7   2009570.65322        24.500           2.438
  23449582.409    -4706731.253 6  -3634126.99721        15.000           0.688
  20534799.855     -392386.356 6                        18.500
  22864624.026    -6576695.486 6  -5038616.62621        14.750           0.938
  23475548.589    -3883910.574 5  -2870568.18521        11.000           0.500
  24050292.073    -1574272.513 5  -1031296.77621         7.500           0.281
 91  5 22 18 17 44.9990000  0  6G18G11G19G 2G16G 6
  21089143.831     2620294.328 7   2030721.17923        23.500           2.656
  23443610.964    -4738104.790 6  -3658573.86721        14.250           0.656
  20534841.355     -392152.079 6                        19.000
  22855199.464    -6626202.621 6  -5077193.56921        14.750           0.875
  23470450.573    -3910701.763 5  -2891444.40821        11.250           0.469
  24042496.120    -1615266.936 5  -1063240.45721         8.250           0.219
 91  5 22 18 17 59.9990000  0  6G18G11G19G 2G16G 6
  21094328.331     2647533.813 7   2051946.72323        24.000           2.594
  23437663.206    -4769364.617 6  -3682932.13221        13.750           0.656
  20534899.417     -391866.236 6   -295087.26122        17.750           1.781
  22845789.948    -6675653.778 6  -5115726.88721        14.750           0.969
  23465375.823    -3937365.811 5  -2912221.56721        11.250           0.469
  24034696.792    -1656239.099 5  -1095166.74121         7.500           0.219
 91  5 22 18 18 14.9990000  0  6G18G11G19G 2G16G 6
  21099529.073     2674868.286 7   2073246.28423        24.250           2.625
  23431735.690    -4800512.048 6  -3707202.80621        13.750           0.625
  20534959.394     -391530.509 6   -294825.65522        18.250           1.906
  22836390.378    -6725050.409 6  -5154217.73021        15.000           1.000
  23460328.839    -3963904.420 6  -2932900.98221        12.500           0.500
  24026903.456    -1697190.769 5  -1127077.12521         7.500           0.156
 91  5 22 18 18 29.9990000  0  6G18G11G19G 2G16G 6
  21104748.495     2702299.576 7   2094621.28923        23.750           2.500
  23425824.378    -4831544.600 6  -3731383.98621        12.500           0.563
  20535038.706     -391142.711 6   -294523.48622        17.250           1.844
  22826999.347    -6774390.333 6  -5192664.38321        14.000           1.094
  23455301.456    -3990315.238 6  -2953480.82521        12.000           0.375
  24019114.901    -1738119.753 4  -1158969.80121         6.750           0.313
 91  5 22 18 18 44.9990000  0  6G18G11G19G 2G16G 6
  21109987.823     2729825.883 7   2116070.33523        24.250           2.531
  23419948.612    -4862463.634 6  -3755476.71921        14.000           0.688
  20535119.120     -390704.512 6   -294182.03022        18.500           1.844
  22817622.214    -6823674.880 6  -5231067.85621        15.250           1.031
  23450298.808    -4016599.327 6  -2973961.92721        12.000           0.375
  24011331.050    -1779027.821 4  -1190846.15121         7.000           0.281
 91  5 22 18 18 59.9990000  0  6G18G11G19G 2G16G 6
  21115243.480     2757448.960 7   2137594.78522        23.500           2.375
  23414085.144    -4893266.958 6  -3779479.27521        14.500           0.688
  20535211.237     -390214.248 6   -293800.01222        18.250           1.906
  22808252.847    -6872902.040 6  -5269426.64121        15.500           0.969
  23445319.065    -4042754.821 5  -2994342.82321        11.500           0.406
  24003551.901    -1819913.084 5  -1222704.74621         7.500           0.313
 91  5 22 18 19 14.9990000  0  6G18G11G19G 2G16G 6
  21120518.628     2785166.695 7   2159192.99122        24.000           2.281
  23408246.112    -4923956.062 6  -3803392.83721        15.000           0.563
  20535312.980     -389673.711 6   -293378.81622        18.250           1.781
  22798898.300    -6922073.470 6  -5307741.99421        15.500           1.094
  23440366.276    -4068783.575 5  -3014624.95821        11.000           0.406
  23995775.355    -1860777.322 5  -1254546.94421         7.500           0.313
 91  5 22 18 19 29.9990000  0  6G18G11G19G 2G16G 6
  21125809.995     2812980.880 7   2180866.36222        23.750           2.313
  23402427.917    -4954528.914 6  -3827215.80021        15.500           0.531
  20535430.105     -389081.143 6   -292917.08122        18.000           1.813
  22789553.089    -6971187.356 6  -5346012.50821        15.750           1.094
  23435439.370    -4094683.773 5  -3034806.89321        11.500           0.469
  23988003.753    -1901618.880 5  -1286371.49621         7.500           0.281
 91  5 22 18 19 44.9990000  0  6G18G11G19G 2G16G 6
  21131122.745     2840889.797 7   2202613.54522        24.500           2.281
  23396629.222    -4984986.594 6  -3850949.03421        14.500           0.656
  20535549.269     -388438.054 6   -292415.97822        18.500           1.844
  22780216.831    -7020244.906 6  -5384239.12921        16.000           1.094
  23430533.730    -4120456.631 5  -3054889.61721        11.250           0.563
  23980232.980    -1942439.283 4  -1318179.56621         7.250           0.344
 91  5 22 18 19 59.9990000  0  6G18G11G19G 2G16G 6
  21136452.089     2868894.886 7   2224435.67222        24.750           2.188
  23390855.495    -5015327.194 6  -3874591.02321        14.250           0.750
  20535683.370     -387742.822 6   -291874.24422        18.500           1.813
  22770892.519    -7069244.351 6  -5422420.46021        16.250           1.219
  23425652.253    -4146100.503 5  -3074871.84321        11.000           0.469
  23972467.573    -1983236.965 4  -1349969.92421         6.250           0.313
 91  5 22 18 20 14.9990000  0  6G18G11G19G 2G16G 6
  21141797.800     2896994.434 7   2246331.39722        23.750           2.313
  23385104.815    -5045552.349 6  -3898143.06821        14.500           0.719
  20535822.347     -386997.275 6   -291293.30022        18.750           1.813
  22761577.901    -7118187.447 6  -5460557.88421        16.250           1.219
  23420798.245    -4171617.230 5  -3094754.97721        11.000           0.469
  23964708.292    -2024013.764 4  -1381744.01221         7.000           0.250
 91  5 22 18 20 29.9990000  0  6G18G11G19G 2G16G 6
  21147163.581     2925191.664 7   2268303.23322        24.250           2.188
  23379376.808    -5075658.254 6  -3921602.18621        14.000           0.656
  20535976.808     -386197.979 6   -290670.48222        18.500           1.906
  22752275.933    -7167070.452 6  -5498648.49721        16.000           1.156
  23415970.933    -4197002.674 5  -3114535.83821        11.250           0.469
  23956955.894    -2064766.263 5  -1413499.16421         7.500           0.219
 91  5 22 18 20 44.9990000  0  6G18G11G19G 2G16G 6
  21152546.425     2953478.694 7   2290345.05222        23.500           2.188
  23373670.573    -5105652.360 6  -3944974.18121        14.250           0.625
  20536135.839     -385352.602 6   -290011.74722        18.250           1.719
  22742984.683    -7215901.006 6  -5536698.21921        16.000           1.188
  23411163.308    -4222264.675 5  -3134220.47421        11.750           0.500
  23949204.870    -2105502.144 5  -1445241.35721         8.000           0.313
 91  5 22 18 20 59.9990000  0  6G18G11G19G 2G16G 6
  21157948.612     2981859.545 7   2312459.96722        24.000           2.281
  23367983.175    -5135529.941 6  -3968255.37421        13.500           0.656
  20536306.690     -384456.825 6   -289313.73722        19.000           1.938
  22733703.237    -7264674.792 6  -5574703.72021        16.500           1.125
  23406377.480    -4247398.988 5  -3153805.64621        11.750           0.469
  23941455.144    -2146217.073 5  -1476967.25321         7.500           0.281
 91  5 22 18 21 14.9990000  0  6G18G11G19G 2G16G 6
  21163367.175     3010333.441 7   2334647.39322        24.000           2.344
  23362319.151    -5165291.522 6  -3991446.18621        13.000           0.563
  20536486.808     -383511.558 6   -288577.17322        18.500           1.813
  22724430.581    -7313392.353 6  -5612665.41121        16.000           1.125
  23401618.401    -4272406.005 5  -3173291.63821        11.500           0.438
  23933712.190    -2186912.057 5  -1508677.59121         8.250           0.281
 91  5 22 18 21 29.9990000  0  6G18G11G19G 2G16G 6
  21168802.558     3038907.563 7   2356912.91622        23.250           2.313
  23356678.894    -5194929.556 6  -4014540.73021        13.500           0.531
  20536677.550     -382509.725 6   -287796.52522        18.500           1.781
  22715174.300    -7362046.313 6  -5650577.54021        16.500           1.219
  23396886.722    -4297278.371 5  -3192672.68121        11.750           0.406
  23925972.362    -2227579.774 5  -1540366.68321         7.750           0.188
 91  5 22 18 21 44.9990000  0  6G18G11G19G 2G16G 6
  21174259.214     3067576.658 7   2379252.44522        23.500           2.250
  23351063.112    -5224448.785 6  -4037542.70321        14.250           0.594
  20536877.776     -381456.378 6   -286975.73822        18.500           1.781
  22705925.120    -7410641.535 6  -5688443.90121        16.000           1.250
  23392179.847    -4322021.196 6  -3211952.79021        12.000           0.469
  23918237.464    -2268225.478 5  -1572038.62921         7.500           0.219
 91  5 22 18 21 59.9990000  0  6G18G11G19G 2G16G 6
  21179732.776     3096340.776 7   2401666.00322        23.500           2.344
  23345468.269    -5253848.590 6  -4060451.62321        14.250           0.563
  20537088.933     -380351.127 6   -286114.51022        18.750           1.750
  22696689.237    -7459177.477 6  -5726264.05321        16.000           1.219
  23387493.769    -4346633.885 6  -3231131.48721        12.000           0.500
  23910508.636    -2308848.686 5  -1603693.01821         7.750           0.219
 91  5 22 18 22 14.9990000  0  6G18G11G19G 2G16G 6
  21185224.605     3125203.946 7   2424156.75522        23.500           2.313
  23339897.409    -5283124.721 6  -4083264.15721        15.250           0.625
  20537309.105     -379189.901 6   -285209.66522        18.250           1.813
  22687467.823    -7507649.958 6  -5764034.78921        16.750           1.125
  23382835.940    -4371112.269 5  -3250205.54021        11.250           0.469
  23902783.120    -2349445.428 5  -1635326.83621         7.500           0.250
 91  5 22 18 22 29.9990000  0  6G18G11G19G 2G16G 6
  21190736.323     3154159.914 7   2446719.82122        24.000           2.406
  23334347.456    -5312283.032 6  -4105984.90221        14.500           0.625
  20537542.034     -377978.902 6   -284266.03022        18.250           1.781
  22678255.495    -7556065.047 6  -5801760.78721        16.250           1.094
  23378203.987    -4395462.507 5  -3269179.75721        11.500           0.500
  23895065.417    -2390021.995 5  -1666944.89721         7.500           0.219
 91  5 22 18 22 44.9990000  0  6G18G11G19G 2G16G 6
  21196265.237     3183208.374 7   2469354.95122        23.750           2.469
  23328822.464    -5341322.974 6  -4128613.39521        14.250           0.594
  20537779.487     -376717.859 6   -283283.40822        18.750           1.813
  22669050.745    -7604422.482 6  -5839441.85021        16.000           1.156
  23373590.456    -4419684.184 5  -3288053.77621        11.500           0.500
  23887346.440    -2430578.146 5  -1698547.04721         7.500           0.281
 91  5 22 18 22 59.9990000  0  6G18G11G19G 2G16G 6
  21201808.190     3212349.180 7   2492062.03723        23.250           2.625
  23323319.073    -5370244.466 6  -4151149.60721        14.250           0.719
  20538032.925     -375407.024 6   -282261.98022        17.500           1.844
  22659859.284    -7652722.266 6  -5877078.00521        16.500           1.125
  23369010.659    -4443777.365 5  -3306827.66921        11.500           0.531
  23879630.683    -2471114.171 5  -1730133.52021         7.500           0.313
 91  5 22 18 23 14.9990000  0  6G18G11G19G 2G16G 6
  21207372.081     3241586.610 7   2514844.41723        22.750           2.563
  23317837.745    -5399043.036 6  -4173590.03521        14.500           0.625
  20538287.995     -374042.359 6   -281198.61222        18.250           1.813
  22650677.589    -7700959.997 6  -5914665.81721        15.500           1.156
  23364447.722    -4467737.880 5  -3325498.18621        11.750           0.500
  23871921.440    -2511625.933 5  -1761701.10121         7.750           0.250
 91  5 22 18 23 29.9990000  0  6G18G11G19G 2G16G 6
  21212953.917     3270914.380 7   2537697.19823        23.250           2.563
  23312379.847    -5427724.349 6  -4195939.08121        14.750           0.688
  20538558.972     -372629.879 6   -280097.98222        17.750           1.844
  22641511.323    -7749141.406 6  -5952209.71421        16.500           1.156
  23359914.144    -4491571.356 5  -3344069.71721        11.250           0.438
  23864212.823    -2552119.380 5  -1793254.38621         7.500           0.281
 91  5 22 18 23 44.9990000  0  6G18G11G19G 2G16G 6
  21218553.245     3300335.501 7   2560622.71823        23.500           2.688
  23306945.042    -5456284.691 6  -4218193.87121        15.000           0.781
  20538836.565     -371166.171 6   -278957.44122        18.500           1.844
  22632351.776    -7797262.949 6  -5989706.98321        15.250           1.156
  23355401.683    -4515274.245 5  -3362539.49521        11.750           0.500
  23856510.550    -2592591.083 4  -1824790.72621         7.250           0.313
 91  5 22 18 23 59.9990000  0  6G18G11G19G 2G16G 6
  21224169.253     3329850.010 7   2583621.00223        23.250           2.594
  23301531.745    -5484723.838 6  -4240354.21521        14.250           0.781
  20539128.761     -369651.374 6   -277777.07922        17.500           1.813
  22623206.987    -7845324.639 6  -6027157.59921        16.250           1.156
  23350918.159    -4538846.310 5  -3380907.33921        11.500           0.500
  23848814.526    -2633041.194 4  -1856310.23821         6.500           0.375
 91  5 22 18 24 14.9990000  0  6G18G11G19G 2G16G 6
  21229801.214     3359458.435 7   2606692.47323        22.500           2.688
  23296145.753    -5513040.898 6  -4262419.44221        14.500           0.750
  20539422.909     -368084.814 6   -276556.38922        18.500           1.781
  22614074.058    -7893325.627 6  -6064560.92721        16.000           1.125
  23346457.612    -4562287.141 6  -3399172.90921        12.000           0.563
  23841126.026    -2673469.173 5  -1887812.50621         8.000           0.406
 91  5 22 18 24 29.9990000  0  6G18G11G19G 2G16G 6
  21235456.526     3389161.314 7   2629837.54223        22.750           2.656
  23290779.753    -5541235.029 6  -4284388.88321        14.750           0.688
  20539732.347     -366465.879 6   -275294.89322        17.750           1.844
  22604951.019    -7941265.183 6  -6101916.38021        16.250           1.094
  23342020.894    -4585596.131 5  -3417335.74821        11.250           0.469
  23833433.237    -2713874.406 5  -1919297.08121         7.500           0.438
 91  5 22 18 24 44.9990000  0  6G18G11G19G 2G16G 6
  21241125.284     3418956.358 7   2653054.42623        22.250           2.688
  23285439.847    -5569307.839 6  -4306263.77121        15.000           0.594
  20540047.362     -364796.448 6   -273994.04322        18.250           1.688
  22595841.034    -7989145.096 6  -6139225.36021        16.750           1.219
  23337611.745    -4608774.968 5  -3435397.19421        11.250           0.469
  23825753.089    -2754258.878 5  -1950765.45021         8.250           0.344
 91  5 22 18 24 59.9990000  0  6G18G11G19G 2G16G 6
  21246811.878     3448843.468 7   2676343.04123        23.250           2.688
  23280117.409    -5597259.055 6  -4328043.92621        14.500           0.656
  20540377.019     -363076.620 6   -272653.91922        17.750           1.781
  22586741.019    -8036965.389 6  -6176487.87221        16.250           1.156
  23333227.362    -4631823.522 5  -3453357.10021        11.750           0.406
  23818070.042    -2794622.633 5  -1982217.68521         8.500           0.219
 91  5 22 18 25 14.9990000  0  6G18G11G19G 2G16G 6
  21252516.534     3478823.839 7   2699704.33823        23.250           2.625
  23274822.261    -5625086.846 6  -4349727.89621        14.500           0.594
  20540713.519     -361305.032 6   -271273.47522        18.000           1.750
  22577652.573    -8084724.269 6  -6213702.53421        16.500           1.156
  23328863.675    -4654740.316 5  -3471214.32621        11.250           0.438
  23810393.519    -2834964.127 5  -2013652.57021         8.500           0.313
 91  5 22 18 25 29.9990000  0  6G18G11G19G 2G16G 6
  21258240.628     3508895.831 7   2723137.03023        23.500           2.563
  23269550.159    -5652792.471 6  -4371316.68021        14.250           0.625
  20541060.948     -359483.114 6   -269853.80122        17.750           1.781
  22568573.901    -8132423.337 6  -6250870.60321        16.000           1.063
  23324525.870    -4677526.345 5  -3488969.67621        11.250           0.406
  23802724.995    -2875285.127 5  -2045071.52621         8.750           0.313
 91  5 22 18 25 44.9990000  0  6G18G11G19G 2G16G 6
  21263982.511     3539061.248 7   2746642.51123        24.250           2.500
  23264303.948    -5680373.799 6  -4392808.61521        14.500           0.594
  20541416.909     -357608.962 6   -268393.42922        18.500           1.750
  22559507.940    -8180060.400 6  -6287990.35921        16.250           1.063
  23320213.323    -4700179.857 5  -3506621.76821        11.000           0.563
  23795051.237    -2915583.676 5  -2076472.93021         8.000           0.406
 91  5 22 18 25 59.9990000  0  6G18G11G19G 2G16G 6
  21269740.308     3569321.794 7   2770222.12123        24.500           2.500
  23259077.737    -5707828.824 6  -4414202.13521        14.500           0.625
  20541785.917     -355681.060 6   -266891.16822        16.500           1.781
  22550456.519    -8227633.609 6  -6325060.34621        17.000           1.281
  23315931.815    -4722698.972 5  -3524169.12921        11.750           0.563
  23787386.886    -2955858.034 5  -2107855.49521         8.250           0.250
 91  5 22 18 26 14.9990000  0  6G18G11G19G 2G16G 6
  21275513.792     3599671.105 7   2793870.90022        23.750           2.469
  23253877.894    -5735163.230 6  -4435501.65021        15.000           0.563
  20542159.058     -353705.187 6   -265351.54222        17.750           1.781
  22541415.222    -8275148.793 6  -6362085.12221        17.000           1.188
  23311672.292    -4745089.803 5  -3541616.52721        11.750           0.531
  23779723.112    -2996114.304 5  -2139223.97821         8.000           0.313
 91  5 22 18 26 29.9990000  0  6G18G11G19G 2G16G 6
  21281305.714     3630110.943 7   2817590.23022        23.000           2.281
  23248699.605    -5762374.966 6  -4456705.58421        15.500           0.625
  20542548.261     -351679.728 6   -263773.26522        16.500           1.844
  22532382.597    -8322604.086 6  -6399063.23421        16.250           1.125
  23307436.698    -4767350.393 6  -3558962.44121        12.500           0.469
  23772072.128    -3036350.707 5  -2170576.98821         8.500           0.156
 91  5 22 18 26 44.9990000  0  6G18G11G19G 2G16G 6
  21287117.878     3660641.350 7   2841380.11922        23.750           2.375
  23243545.683    -5789463.667 6  -4477813.64721        15.250           0.688
  20542939.440     -349604.471 6   -262156.19422        18.000           1.781
  22523366.065    -8369999.103 6  -6435994.37621        17.250           1.156
  23303222.940    -4789480.429 6  -3576206.62221        12.250           0.500
  23764417.472    -3076567.123 5  -2201914.41921         7.750           0.281
 91  5 22 18 26 59.9990000  0  6G18G11G19G 2G16G 6
  21292945.737     3691262.767 7   2865240.94022        24.250           2.281
  23238410.730    -5816428.174 6  -4498824.94821        14.250           0.719
  20543346.651     -347478.560 6   -260499.64722        17.500           1.875
  22514358.269    -8417332.849 6  -6472877.78221        17.250           1.094
  23299038.276    -4811478.900 6  -3593348.30821        12.000           0.500
  23756766.581    -3116762.692 5  -2233235.61421         8.000           0.250
 91  5 22 18 27 14.9990000  0  6G18G11G19G 2G16G 6
  21298787.855     3721971.189 7   2889169.54022        24.250           2.219
  23233301.534    -5843272.056 6  -4519742.24521        14.000           0.781
  20543757.761     -345305.955 6   -258806.71622        18.250           1.781
  22505361.472    -8464609.033 6  -6509716.33921        17.000           1.250
  23294874.073    -4833349.801 5  -3610390.56121        11.750           0.469
  23749123.034    -3156941.421 5  -2264543.67721         8.500           0.125
 91  5 22 18 27 29.9990000  0  6G18G11G19G 2G16G 6
  21304648.167     3752770.893 7   2913169.27622        24.500           2.156
  23228217.480    -5869990.728 6  -4540561.98021        14.250           0.656
  20544182.659     -343082.420 6   -257074.09622        17.250           1.750
  22496375.362    -8511823.300 6  -6546506.63421        16.750           1.250
  23290739.909    -4855088.585 5  -3627329.88021        11.250           0.438
  23741476.909    -3197099.068 5  -2295835.33721         7.750           0.281
 91  5 22 18 27 44.9990000  0  6G18G11G19G 2G16G 6
  21310528.784     3783664.007 7   2937241.81422        24.250           2.219
  23223163.659    -5896581.512 6  -4561282.05521        14.750           0.688
  20544613.792     -340805.449 6   -255299.84522        17.500           1.844
  22487406.636    -8558973.020 6  -6583246.63821        17.750           1.281
  23286629.792    -4876692.637 5  -3644164.20821        11.500           0.406
  23733842.651    -3237233.215 4  -2327108.64821         7.000           0.219
 91  5 22 18 27 59.9990000  0  6G18G11G19G 2G16G 6
  21316424.394     3814646.242 7   2961383.77622        24.500           2.219
  23218124.347    -5923048.498 6  -4581905.67221        14.250           0.656
  20545061.081     -338479.436 6   -253487.36922        17.000           1.844
  22478444.269    -8606062.466 6  -6619939.68621        17.250           1.313
  23282539.972    -4898166.221 5  -3660896.87221        11.250           0.531
  23726206.597    -3277348.122 5  -2358366.97421         7.500           0.281
 91  5 22 18 28 14.9990000  0  6G18G11G19G 2G16G 6
  21322336.261     3845717.790 7   2985595.33922        24.500           2.156
  23213111.573    -5949391.009 6  -4602432.28921        15.000           0.688
  20545508.448     -336103.958 6   -251636.36122        17.750           1.844
  22469494.808    -8653091.010 6  -6656585.26721        18.000           1.250
  23278482.753    -4919508.865 5  -3677527.51121        11.500           0.469
  23718581.487    -3317443.370 5  -2389609.99021         8.000           0.281
 91  5 22 18 28 29.9990000  0  6G18G11G19G 2G16G 6
  21328264.878     3876878.825 7   3009876.64122        24.000           2.094
  23208119.901    -5975608.489 6  -4622861.49321        15.250           0.781
  20545971.019     -333678.739 6   -249746.59122        17.250           1.813
  22460556.511    -8700058.231 6  -6693183.06221        17.250           1.344
  23274441.464    -4940720.075 5  -3694055.70121        11.250           0.438
  23710949.698    -3357518.798 5  -2420837.56921         7.500           0.281
 91  5 22 18 28 44.9990000  0  6G18G11G19G 2G16G 6
  21334211.948     3908129.180 7   3034227.53822        24.000           2.063
  23203154.784    -6001700.592 6  -4643193.00221        15.250           0.688
  20546440.589     -331203.629 6   -247817.94222        17.750           1.938
  22451632.284    -8746963.973 6  -6729732.94721        17.000           1.281
  23270432.308    -4961799.718 5  -3710481.40021        11.500           0.375
  23703329.823    -3397574.397 5  -2452049.69721         7.500           0.313
 91  5 22 18 28 59.9990000  0  6G18G11G19G 2G16G 6
  21340177.347     3939468.455 7   3058647.71722        24.500           1.969
  23198215.401    -6027667.374 6  -4663426.83521        15.500           0.688
  20546925.058     -328679.112 6   -245850.79622        17.500           1.844
  22442718.198    -8793808.493 6  -6766235.13921        17.250           1.313
  23266445.917    -4982748.151 5  -3726804.85621        11.000           0.438
  23695711.995    -3437610.470 5  -2483246.61321         7.750           0.313
 91  5 22 18 29 14.9990000  0  6G18G11G19G 2G16G 6
  21346157.472     3970897.267 7   3083137.67322        24.250           1.969
  23193296.073    -6053507.644 6  -4683562.11521        15.250           0.719
  20547410.878     -326104.360 6   -243844.50222        17.750           1.875
  22433814.769    -8840590.730 6  -6802688.78821        17.250           1.281
  23262486.940    -5003564.109 5  -3743025.09121        11.500           0.406
  23688093.339    -3477626.245 5  -2514427.68521         7.750           0.313
 91  5 22 18 29 29.9990000  0  6G18G11G19G 2G16G 6
  21352154.534     4002415.602 7   3107697.38422        23.500           1.938
  23188401.698    -6079221.145 6  -4703598.59221        14.750           0.750
  20547911.362     -323479.155 6   -241798.89222        17.250           1.781
  22424924.870    -8887310.242 6  -6839093.56521        17.750           1.344
  23258551.730    -5024247.915 5  -3759142.33321        11.750           0.625
  23680488.480    -3517621.590 5  -2545592.84221         8.250           0.313
 91  5 22 18 29 44.9990000  0  6G18G11G19G 2G16G 6
  21358167.120     4034022.698 7   3132326.25422        22.750           2.000
  23183534.362    -6104807.926 6  -4723536.33421        14.750           0.563
  20548420.245     -320803.787 6   -239714.20822        18.250           1.844
  22416045.019    -8933967.478 6  -6875449.81821        17.250           1.406
  23254638.315    -5044799.601 5  -3775156.62821        11.500           0.500
  23672880.355    -3557596.879 5  -2576742.38321         8.000           0.375
 91  5 22 18 29 59.9990000  0  6G18G11G19G 2G16G 6
  21364199.933     4065718.977 7   3157024.62322        23.000           2.000
  23178689.323    -6130267.343 6  -4743374.84021        14.750           0.719
  20548939.644     -318078.132 6   -237590.32222        17.250           1.844
  22407178.394    -8980561.885 6  -6911757.10921        17.250           1.281
  23250753.019    -5065218.595 5  -3791067.54121        11.750           0.500
  23665276.370    -3597551.837 5  -2607876.07721         8.750           0.406
 91  5 22 18 30 14.9990000  0  6G18G11G19G 2G16G 6
  21370249.456     4097504.161 7   3181792.25922        24.000           2.156
  23173869.901    -6155599.461 6  -4763114.13821        14.500           0.656
  20549466.737     -315302.356 6   -235427.39022        18.000           1.844
  22398321.534    -9027093.435 6  -6948015.42921        17.000           1.313
  23246890.003    -5085505.009 6  -3806875.12221        12.000           0.469
  23657682.276    -3637486.733 5  -2638994.14221         9.500           0.313
 91  5 22 18 30 29.9990000  0  6G18G11G19G 2G16G 6
  21376314.714     4129376.263 7   3206627.63122        23.500           2.094
  23169072.401    -6180805.492 6  -4782755.19221        14.500           0.688
  20550008.776     -312478.198 6   -233226.76022        17.250           1.844
  22389481.019    -9073563.715 6  -6984225.99921        17.500           1.313
  23243059.026    -5105660.545 6  -3822580.74321        12.000           0.594
  23650082.269    -3677403.237 5  -2670097.86921         9.250           0.344
 91  5 22 18 30 44.9990000  0  6G18G11G19G 2G16G 6
  21382395.448     4161337.499 7   3231532.45422        23.750           2.125
  23164299.573    -6205882.740 6  -4802295.91121        14.250           0.750
  20550551.972     -309602.937 6   -230986.30922        18.000           1.813
  22380649.190    -9119970.062 6  -7020386.75721        17.000           1.344
  23239246.261    -5125682.425 6  -3838182.20021        12.000           0.563
  23642490.050    -3717298.890 5  -2701185.33921         9.000           0.375
 91  5 22 18 30 59.9990000  0  6G18G11G19G 2G16G 6
  21388493.808     4193385.896 7   3256505.20022        23.500           2.188
  23159553.284    -6230832.894 6  -4821737.58321        15.000           0.688
  20551112.519     -306678.693 6   -228707.67822        16.500           1.750
  22371832.870    -9166314.276 6  -7056499.08321        18.250           1.219
  23235462.956    -5145572.751 6  -3853681.15021        12.250           0.500
  23634897.464    -3757175.586 5  -2732258.06321         8.250           0.344
 91  5 22 18 31 14.9990000  0  6G18G11G19G 2G16G 6
  21394609.464     4225522.408 7   3281546.60422        23.000           2.219
  23154832.190    -6255654.752 6  -4841079.29621        15.250           0.719
  20551675.870     -303704.477 6   -226390.13522        18.000           1.875
  22363022.761    -9212595.274 6  -7092562.17221        16.750           1.281
  23231702.894    -5165330.332 6  -3869076.66221        12.000           0.625
  23627318.753    -3797032.411 5  -2763315.27621         9.000           0.281
 91  5 22 18 31 29.9990000  0  6G18G11G19G 2G16G 6
  21400742.659     4257745.938 7   3306655.81322        22.750           2.219
  23150130.690    -6280348.802 6  -4860321.39821        15.000           0.656
  20552249.206     -300681.174 6   -224034.31122        17.000           1.750
  22354228.464    -9258813.799 6  -7128576.56421        17.500           1.250
  23227969.073    -5184955.788 6  -3884369.21921        12.250           0.563
  23619736.370    -3836870.248 5  -2794357.71821         9.000           0.250
 91  5 22 18 31 44.9990000  0  6G18G11G19G 2G16G 6
  21406891.097     4290053.924 7   3331830.83022        22.500           2.156
  23145457.542    -6304917.210 6  -4879465.60821        15.250           0.750
  20552833.081     -297611.065 6   -221642.02822        18.000           1.781
  22345445.378    -9304972.093 6  -7164544.04021        18.000           1.344
  23224258.894    -5204451.669 6  -3899560.80521        12.250           0.594
  23612157.714    -3876691.499 5  -2825387.22821         8.750           0.313
 91  5 22 18 31 59.9990000  0  6G18G11G19G 2G16G 6
  21413054.620     4322447.664 7   3357072.66522        22.500           2.281
  23140803.433    -6329358.263 6  -4898510.57921        14.500           0.813
  20553429.495     -294492.701 6   -219212.14822        16.500           1.813
  22336673.894    -9351068.501 6  -7200463.28421        18.000           1.375
  23220573.050    -5223816.247 6  -3914650.09121        12.500           0.688
  23604583.925    -3916494.648 5  -2856402.62721         8.750           0.313
 91  5 22 18 32 14.9990000  0  6G18G11G19G 2G16G 6
  21419233.800     4354926.415 7   3382380.74322        22.000           2.125
  23136177.480    -6353672.346 6  -4917456.60621        14.500           0.656
  20554028.300     -291326.677 6   -216745.13022        17.500           1.844
  22327914.605    -9397103.431 6  -7236334.61321        18.000           1.406
  23216916.011    -5243050.249 6  -3929637.62221        12.750           0.563
  23597012.980    -3956280.344 5  -2887404.44521         8.500           0.250
 91  5 22 18 32 29.9990000  0  6G18G11G19G 2G16G 6
  21425430.370     4387492.533 7   3407756.90322        21.750           2.063
  23131576.597    -6377856.685 6  -4936301.54021        15.250           0.781
  20554643.948     -288110.411 6   -214238.95322        17.250           1.781
  22319166.167    -9443074.114 6  -7272155.89821        18.000           1.406
  23213278.651    -5262150.910 6  -3944521.24821        13.250           0.594
  23589443.292    -3996046.069 5  -2918390.69921         8.250           0.406
 91  5 22 18 32 44.9990000  0  6G18G11G19G 2G16G 6
  21431645.230     4420146.118 7   3433201.21422        22.000           2.156
  23126997.144    -6401910.684 6  -4955044.91821        14.750           0.688
  20555261.925     -284843.777 6   -211693.53422        17.500           1.750
  22310429.362    -9488980.164 6  -7307926.80321        18.000           1.406
  23209671.065    -5281117.751 6  -3959300.59821        13.000           0.500
  23581880.839    -4035791.663 5  -2949361.24321         8.250           0.313
 91  5 22 18 32 59.9990000  0  6G18G11G19G 2G16G 6
  21437877.269     4452885.737 7   3458712.57522        22.750           2.094
  23122445.472    -6425835.442 6  -4973687.56821        15.000           0.688
  20555897.144     -281528.086 6   -209109.87422        17.250           1.906
  22301705.487    -9534822.891 6  -7343648.37721        17.500           1.469
  23206084.112    -5299952.103 6  -3973976.71021        12.750           0.500
  23574318.300    -4075518.478 5  -2980317.14721         8.500           0.313
 91  5 22 18 33 14.9990000  0  6G18G11G19G 2G16G 6
  21444122.581     4485709.488 7   3484289.48322        23.000           2.313
  23117918.292    -6449632.461 6  -4992230.70721        15.000           0.781
  20556534.956     -278165.081 6   -206489.36522        17.750           1.750
  22292995.339    -9580603.966 6  -7379321.90021        17.500           1.469
  23202525.323    -5318655.604 6  -3988550.86721        12.500           0.500
  23566766.394    -4115228.232 5  -3011259.80821         8.750           0.375
 91  5 22 18 33 29.9990000  0  6G18G11G19G 2G16G 6
  21450384.019     4518618.548 7   3509932.87222        22.500           2.250
  23113412.909    -6473299.959 6  -5010672.90821        15.500           0.781
  20557182.253     -274753.265 6   -203830.81722        17.500           1.750
  22284292.589    -9626321.803 6  -7414946.14721        17.500           1.375
  23198987.620    -5337226.791 6  -4003021.91621        12.250           0.500
  23559209.245    -4154919.400 5  -3042187.96421         8.500           0.375
 91  5 22 18 33 44.9990000  0  6G18G11G19G 2G16G 6
  21456661.886     4551611.763 7   3535641.83622        22.000           2.313
  23108934.581    -6496838.777 6  -5029014.83021        15.250           0.719
  20557842.112     -271293.707 6   -201135.07222        17.750           1.781
  22275604.542    -9671977.228 6  -7450521.77021        17.250           1.406
  23195483.065    -5355666.707 6  -4017390.68721        12.000           0.469
  23551664.370    -4194593.328 5  -3073102.66921         9.000           0.344
 91  5 22 18 33 59.9990000  0  6G18G11G19G 2G16G 6
  21462958.058     4584690.409 7   3561417.36922        22.500           2.219
  23104479.081    -6520247.123 6  -5047255.09421        15.250           0.844
  20558510.769     -267784.912 6   -198400.95222        18.000           1.781
  22266930.730    -9717568.486 6  -7486047.39121        18.000           1.375
  23191993.792    -5373973.967 5  -4031656.08121        11.000           0.438
  23544117.308    -4234248.303 5  -3104002.63321         9.500           0.375
 91  5 22 18 34 14.9990000  0  6G18G11G19G 2G16G 6
  21469269.605     4617856.389 7   3587260.94622        22.750           2.281
  23100050.136    -6543522.809 6  -5065391.98921        15.250           0.719
  20559187.058     -264224.808 6   -195626.86022        17.750           1.750
  22258267.237    -9763093.427 6  -7521521.33621        17.250           1.375
  23188540.433    -5392146.238 6  -4045816.28721        12.000           0.469
  23536576.144    -4273882.346 5  -3134886.27621         9.250           0.281
 91  5 22 18 34 29.9990000  0  6G18G11G19G 2G16G 6
  21475596.940     4651106.843 7   3613170.36522        22.750           2.219
  23095645.276    -6566668.363 6  -5083427.48421        14.750           0.813
  20559874.331     -260616.184 6   -192814.94822        18.000           1.750
  22249615.698    -9808554.856 6  -7556945.78721        17.750           1.375
  23185105.034    -5410186.313 5  -4059873.49321        11.500           0.531
  23529036.417    -4313498.380 5  -3165755.87621         9.500           0.438
 91  5 22 18 34 44.9990000  0  6G18G11G19G 2G16G 6
  21481938.894     4684438.882 7   3639143.35022        22.500           2.188
  23091265.120    -6589686.145 6  -5101363.41721        14.500           0.875
  20560569.933     -256961.555 6   -189967.19422        17.500           1.781
  22240978.378    -9853955.056 6  -7592322.52921        18.000           1.344
  23181699.987    -5428096.314 6  -4073829.32721        12.500           0.438
  23521500.987    -4353098.922 5  -3196613.40321         9.500           0.438
 91  5 22 18 34 59.9990000  0  6G18G11G19G 2G16G 6
  21488298.276     4717854.793 7   3665181.68422        22.500           2.250
  23086909.784    -6612573.543 6  -5119197.74821        15.000           0.688
  20561274.933     -253258.596 6   -187081.78022        17.250           1.750
  22232350.644    -9899291.685 6  -7627649.74921        17.750           1.406
  23178309.901    -5445874.002 5  -4087682.06921        11.250           0.500
  23513970.534    -4392681.755 5  -3227457.12921         9.750           0.375
 91  5 22 18 35 14.9990000  0  6G18G11G19G 2G16G 6
  21494672.370     4751354.964 7   3691285.67422        23.250           2.156
  23082579.558    -6635329.855 6  -5136929.93221        15.500           0.781
  20561988.097     -249506.863 6   -184158.35422        17.500           1.688
  22223734.214    -9944564.194 6  -7662926.99221        17.250           1.375
  23174962.097    -5463519.189 6  -4101431.54021        12.750           0.563
  23506439.534    -4432246.262 5  -3258286.59621         9.250           0.438
 91  5 22 18 35 29.9990000  0  6G18G11G19G 2G16G 6
  21501063.190     4784937.476 7   3717453.83722        21.500           2.125
  23078273.534    -6657956.313 6  -5154560.93021        15.750           0.781
  20562712.940     -245707.779 6   -181198.03922        16.250           1.813
  22215134.722    -9989773.632 6  -7698155.07921        19.000           1.469
  23171622.519    -5481032.908 6  -4115078.60221        12.250           0.563
  23498912.151    -4471794.024 5  -3289102.97921         9.250           0.375
 91  5 22 18 35 44.9990000  0  6G18G11G19G 2G16G 6
  21507470.503     4818603.995 7   3743687.44622        21.500           2.156
  23073994.940    -6680450.809 6  -5172089.10621        15.500           0.813
  20563441.636     -241859.571 6   -178199.44922        17.250           1.719
  22206541.800   -10034918.223 6  -7733332.66321        18.500           1.469
  23168320.284    -5498413.435 6  -4128621.86321        13.000           0.469
  23491394.050    -4511323.146 5  -3319904.87321         9.500           0.313
 91  5 22 18 35 59.9990000  0  6G18G11G19G 2G16G 6
  21513892.862     4852355.134 7   3769986.99522        22.000           2.094
  23069738.706    -6702812.661 6  -5189513.92321        15.500           0.750
  20564187.628     -237961.830 6   -175162.25522        17.500           1.875
  22197961.511   -10079997.533 6  -7768459.36621        18.000           1.375
  23165035.487    -5515660.090 6  -4142060.81121        12.250           0.438
  23483867.151    -4550833.316 5  -3350691.96721         8.500           0.438
 91  5 22 18 36 14.9990000  0  6G18G11G19G 2G16G 6
  21520332.136     4886189.235 7   3796351.19322        21.250           2.031
  23065510.269    -6725042.602 6  -5206835.94821        15.500           0.750
  20564934.995     -234015.647 6   -172087.31922        18.000           1.844
  22189397.050   -10125012.263 6  -7803535.74822        18.250           1.594
  23161782.651    -5532774.060 6  -4155396.35521        12.750           0.438
  23476355.237    -4590325.487 5  -3381465.04921         8.750           0.438
 91  5 22 18 36 29.9990000  0  6G18G11G19G 2G16G 6
  21526785.433     4920106.143 7   3822779.90622        21.750           2.000
  23061303.995    -6747140.580 6  -5224055.13821        15.000           0.719
  20565700.065     -230021.062 6   -168974.65722        16.500           1.844
  22180843.089   -10169962.323 6  -7838561.73222        19.000           1.531
  23158545.565    -5549755.113 6  -4168628.35721        12.000           0.438
  23468845.097    -4629799.873 5  -3412224.28021         9.500           0.438
 91  5 22 18 36 44.9990000  0  6G18G11G19G 2G16G 6
  21533255.089     4954105.107 7   3849272.58022        21.750           1.969
  23057119.878    -6769107.142 6  -5241171.92321        14.500           0.844
  20566465.690     -225978.757 6   -165824.82022        18.000           1.781
  22172301.839   -10214848.551 6  -7873537.99021        18.500           1.469
  23155341.440    -5566604.120 6  -4181757.45021        12.750           0.531
  23461336.214    -4669257.277 5  -3442970.27221         9.000           0.438
 91  5 22 18 36 59.9990000  0  6G18G11G19G 2G16G 6
  21539745.011     4988187.274 7   3875830.07722        22.500           1.969
  23052967.011    -6790940.770 6  -5258185.13421        14.500           0.844
  20567242.894     -221887.434 6   -162636.79222        17.000           1.781
  22163773.183   -10259669.365 6  -7908463.27022        18.250           1.531
  23152160.144    -5583319.848 6  -4194782.67521        12.750           0.500
  23453831.698    -4708696.434 5  -3473702.03721         9.000           0.406
 91  5 22 18 37 14.9990000  0  6G18G11G19G 2G16G 6
  21546243.761     5022351.116 7   3902451.20722        21.750           1.844
  23048838.355    -6812642.394 6  -5275095.48721        14.250           0.781
  20568031.034     -217748.320 6   -159411.52122        17.750           1.875
  22155255.980   -10304425.822 6  -7943338.39322        19.000           1.625
  23149005.159    -5599903.342 6  -4207704.87721        13.000           0.531
  23446329.175    -4748118.441 5  -3504420.46221         9.250           0.406
 91  5 22 18 37 29.9990000  0  6G18G11G19G 2G16G 6
  21552758.792     5056596.330 7   3929135.75122        20.750           1.813
  23044733.003    -6834212.101 6  -5291903.04221        15.000           0.719
  20568829.628     -213561.715 6   -156149.24322        17.500           1.813
  22146751.105   -10349118.184 6  -7978163.58621        18.750           1.469
  23145876.651    -5616354.970 6  -4220524.30821        13.500           0.500
  23438832.745    -4787523.702 5  -3535125.81621         9.000           0.344
 91  5 22 18 37 44.9990000  0  6G18G11G19G 2G16G 6
  21559290.894     5090922.038 7   3955883.01022        21.000           1.875
  23040654.464    -6855650.029 6  -5308607.90321        15.250           0.719
  20569632.769     -209328.085 6   -152850.31922        18.000           1.844
  22138259.823   -10393746.707 6  -8012939.02022        19.250           1.594
  23142771.815    -5632674.999 6  -4233241.21021        13.000           0.563
  23431334.980    -4826912.632 5  -3565818.46721         8.750           0.375
 91  5 22 18 37 59.9990000  0  6G18G11G19G 2G16G 6
  21565837.136     5125329.467 7   3982693.95622        20.750           1.719
  23036601.081    -6876954.852 6  -5325209.05721        15.500           0.688
  20570450.081     -205046.226 6   -149513.81222        17.500           1.906
  22129777.120   -10438309.970 6  -8047663.61522        18.500           1.531
  23139689.323    -5648861.985 6  -4245854.43421        13.000           0.531
  23423842.886    -4866284.068 5  -3596497.45321         9.250           0.469
 91  5 22 18 38 14.9990000  0  6G18G11G19G 2G16G 6
  21572400.870     5159817.559 7   4009567.75522        20.500           1.750
  23032569.753    -6898127.279 6  -5341707.05621        15.000           0.750
  20571270.925     -200716.942 6   -146140.36222        17.500           1.844
  22121309.464   -10482808.755 6  -8082337.96222        18.750           1.531
  23136634.909    -5664917.135 6  -4258364.93721        13.000           0.469
  23416353.964    -4905638.947 5  -3627163.56121        10.000           0.313
 91  5 22 18 38 29.9990000  0  6G18G11G19G 2G16G 6
  21578980.878     5194389.942 7   4036507.23422        20.750           1.813
  23028568.183    -6919163.090 6  -5358098.59421        15.250           0.750
  20572109.698     -196336.501 6   -142727.04222        16.000           1.906
  22112853.917   -10527239.246 6  -8116959.09822        18.250           1.531
  23133602.667    -5680836.113 6  -4270769.33121        12.250           0.500
  23408871.542    -4944973.355 5  -3657813.72721        10.000           0.281
 91  5 22 18 38 44.9990000  0  6G18G11G19G 2G16G 6
  21585575.503     5229041.968 7   4063508.76822        20.750           1.656
  23024590.628    -6940066.394 6  -5374386.87621        14.250           0.844
  20572948.409     -191909.015 6   -139277.06022        17.000           1.719
  22104413.855   -10571605.564 6  -8151530.22122        19.000           1.688
  23130601.769    -5696623.462 6  -4283071.16121        12.750           0.531
  23401385.362    -4984291.593 5  -3688451.28121         9.750           0.344
 91  5 22 18 38 59.9990000  0  6G18G11G19G 2G16G 6
  21592183.026     5263771.029 7   4090570.33622        21.000           1.656
  23020637.589    -6960839.702 6  -5390573.86121        15.000           0.844
  20573804.128     -187437.246 6   -135792.57622        16.250           1.781
  22095978.769   -10615910.133 6  -8186053.24122        18.500           1.594
  23127617.839    -5712281.615 6  -4295272.31121        12.500           0.563
  23393907.261    -5023596.475 5  -3719078.43921        10.000           0.406
 91  5 22 18 39 14.9990000  0  6G18G11G19G 2G16G 6
  21598808.347     5298580.580 7   4117694.61822        21.000           1.750
  23016709.370    -6981479.032 6  -5406656.44121        15.000           0.906
  20574660.159     -182917.466 6   -132270.68022        17.750           1.781
  22087561.565   -10660149.124 6  -8220525.14322        18.750           1.594
  23124668.745    -5727807.154 6  -4307370.13421        13.000           0.531
  23386431.550    -5062884.266 5  -3749692.25421         9.250           0.469
 91  5 22 18 39 29.9990000  0  6G18G11G19G 2G16G 6
  21605447.034     5333469.972 7   4144881.11722        21.250           1.813
  23012809.190    -7001984.576 6  -5422634.77521        15.250           0.844
  20575529.159     -178349.970 6   -128711.60222        16.750           1.875
  22079158.128   -10704322.774 6  -8254946.14322        19.250           1.656
  23121733.159    -5743200.196 5  -4319364.71421        11.750           0.531
  23378959.480    -5102155.394 5  -3780293.10621         9.750           0.406
 91  5 22 18 39 44.9990000  0  6G18G11G19G 2G16G 6
  21612101.503     5368441.112 7   4172131.32622        21.250           1.875
  23008929.948    -7022354.121 6  -5438507.13721        14.750           0.938
  20576406.964     -173732.996 6   -125113.97522        17.500           1.719
  22070762.987   -10748429.038 6  -8289314.63222        18.500           1.625
  23118835.909    -5758458.648 6  -4331254.41221        13.000           0.531
  23371487.261    -5141407.885 5  -3810879.43321         9.250           0.500
 91  5 22 18 39 59.9990000  0  6G18G11G19G 2G16G 6
  21618772.495     5403490.218 7   4199442.28122        21.500           1.750
  23005081.417    -7042591.164 6  -5454276.23721        15.750           0.938
  20577296.378     -169070.184 6   -121480.62622        17.000           1.813
  22062382.355   -10792471.639 6  -8323633.51222        18.750           1.625
  23115952.081    -5773586.225 6  -4343042.12621        12.250           0.469
  23364018.050    -5180645.400 5  -3841454.09321         9.000           0.375
 91  5 22 18 40 14.9990000  0  6G18G11G19G 2G16G 6
  21625454.894     5438616.139 7   4226813.09022        21.500           1.813
  23001256.487    -7062696.321 6  -5469942.58221        16.000           0.844
  20578191.206     -164362.321 6   -117812.17422        17.750           1.813
  22054014.675   -10836451.109 6  -8357903.19422        19.000           1.563
  23113103.972    -5788583.576 6  -4354728.38321        12.750           0.563
  23356557.511    -5219868.782 5  -3872017.74121         9.250           0.406
 91  5 22 18 40 29.9990000  0  6G18G11G19G 2G16G 6
  21632155.792     5473821.692 7   4254245.96122        22.000           1.938
  22997453.386    -7082666.358 6  -5485503.64121        14.750           0.875
  20579098.870     -159606.230 6   -114106.14022        16.500           1.844
  22045655.870   -10880364.141 6  -8392121.11922        18.750           1.656
  23110268.862    -5803447.877 6  -4366310.94821        12.250           0.594
  23349097.917    -5259075.104 5  -3902568.06921         9.750           0.438
 91  5 22 18 40 44.9990000  0  6G18G11G19G 2G16G 6
  21638869.792     5509106.322 7   4281740.42922        21.250           1.781
  22993681.925    -7102501.458 6  -5500959.53621        16.000           0.906
  20580009.605     -154802.362 6   -110362.87922        17.500           1.813
  22037312.972   -10924211.141 6  -8426287.58322        18.750           1.594
  23107467.730    -5818179.446 6  -4377790.08821        12.250           0.625
  23341636.456    -5298264.696 5  -3933105.41021         9.000           0.438
 91  5 22 18 40 59.9990000  0  6G18G11G19G 2G16G 6
  21645599.042     5544468.935 7   4309295.68022        21.500           1.844
  22989930.964    -7122202.300 6  -5516310.84221        15.500           0.781
  20580932.776     -149951.644 6   -106583.12022        17.000           1.875
  22028981.667   -10967993.052 6  -8460403.32322        19.500           1.656
  23104687.511    -5832779.141 6  -4389166.47721        12.000           0.594
  23334180.659    -5337438.671 5  -3963630.52821         9.500           0.375
 91  5 22 18 41 14.9990000  0  6G18G11G19G 2G16G 6
  21652342.480     5579912.282 7   4336913.83122        20.500           1.875
  22986211.042    -7141765.713 6  -5531555.04721        15.750           0.875
  20581864.550     -145051.087 6   -102764.51422        17.750           1.906
  22020663.909   -11011706.761 6  -8494465.93122        19.750           1.625
  23101940.612    -5847243.840 6  -4400437.66821        13.000           0.500
  23326732.706    -5376593.981 5  -3994141.13821         9.750           0.375
 91  5 22 18 41 29.9990000  0  6G18G11G19G 2G16G 6
  21659101.183     5615432.290 7   4364591.73322        20.000           1.875
  22982510.855    -7161195.377 6  -5546695.03021        15.500           0.750
  20582807.980     -140104.647 6    -98910.15822        17.250           1.844
  22012357.347   -11055355.793 6  -8528478.13922        19.750           1.750
  23099210.667    -5861577.622 6  -4411606.85121        12.750           0.594
  23319286.050    -5415734.440 5  -4024640.14621        10.250           0.531
 91  5 22 18 41 44.9990000  0  6G18G11G19G 2G16G 6
  21665876.050     5651031.301 7   4392331.18322        20.000           2.094
  22978839.636    -7180488.618 6  -5561728.70721        15.500           0.750
  20583757.284     -135109.791 6    -95018.07822        18.000           1.938
  22004063.917   -11098937.697 6  -8562438.03422        19.500           1.719
  23096510.425    -5875777.996 6  -4422672.06721        12.750           0.531
  23311843.276    -5454857.680 5  -4055125.76421        10.250           0.375
 91  5 22 18 41 59.9990000  0  6G18G11G19G 2G16G 6
  21672666.370     5686710.065 7   4420132.77222        20.500           1.938
  22975196.347    -7199644.370 6  -5576655.25121        15.500           0.844
  20584718.612     -130065.695 6    -91087.62022        17.250           2.000
  21995784.386   -11142451.496 6  -8596344.86022        19.500           1.688
  23093830.636    -5889843.916 6  -4433632.53221        12.500           0.563
  23304398.784    -5493962.853 5  -4085597.28321         9.750           0.250
 91  5 22 18 42 14.9990000  0  6G18G11G19G 2G16G 6
  21679470.034     5722468.073 7   4447996.12322        20.250           1.938
  22971576.526    -7218662.591 6  -5591474.64221        15.750           0.781
  20585686.487     -124972.300 6    -87118.76122        18.000           1.969
  21987515.862   -11185897.171 6  -8630198.61422        19.250           1.719
  23091183.144    -5903775.529 6  -4444488.33721        12.750           0.594
  23296962.550    -5533050.030 5  -4116054.80221        10.500           0.406
 91  5 22 18 42 29.9990000  0  6G18G11G19G 2G16G 6
  21686289.401     5758301.574 7   4475918.28722        20.250           1.719
  22967983.698    -7237546.804 6  -5606189.60121        16.000           0.688
  20586666.003     -119833.339 6    -83114.38322        17.750           1.719
  21979260.120   -11229278.236 6  -8664002.01322        19.000           1.500
  23088554.597    -5917576.491 6  -4455242.33221        12.500           0.406
  23289528.253    -5572123.046 5  -4146501.27921        10.500           0.406
 91  5 22 18 42 44.9990000  0  6G18G11G19G 2G16G 6
  21693122.362     5794211.366 7   4503899.89422        20.000           1.906
  22964415.394    -7256295.633 6  -5620799.06621        15.500           0.844
  20587651.011     -114647.802 6    -79073.71522        18.250           1.906
  21971019.120   -11272593.392 6  -8697754.05522        19.500           1.750
  23085953.026    -5931245.711 6  -4465893.67321        12.500           0.563
  23282091.597    -5611180.765 5  -4176935.83721        10.000           0.469
 91  5 22 18 42 59.9990000  0  6G18G11G19G 2G16G 6
  21699971.300     5830196.461 7   4531940.18922        20.000           1.781
  22960873.089    -7274909.906 6  -5635303.68121        15.750           0.875
  20588649.448     -109416.651 6    -74997.50722        16.750           1.906
  21962790.245   -11315843.727 6  -8731455.59622        19.250           1.750
  23083377.222    -5944784.159 6  -4476443.12221        13.250           0.563
  23274667.745    -5650224.118 5  -4207359.18421        11.000           0.469
 91  5 22 18 43 14.9990000  0  6G18G11G19G 2G16G 6
  21706833.050     5866259.330 6   4560041.08222        19.750           1.625
  22957354.714    -7293386.893 6  -5649701.32321        15.250           0.844
  20589650.878     -104137.189 6    -70883.65422        18.000           1.844
  21954568.917   -11359026.548 6  -8765104.51422        18.750           1.656
  23080827.878    -5958189.319 6  -4486888.70321        13.250           0.438
  23267238.464    -5689250.583 5  -4237769.39121        10.500           0.375
 91  5 22 18 43 29.9990000  0  6G18G11G19G 2G16G 6
  21713708.120     5902395.874 6   4588199.39422        19.250           1.563
  22953864.230    -7311729.905 6  -5663994.55521        15.500           0.875
  20590667.675      -98812.916 6    -66734.88022        16.500           1.969
  21946368.097   -11402145.138 7  -8798703.38622        20.250           1.719
  23078301.651    -5971464.275 6  -4497232.82621        12.500           0.563
  23259814.761    -5728263.661 5  -4268169.18321        10.750           0.406
 91  5 22 18 43 44.9990000  0  6G18G11G19G 2G16G 6
  21720600.284     5938608.006 6   4616416.59922        19.750           1.625
  22950398.651    -7329936.790 6  -5678181.72921        15.500           0.875
  20591686.948      -93442.036 6    -62549.79222        18.000           1.938
  21938173.370   -11445197.403 6  -8832250.57822        19.750           1.719
  23075798.284    -5984607.410 6  -4507474.23121        12.250           0.656
  23252393.425    -5767261.590 5  -4298557.12421        10.500           0.469
 91  5 22 18 43 59.9990000  0  6G18G11G19G 2G16G 6
  21727506.558     5974893.908 6   4644691.29222        19.500           1.531
  22946960.605    -7348009.281 6  -5692264.17321        15.250           0.844
  20592717.651      -88026.387 6    -58329.81522        17.500           2.000
  21929990.628   -11488185.042 6  -8865747.41022        19.750           1.688
  23073322.269    -5997620.462 6  -4517614.27621        12.500           0.656
  23244974.440    -5806246.108 5  -4328934.63021        10.500           0.406
 91  5 22 18 44 14.9990000  0  6G18G11G19G 2G16G 6
  21734425.120     6011251.343 6   4673021.71721        19.000           1.469
  22943548.409    -7365948.940 6  -5706243.12121        15.750           0.781
  20593756.073      -82567.840 6    -54076.41822        18.500           1.875
  21921825.964   -11531109.862 7  -8899195.29822        20.250           1.719
  23070868.808    -6010505.297 6  -4527654.41021        12.250           0.563
  23237557.862    -5845219.140 5  -4359303.21621        10.250           0.375
 91  5 22 18 44 29.9990000  0  6G18G11G19G 2G16G 6
  21741357.870     6047683.953 6   4701410.71322        19.750           1.500
  22940158.159    -7383751.809 6  -5720115.48021        15.500           0.844
  20594806.855      -77062.665 6    -49786.68322        17.500           1.969
  21913669.925   -11573967.954 6  -8932591.20022        19.750           1.625
  23068446.933    -6023258.124 6  -4537591.68621        13.000           0.656
  23230143.800    -5884176.910 5  -4389659.88721         9.750           0.438
 91  5 22 18 44 44.9990000  0  6G18G11G19G 2G16G 6
  21748304.878     6084192.504 6   4729858.89822        19.000           1.531
  22936798.761    -7401416.716 6  -5733880.33821        15.250           0.781
  20595859.362      -71509.656 6    -45459.67122        18.250           1.969
  21905526.120   -11616758.323 6  -8965934.31722        19.500           1.844
  23066042.026    -6035877.849 6  -4547425.23021        12.500           0.688
  23222737.292    -5923118.383 5  -4420003.84421        10.500           0.406
 91  5 22 18 44 59.9990000  0  6G18G11G19G 2G16G 6
  21755268.440     6120780.107 6   4758368.67422        19.750           1.594
  22933463.550    -7418940.166 6  -5747534.95921        15.500           0.719
  20596928.112      -65905.478 6    -41092.79822        17.750           2.000
  21897398.839   -11659477.253 7  -8999221.76822        20.500           1.750
  23063667.745    -6048361.146 6  -4557152.49121        12.750           0.594
  23215325.362    -5962040.157 5  -4450332.47621         9.000           0.344
 91  5 22 18 45 14.9990000  0  6G18G11G19G 2G16G 6
  21762243.870     6157441.202 7   4786935.71522        20.000           1.500
  22930155.167    -7436327.234 6  -5761083.31921        15.250           0.719
  20598002.487      -60255.533 6    -36690.25222        18.500           2.031
  21889280.253   -11702130.130 6  -9032457.75722        19.500           1.656
  23061314.222    -6060713.523 5  -4566777.72421        11.500           0.469
  23207923.230    -6000947.796 5  -4480650.09121         9.750           0.406
 91  5 22 18 45 29.9990000  0  6G18G11G19G 2G16G 6
  21769234.855     6194178.390 6   4815562.05021        19.750           1.438
  22926871.573    -7453575.135 6  -5774523.23221        15.500           0.875
  20599087.644      -54557.205 6    -32250.01122        18.000           2.063
  21881176.472   -11744714.234 6  -9065640.14422        19.750           1.813
  23058991.175    -6072932.057 6  -4576298.66721        12.750           0.469
  23200522.105    -6039838.496 5  -4510954.50421        10.000           0.500
 91  5 22 18 45 44.9990000  0  6G18G11G19G 2G16G 6
  21776242.144     6230991.808 7   4844247.79522        20.750           1.563
  22923616.425    -7470683.387 6  -5787854.33921        15.750           0.844
  20600179.980      -48809.957 6    -27771.64722        18.250           2.000
  21873086.065   -11787228.948 6  -9098768.46322        19.000           1.719
  23056689.745    -6085016.473 5  -4585715.09221        11.750           0.625
  23193127.003    -6078712.022 5  -4541245.53021        10.000           0.531
 91  5 22 18 45 59.9990000  0  6G18G11G19G 2G16G 6
  21783260.409     6267880.311 6   4872992.04922        19.750           1.594
  22920389.480    -7487652.870 6  -5801077.30121        16.250           0.813
  20601283.933      -43014.800 6    -23255.96022        18.750           1.938
  21865007.620   -11829675.438 6  -9131843.62222        19.250           1.750
  23054417.284    -6096968.063 6  -4595028.01821        12.000           0.625
  23185732.573    -6117569.533 5  -4571524.08221        10.000           0.375
 91  5 22 18 46 14.9990000  0  6G18G11G19G 2G16G 6
  21790294.808     6304843.525 7   4901794.49922        20.000           1.531
  22917187.175    -7504483.263 6  -5814191.88921        16.250           0.844
  20602393.042      -37171.822 6    -18703.00022        18.250           2.094
  21856944.847   -11872053.440 6  -9164865.42822        19.500           1.813
  23052168.448    -6108786.749 6  -4604237.39321        12.000           0.625
  23178338.433    -6156410.795 5  -4601789.98721        10.250           0.500
 91  5 22 18 46 29.9990000  0  6G18G11G19G 2G16G 6
  21797343.183     6341879.010 7   4930653.27222        20.250           1.531
  22914006.839    -7521176.701 6  -5827199.76021        16.000           0.844
  20603516.183      -31283.078 6    -14114.38122        18.500           2.063
  21848892.065   -11914365.100 6  -9197835.53122        19.250           1.688
  23049943.151    -6120474.553 6  -4613344.77621        12.000           0.625
  23170951.823    -6195238.135 5  -4632045.03221        10.000           0.531
 91  5 22 18 46 44.9990000  0  6G18G11G19G 2G16G 6
  21804403.980     6378989.500 6   4959570.49522        19.750           1.531
  22910861.612    -7537729.981 6  -5840098.42121        16.750           0.844
  20604644.972      -25345.723 6     -9487.88622        18.500           2.125
  21840853.503   -11956607.137 6  -9230751.37722        19.000           1.719
  23047746.542    -6132028.450 5  -4622347.81321        11.750           0.563
  23163565.565    -6234048.520 5  -4662286.86221        10.750           0.375
 91  5 22 18 46 59.9990000  0  6G18G11G19G 2G16G 6
  21811478.550     6416174.372 6   4988545.66822        19.500           1.625
  22907734.065    -7554143.587 6  -5852888.23021        16.250           1.063
  20605785.323      -19360.304 6     -4823.93522        19.000           2.031
  21832828.722   -11998780.078 6  -9263613.38422        19.250           1.781
  23045570.253    -6143449.221 5  -4631247.12421        11.500           0.594
  23156184.675    -6272842.635 5  -4692516.01421        11.250           0.531
 91  5 22 18 47 14.9990000  0  6G18G11G19G 2G16G 6
  21818569.222     6453435.717 6   5017580.43222        19.000           1.531
  22904640.261    -7570415.038 6  -5865567.27421        16.250           0.969
  20606933.284      -13324.561 6      -120.77122        18.750           2.156
  21824818.347   -12040881.589 6  -9296419.73022        19.500           1.719
  23043426.347    -6154734.498 6  -4640040.85921        12.000           0.656
  23148803.362    -6311618.214 5  -4722730.71721        10.250           0.531
 91  5 22 18 47 29.9990000  0  6G18G11G19G 2G16G 6
  21825675.034     6490774.282 6   5046675.37422        19.250           1.531
  22901571.167    -7586543.319 6  -5878134.75521        15.750           0.906
  20608090.940       -7237.679 6      4622.24222        18.250           2.094
  21816821.292   -12082910.730 7  -9329169.68322        20.250           1.688
  23041302.073    -6165883.476 6  -4648728.36421        12.500           0.469
  23141428.355    -6350374.319 5  -4752930.24821        10.000           0.500
 91  5 22 18 47 44.9990000  0  6G18G11G19G 2G16G 6
  21832795.495     6528186.355 6   5075827.59522        19.750           1.563
  22898527.987    -7602531.421 6  -5890593.01321        15.750           0.875
  20609258.347       -1102.659 6      9402.76422        18.750           1.938
  21808834.839   -12124870.462 6  -9361865.55022        19.250           1.875
  23039209.378    -6176899.141 6  -4657311.99621        13.000           0.594
  23134058.870    -6389114.247 5  -4783117.17921        10.750           0.469
 91  5 22 18 47 59.9990000  0  6G18G11G19G 2G16G 6
  21839929.198     6565674.187 6   5105038.84122        19.500           1.531
  22895511.456    -7618377.121 6  -5902940.30221        15.000           0.813
  20610439.706        5082.518 6     14222.36522        17.500           2.094
  21800863.737   -12166758.713 6  -9394505.72322        19.250           1.781
  23037137.706    -6187779.586 6  -4665790.27721        13.000           0.625
  23126693.019    -6427835.999 5  -4813289.95321        10.500           0.469
 91  5 22 18 48 14.9990000  0  6G18G11G19G 2G16G 6
  21847075.011     6603236.413 6   5134308.06121        18.750           1.438
  22892523.167    -7634081.286 6  -5915177.30721        15.750           0.781
  20611621.261       11316.919 6     19080.32822        18.500           2.063
  21792907.253   -12208576.352 6  -9427090.87822        19.750           1.781
  23035090.120    -6198525.955 6  -4674164.08221        12.500           0.594
  23119323.167    -6466540.489 5  -4843449.26821        10.000           0.500
 91  5 22 18 48 29.9990000  0  6G18G11G19G 2G16G 6
  21854237.909     6640870.607 6   5163633.35622        19.000           1.531
  22889560.823    -7649645.850 6  -5927305.53621        15.250           0.750
  20612818.058       17598.251 6     23974.85722        18.000           2.031
  21784960.636   -12250325.463 6  -9459622.62422        19.250           1.781
  23033072.362    -6209140.050 6  -4682434.80621        13.000           0.563
  23111965.737    -6505229.824 5  -4873596.78021        11.000           0.438
 91  5 22 18 48 44.9990000  0  6G18G11G19G 2G16G 6
  21861413.769     6678581.922 6   5193018.74722        17.750           1.594
  22886628.292    -7665065.414 6  -5939320.77621        15.750           0.781
  20614021.706       23931.862 6     28910.11722        18.750           2.188
  21777031.190   -12292000.678 6  -9492096.79522        19.500           1.781
  23031078.026    -6219616.850 6  -4690598.55121        13.250           0.594
  23104605.237    -6543898.878 5  -4903728.47621        10.500           0.469
 91  5 22 18 48 59.9990000  0  6G18G11G19G 2G16G 6
  21868604.300     6716365.976 6   5222460.80922        18.250           1.531
  22883718.847    -7680343.713 6  -5951225.94721        16.000           0.781
  20615241.198       30313.883 6     33883.11022        17.750           2.063
  21769114.776   -12333605.662 7  -9524516.24122        20.000           1.875
  23029108.456    -6229960.250 6  -4698658.34721        12.750           0.438
  23097247.573    -6582551.410 5  -4933847.30721        10.500           0.500
 91  5 22 18 49 14.9990000  0  6G18G11G19G 2G16G 6
  21875809.722     6754223.683 6   5251960.28222        18.250           1.531
  22880843.362    -7695479.749 6  -5963020.26221        16.750           0.875
  20616460.581       36745.134 6     38894.45822        18.250           2.094
  21761211.042   -12375139.582 6  -9556880.31822        19.750           1.938
  23027169.839    -6240169.421 6  -4706613.55021        13.250           0.688
  23089894.597    -6621186.743 5  -4963952.73721        10.000           0.500
 91  5 22 18 49 29.9990000  0  6G18G11G19G 2G16G 6
  21883024.917     6792150.284 6   5281513.41722        17.250           1.500
  22877989.597    -7710477.990 6  -5974707.20521        17.250           0.844
  20617694.214       43220.984 6     43940.56122        18.000           2.031
  21753319.956   -12416606.933 6  -9589192.50922        19.750           1.813
  23025250.128    -6250249.205 6  -4714467.94021        12.750           0.656
  23082545.425    -6659809.588 5  -4994048.42921        10.500           0.438
 91  5 22 18 49 44.9990000  0  6G18G11G19G 2G16G 6
  21890257.386     6830151.884 6   5311124.98922        18.750           1.531
  22875161.933    -7725331.726 6  -5986281.54221        17.000           0.875
  20618935.315       49748.129 6     49026.63022        18.250           2.094
  21745442.472   -12458001.008 6  -9621447.61122        19.500           1.813
  23023356.987    -6260192.927 6  -4722216.29621        13.000           0.719
  23075199.659    -6698413.226 5  -5024129.15021        11.250           0.500
 91  5 22 18 49 59.9990000  0  6G18G11G19G 2G16G 6
  21897502.683     6868227.544 6   5340794.30122        18.500           1.500
  22872360.683    -7740041.671 6  -5997743.84121        17.000           0.813
  20620189.222       56325.718 6     54152.00822        17.750           2.188
  21737578.894   -12499322.656 6  -9653646.27822        19.750           1.938
  23021491.276    -6270001.414 6  -4729859.28121        12.750           0.625
  23067858.753    -6736998.639 5  -5054195.69521        10.750           0.594
 91  5 22 18 50 14.9990000  0  6G18G11G19G 2G16G 6
  21904762.792     6906380.192 6   5370523.57421        18.250           1.406
  22869588.386    -7754604.592 6  -6009091.56921        16.750           0.813
  20621449.308       62956.802 6     59319.07022        18.750           2.063
  21729729.206   -12540568.627 6  -9685785.97622        19.500           1.906
  23019651.144    -6279671.837 6  -4737394.67421        13.000           0.688
  23060519.456    -6775562.719 5  -5084245.60021        10.750           0.531
 91  5 22 18 50 29.9990000  0  6G18G11G19G 2G16G 6
  21912038.425     6944607.373 6   5400310.94221        19.000           1.406
  22866842.487    -7769022.551 6  -6020326.35221        16.500           0.813
  20622720.831       69639.068 6     64526.01322        18.000           2.000
  21721894.480   -12581741.081 6  -9717868.38222        19.500           1.906
  23017839.909    -6289205.979 6  -4744823.89021        13.500           0.656
  23053182.480    -6814107.760 5  -5114280.67421        10.750           0.469
 91  5 22 18 50 44.9990000  0  6G18G11G19G 2G16G 6
  21919326.190     6982905.124 6   5430153.29222        18.500           1.500
  22864130.581    -7783299.101 6  -6031450.94621        16.500           0.844
  20624000.722       76368.897 6     69770.02222        18.500           2.094
  21714074.792   -12622843.511 7  -9749896.22722        20.500           1.969
  23016048.073    -6298607.751 6  -4752149.92821        12.750           0.594
  23045853.894    -6852637.367 5  -5144303.70821        11.000           0.469
 91  5 22 18 50 59.9990000  0  6G18G11G19G 2G16G 6
  21926627.159     7021275.756 6   5460052.42921        18.500           1.375
  22861441.042    -7797431.643 6  -6042463.31521        16.500           0.906
  20625294.808       83148.718 6     75052.98222        16.750           2.031
  21706264.472   -12663873.313 7  -9781867.48422        20.250           2.031
  23014283.347    -6307874.702 6  -4759370.95021        12.500           0.625
  23038524.784    -6891149.120 5  -5174312.84121        11.000           0.531
 91  5 22 18 51 14.9990000  0  6G18G11G19G 2G16G 6
  21933942.839     7059719.101 6   5490008.23121        17.750           1.406
  22858778.769    -7811420.304 6  -6053363.56421        16.000           0.969
  20626590.151       89978.392 6     80374.78622        18.500           2.063
  21698472.987   -12704830.675 7  -9813782.28522        20.250           2.000
  23012546.144    -6317007.132 6  -4766487.13021        12.750           0.594
  23031199.722    -6929643.193 5  -5204308.20021        11.000           0.531
 91  5 22 18 51 29.9990000  0  6G18G11G19G 2G16G 6
  21941271.276     7098237.712 6   5520022.67021        18.000           1.375
  22856145.433    -7825261.860 6  -6064149.18421        16.250           0.906
  20627905.292       96861.110 6     85737.93122        17.000           2.063
  21690693.347   -12745712.437 7  -9845638.18622        21.000           2.031
  23010833.026    -6326001.782 6  -4773495.95321        13.000           0.563
  23023878.956    -6968116.612 5  -5234287.46521        10.750           0.531
 91  5 22 18 51 44.9990000  0  6G18G11G19G 2G16G 6
  21948617.222     7136829.268 6   5550093.96421        18.500           1.438
  22853537.644    -7838958.142 6  -6074821.60221        16.250           1.063
  20629220.128      103794.767 6     91140.76922        18.500           2.094
  21682927.331   -12786520.531 7  -9877436.67822        20.500           2.125
  23009149.089    -6334861.257 6  -4780399.43821        13.250           0.563
  23016557.698    -7006571.487 5  -5264252.26721        11.000           0.656
 91  5 22 18 51 59.9990000  0  6G18G11G19G 2G16G 6
  21955972.894     7175490.303 6   5580219.39221        17.500           1.469
  22850958.019    -7852512.314 6  -6085383.29821        16.250           1.000
  20630549.573      110776.244 6     96580.86522        18.000           2.156
  21675175.120   -12827258.173 7  -9909180.26722        20.750           2.063
  23007488.292    -6343588.576 6  -4787199.95221        13.500           0.594
  23009248.550    -7045010.930 5  -5294205.06121        11.750           0.469
 91  5 22 18 52 14.9990000  0  6G18G11G19G 2G16G 6
  21963343.792     7214225.727 6   5610402.77121        18.250           1.375
  22848407.761    -7865919.422 6  -6095830.39421        16.500           1.000
  20631885.550      117810.351 6    102061.96622        18.250           2.219
  21667436.808   -12867920.433 6  -9940865.13622        19.750           2.094
  23005856.019    -6352178.923 6  -4793893.72921        13.000           0.656
  23001929.542    -7083430.229 5  -5324142.15421        10.750           0.531
 91  5 22 18 52 29.9990000  0  6G18G11G19G 2G16G 6
  21970729.190     7253036.310 6   5640644.73721        17.750           1.344
  22845882.534    -7879178.271 6  -6106161.96621        16.000           0.906
  20633236.651      124898.092 6    107584.86922        17.750           2.219
  21659714.761   -12908506.097 7  -9972490.29522        20.750           1.938
  23004247.151    -6360631.143 6  -4800479.88821        13.250           0.688
  22994628.440    -7121828.255 5  -5354062.67121        11.500           0.531
 91  5 22 18 52 44.9990000  0  6G18G11G19G 2G16G 6
  21978129.175     7291919.185 6   5670943.02721        17.750           1.344
  22843391.237    -7892291.354 6  -6116379.95021        16.500           0.938
  20634594.425      132036.675 6    113147.38622        18.500           2.063
  21652004.776   -12949017.688 7 -10004057.75922        20.500           2.031
  23002661.175    -6368947.910 6  -4806960.50421        13.000           0.656
  22987325.831    -7160207.803 5  -5383968.78621        11.500           0.563
 91  5 22 18 52 59.9990000  0  6G18G11G19G 2G16G 6
  21985542.198     7330875.255 6   5701298.34821        18.000           1.375
  22840922.409    -7905257.436 6  -6126483.38421        16.750           1.000
  20635965.347      139227.398 6    118750.53422        17.250           2.031
  21644310.862   -12989453.956 7 -10035566.52422        20.500           2.063
  23001103.917    -6377128.484 6  -4813334.97321        13.000           0.625
  22980021.355    -7198567.735 5  -5413859.62221        10.750           0.500
 91  5 22 18 53 14.9990000  0  6G18G11G19G 2G16G 6
  21992969.722     7369902.734 6   5731709.30121        18.250           1.281
  22838481.769    -7918077.754 6  -6136473.25021        17.000           0.938
  20637339.948      146469.083 6    124393.39322        18.500           2.031
  21636628.253   -13029816.277 7 -10067017.66722        20.000           2.063
  22999572.159    -6385174.153 6  -4819604.34821        12.750           0.563
  22972727.206    -7236909.278 5  -5443736.12721        11.000           0.563
 91  5 22 18 53 29.9990000  0  6G18G11G19G 2G16G 6
  22000409.433     7409000.308 6   5762174.88921        17.750           1.344
  22836071.105    -7930753.160 6  -6146350.19021        17.250           0.813
  20638729.308      153760.580 6    130075.06222        17.750           2.094
  21628963.573   -13070105.687 7 -10098411.98822        20.500           2.188
  22998069.917    -6393085.919 6  -4825769.34521        13.000           0.531
  22965434.214    -7275233.636 5  -5473599.23721        11.250           0.500
 91  5 22 18 53 44.9990000  0  6G18G11G19G 2G16G 6
  22007862.800     7448168.472 6   5792695.47021        17.750           1.344
  22833684.956    -7943283.504 6  -6156114.10621        17.000           0.938
  20640124.370      161102.008 6    135795.63622        18.500           2.063
  21621309.589   -13110321.913 7 -10129749.29222        20.250           2.063
  22996588.042    -6400863.505 6  -4831829.82421        12.250           0.625
  22958143.823    -7313540.670 5  -5503448.85221        11.750           0.469
 91  5 22 18 53 59.9990000  0  6G18G11G19G 2G16G 6
  22015328.355     7487406.076 6   5823270.16021        17.250           1.250
  22831326.706    -7955668.902 6  -6165765.06521        16.750           0.906
  20641534.120      168492.999 6    141554.83822        18.000           2.125
  21613669.894   -13150465.133 6 -10161029.70822        19.750           2.031
  22995134.136    -6408507.309 6  -4837786.04121        12.000           0.625
  22950858.980    -7351830.657 5  -5533285.17521        11.500           0.500
 91  5 22 18 54 14.9990000  0  6G18G11G19G 2G16G 6
  22022810.253     7526714.640 6   5853900.14921        18.500           1.406
  22829001.440    -7967907.723 6  -6175301.81521        16.750           0.906
  20642947.448      175935.243 6    147353.97922        18.250           2.094
  21606046.362   -13190533.494 7 -10192251.78322        20.500           2.063
  22993703.886    -6416015.968 5  -4843636.94421        11.750           0.531
  22943580.112    -7390102.057 5  -5563107.03021        11.750           0.500
 91  5 22 18 54 29.9990000  0  6G18G11G19G 2G16G 6
  22030303.565     7566092.358 6   5884584.03221        17.750           1.375
  22826697.636    -7980001.547 6  -6184725.57921        16.500           0.938
  20644375.605      183426.991 6    153191.68922        17.750           2.094
  21598435.456   -13230528.848 7 -10223416.97722        20.750           2.063
  22992301.472    -6423391.215 6  -4849383.91521        12.250           0.563
  22936302.081    -7428356.591 5  -5592915.73921        11.250           0.438
 91  5 22 18 54 44.9990000  0  6G18G11G19G 2G16G 6
  22037810.855     7605539.270 6   5915321.80621        17.250           1.469
  22824426.534    -7991950.013 6  -6194036.07421        16.250           0.969
  20645808.636      190968.310 6    159068.01522        18.500           2.125
  21590837.792   -13270450.879 7 -10254525.03422        21.000           2.031
  22990923.956    -6430632.741 6  -4855026.67621        12.500           0.563
  22929021.870    -7466594.019 5  -5622711.11421        11.750           0.469
 91  5 22 18 54 59.9990000  0  6G18G11G19G 2G16G 6
  22045328.487     7645057.138 6   5946114.89021        17.000           1.313
  22822177.292    -8003751.016 6  -6203231.66321        16.000           1.031
  20647254.433      198561.410 6    164984.70722        17.500           2.156
  21583255.558   -13310297.338 7 -10285574.20722        20.750           2.188
  22989571.698    -6437738.576 6  -4860563.70421        12.500           0.563
  22921748.745    -7504812.396 5  -5652491.66221        11.250           0.594
 91  5 22 18 55 14.9990000  0  6G18G11G19G 2G16G 6
  22052863.761     7684644.886 6   5976962.42421        17.250           1.313
  22819960.901    -8015405.262 6  -6212312.88921        15.750           0.938
  20648708.862      206205.472 6    170941.10022        18.250           2.063
  21575687.019   -13350068.974 7 -10316565.07522        20.500           2.125
  22988245.042    -6444709.737 6  -4865995.79321        12.500           0.531
  22914478.347    -7543012.521 5  -5682257.96021        11.500           0.531
 91  5 22 18 55 29.9990000  0  6G18G11G19G 2G16G 6
  22060410.355     7724301.773 6   6007863.81921        17.500           1.406
  22817770.206    -8026913.058 6  -6221280.00821        15.750           0.969
  20650176.128      213900.097 6    176936.90322        17.000           2.219
  21568133.206   -13389766.118 7 -10347497.89622        21.250           2.031
  22986944.315    -6451546.673 6  -4871323.28921        12.500           0.563
  22907213.440    -7581194.822 6  -5712010.36721        12.000           0.594
 91  5 22 18 55 44.9990000  0  6G18G11G19G 2G16G 6
  22067969.675     7764025.307 6   6038817.16821        17.000           1.219
  22815607.440    -8038276.624 6  -6230134.72921        16.000           0.969
  20651646.542      221643.036 6    182970.33522        18.250           2.188
  21560593.480   -13429391.080 7 -10378374.47122        21.250           2.125
  22985668.183    -6458252.018 6  -4876548.24021        12.500           0.531
  22899952.792    -7619361.700 6  -5741750.78121        12.500           0.500
 91  5 22 18 55 59.9990000  0  6G18G11G19G 2G16G 6
  22075540.581     7803814.885 6   6069821.96021        16.750           1.281
  22813472.917    -8049496.458 6  -6238877.45821        16.250           1.094
  20653133.019      229433.664 6    189040.93922        16.750           2.125
  21553065.409   -13468944.240 7 -10409195.10122        20.750           2.063
  22984417.675    -6464826.570 6  -4881671.29621        12.750           0.625
  22892690.362    -7657513.742 6  -5771479.62921        12.000           0.563
 91  5 22 18 56 14.9990000  0  6G18G11G19G 2G16G 6
  22083126.073     7843674.150 6   6100881.05221        17.500           1.281
  22811365.636    -8060568.474 6  -6247505.00621        16.500           1.031
  20654621.230      237275.986 6    195151.82922        18.250           2.188
  21545553.136   -13508421.696 7 -10439956.72922        21.250           2.031
  22983193.159    -6471265.979 6  -4886689.04021        13.000           0.531
  22885435.190    -7695646.905 6  -5801193.74921        12.500           0.594
 91  5 22 18 56 29.9990000  0  6G18G11G19G 2G16G 6
  22090724.284     7883603.361 6   6131994.65821        17.500           1.313
  22809287.112    -8071492.018 6  -6256016.85821        17.000           0.875
  20656123.784      245170.575 6    201303.44222        17.500           2.031
  21538057.105   -13547822.694 7 -10470658.79222        21.750           2.156
  22981994.058    -6477569.860 6  -4891601.14921        12.750           0.531
  22878180.511    -7733760.768 6  -5830892.85221        12.000           0.531
 91  5 22 18 56 44.9990000  0  6G18G11G19G 2G16G 6
  22098335.183     7923598.658 6   6163159.76021        16.750           1.281
  22807236.675    -8082270.562 6  -6264415.72621        17.250           1.031
  20657634.339      253113.788 6    207492.94422        17.750           2.156
  21530571.800   -13587150.767 7 -10501304.03222        21.750           2.156
  22980818.800    -6483741.925 6  -4896410.57421        13.000           0.594
  22870928.019    -7771858.845 6  -5860579.63421        12.250           0.563
 91  5 22 18 56 59.9990000  0  6G18G11G19G 2G16G 6
  22105958.722     7963660.039 6   6194376.34521        17.000           1.281
  22805212.980    -8092903.816 6  -6272701.38321        17.000           0.938
  20659159.511      261105.892 6    213720.53622        17.000           2.156
  21523102.480   -13626405.680 7 -10531892.25522        21.500           2.125
  22979669.253    -6489781.818 6  -4901116.99021        12.750           0.531
  22863684.284    -7809940.975 6  -5890254.00521        12.250           0.563
 91  5 22 18 57 14.9990000  0  6G18G11G19G 2G16G 6
  22113595.440     8003787.651 6   6225644.54221        16.500           1.313
  22803216.714    -8103391.359 6  -6280873.50721        16.750           1.000
  20660685.800      269147.195 6    219986.46522        18.000           2.219
  21515645.347   -13665587.006 7 -10562423.14022        21.750           2.188
  22978545.386    -6495689.303 6  -4905720.23521        12.750           0.625
  22856441.386    -7848006.836 6  -5919915.70421        12.000           0.594
 91  5 22 18 57 29.9990000  0  6G18G11G19G 2G16G 6
  22121242.823     8043982.295 6   6256964.96621        17.000           1.156
  22801249.151    -8113731.999 6  -6288931.14621        17.000           0.969
  20662227.651      277238.870 6    226291.65322        17.750           2.094
  21508203.933   -13704693.450 7 -10592895.67722        21.750           2.188
  22977444.034    -6501463.226 6  -4910219.39721        12.250           0.625
  22849198.347    -7886055.264 6  -5949563.79821        12.000           0.594
 91  5 22 18 57 44.9990000  0  6G18G11G19G 2G16G 6
  22128904.214     8084244.837 6   6288338.31721        17.000           1.406
  22799311.698    -8123924.703 6  -6296873.50921        17.250           0.906
  20663774.690      285382.105 6    232637.01822        17.500           2.094
  21500777.605   -13743723.955 7 -10623309.04522        21.750           2.125
  22976371.339    -6507103.029 6  -4914614.05721        12.000           0.625
  22841960.894    -7924085.252 5  -5979197.53721        11.750           0.625
 91  5 22 18 57 59.9990000  0  6G18G11G19G 2G16G 6
  22136578.698     8124572.341 6   6319762.27121        17.500           1.281
  22797397.542    -8133972.151 6  -6304702.70021        16.250           0.813
  20665335.276      293573.954 6    239020.26122        18.000           2.094
  21493363.730   -13782681.253 7 -10653665.36222        22.250           2.188
  22975323.026    -6512611.637 5  -4918906.49521        11.750           0.688
  22834730.784    -7962099.709 6  -6008819.17421        12.000           0.625
 91  5 22 18 58 14.9990000  0  6G18G11G19G 2G16G 6
  22144266.980     8164966.289 6   6351238.00321        17.500           1.219
  22795515.058    -8143872.350 6  -6312417.14921        16.250           0.969
  20666901.737      301816.096 6    245442.68122        18.250           2.031
  21485964.737   -13821563.528 7 -10683963.22422        22.000           2.156
  22974299.253    -6517987.157 5  -4923095.20521        11.500           0.563
  22827494.105    -8000096.878 5  -6038427.33121        11.000           0.563
 91  5 22 18 58 29.9990000  0  6G18G11G19G 2G16G 6
  22151965.581     8205426.741 6   6382765.55421        17.250           1.031
  22793658.558    -8153624.721 6  -6320016.40121        16.250           0.938
  20668479.409      310109.131 6    251904.77822        18.250           2.125
  21478579.683   -13860370.221 7 -10714202.18722        21.750           2.188
  22973303.972    -6523228.886 6  -4927179.69721        12.250           0.500
  22820269.745    -8038076.278 5  -6068021.64821        11.250           0.563
 91  5 22 18 58 44.9990000  0  6G18G11G19G 2G16G 6
  22159676.714     8245950.884 6   6414342.73621        17.000           1.156
  22791829.628    -8163231.995 6  -6327502.59621        15.500           0.875
  20670067.480      318450.180 6    258404.27722        18.000           2.156
  21471209.401   -13899103.973 7 -10744384.30822        22.250           2.094
  22972332.222    -6528340.166 6  -4931162.51621        12.000           0.656
  22813044.901    -8076040.696 6  -6097604.29921        12.000           0.563
 91  5 22 18 58 59.9990000  0  6G18G11G19G 2G16G 6
  22167400.628     8286542.770 6   6445972.71321        17.000           1.063
  22790028.808    -8172689.928 6  -6334872.41021        15.750           0.938
  20671665.542      326843.546 6    264944.54822        18.000           2.156
  21463854.058   -13937760.512 7 -10774506.27622        22.500           2.156
  22971383.237    -6533316.664 5  -4935040.30321        11.750           0.594
  22805826.222    -8113985.763 5  -6127171.85421        11.750           0.688
 91  5 22 18 59 14.9990000  0  6G18G11G19G 2G16G 6
  22175137.526     8327201.001 6   6477654.37821        17.250           1.125
  22788260.597    -8181999.509 6  -6342126.63221        15.750           1.094
  20673271.550      335288.286 6    271524.85022        18.000           2.156
  21456510.980   -13976340.767 7 -10804568.79222        22.250           2.188
  22970460.401    -6538159.680 5  -4938814.08821        11.750           0.563
  22798605.722    -8151912.792 5  -6156725.36421        11.750           0.563
 91  5 22 18 59 29.9990000  0  6G18G11G19G 2G16G 6
  22182888.940     8367923.361 6   6509386.02021        17.500           1.156
  22786514.995    -8191162.605 6  -6349266.70821        15.500           1.063
  20674887.612      343782.299 6    278143.54422        18.000           2.094
  21449181.730   -14014846.700 7 -10834573.39222        21.750           2.281
  22969565.589    -6542871.310 6  -4942485.51221        12.500           0.438
  22791393.401    -8189823.724 5  -6186266.32821        11.750           0.594
 91  5 22 18 59 44.9990000  0  6G18G11G19G 2G16G 6
  22190648.284     8408710.969 6   6541168.49521        16.500           1.063
  22784796.909    -8200177.649 6  -6356291.41621        16.000           1.000
  20676515.737      352327.087 6    284801.81022        18.250           2.063
  21441869.831   -14053276.769 7 -10864518.88622        22.500           2.344
  22968692.050    -6547449.912 6  -4946053.25221        12.250           0.625
  22784185.698    -8227717.044 6  -6215793.55021        12.500           0.625
 91  5 22 18 59 59.9990000  0  6G18G11G19G 2G16G 6
  22198422.776     8449562.588 6   6573000.85621        17.250           1.188
  22783111.573    -8209045.828 6  -6363201.68921        16.000           1.094
  20678150.831      360921.524 6    291498.74722        18.000           2.063
  21434571.870   -14091632.086 7 -10894406.12822        22.250           2.375
  22967846.347    -6551896.770 5  -4949518.34021        11.750           0.563
  22776970.269    -8265594.024 6  -6245308.06821        12.250           0.688
 91  5 22 19  0 14.9990000  0  6G18G11G19G 2G16G 6
  22206209.581     8490478.922 6   6604883.64921        17.250           1.125
  22781453.808    -8217766.008 6  -6369996.63521        16.500           1.156
  20679795.269      369566.729 6    298235.25822        18.000           2.125
  21427288.378   -14129911.578 7 -10924234.27822        22.250           2.344
  22967028.198    -6556211.003 6  -4952880.10221        12.250           0.625
  22769769.394    -8303453.471 6  -6274808.89521        12.250           0.719
 91  5 22 19  0 29.9990000  0  6G18G11G19G 2G16G 6
  22214007.862     8531460.651 6   6636817.39321        17.250           1.250
  22779823.683    -8226337.409 6  -6376675.65221        16.750           1.063
  20681454.253      378263.366 6    305011.83422        16.750           2.031
  21420018.519   -14168114.556 7 -10954002.81522        22.750           2.281
  22966231.284    -6560391.954 6  -4956137.98221        12.000           0.563
  22762570.159    -8341294.908 6  -6304295.71021        12.750           0.625
 91  5 22 19  0 44.9990000  0  6G18G11G19G 2G16G 6
  22221819.058     8572505.712 6   6668800.48321        16.500           1.031
  22778216.144    -8234761.561 6  -6383239.93021        16.000           1.063
  20683114.034      387009.838 6    311827.25322        18.000           1.906
  21412763.370   -14206242.497 7 -10983712.88322        22.500           2.313
  22965459.362    -6564441.405 6  -4959293.42121        12.000           0.563
  22755372.839    -8379119.769 6  -6333769.61321        13.000           0.563
 91  5 22 19  0 59.9990000  0  6G18G11G19G 2G16G 6
  22229640.987     8613614.861 6   6700833.51721        16.500           1.094
  22776644.026    -8243037.563 6  -6389688.76721        16.500           1.125
  20684789.511      395807.062 6    318682.22122        17.000           2.000
  21405522.019   -14244294.492 7 -11013363.78122        22.500           2.313
  22964716.831    -6568358.579 6  -4962345.78721        12.500           0.625
  22748176.105    -8416927.289 6  -6363230.00721        13.000           0.563
 91  5 22 19  1 14.9990000  0  6G18G11G19G 2G16G 6
  22237476.105     8654785.755 6   6732914.66821        17.250           1.094
  22775099.175    -8251167.317 6  -6396023.64221        16.500           0.969
  20686471.745      404653.135 6    325575.24722        17.250           2.031
  21398296.058   -14282272.207 7 -11042956.78622        22.250           2.219
  22963996.065    -6572145.622 6  -4965296.74121        12.500           0.594
  22740984.597    -8454719.383 6  -6392678.36821        12.750           0.594
 91  5 22 19  1 29.9990000  0  6G18G11G19G 2G16G 6
  22245324.073     8696018.316 6   6765043.85721        17.250           1.156
  22773573.886    -8259150.551 6  -6402244.34821        15.500           1.000
  20688168.815      413548.078 6    332506.34722        16.500           2.094
  21391083.550   -14320175.359 7 -11072491.68722        22.750           2.344
  22963300.269    -6575802.375 6  -4968146.17421        12.250           0.656
  22733796.237    -8492495.975 6  -6422114.65821        12.250           0.688
 91  5 22 19  1 44.9990000  0  6G18G11G19G 2G16G 6
  22253180.628     8737313.011 6   6797221.46621        17.000           1.063
  22772086.597    -8266986.696 6  -6408350.43621        16.000           0.781
  20689866.534      422492.386 6    339475.92122        17.750           1.938
  21383883.472   -14358003.686 7                        22.500
  22962627.292    -6579328.510 6  -4970893.83421        12.000           0.594
  22726612.690    -8530256.630 6                        12.750
 91  5 22 19  1 59.9990000  0  6G18G11G19G 2G16G 6
  22261049.355     8778669.198 6   6829446.99421        16.750           1.063
  22770622.605    -8274676.094 6  -6414342.17921        16.000           0.969
  20691579.433      431485.730 6    346483.70822        17.250           2.031
  21376700.370   -14395757.532 7                        22.500
  22961981.011    -6582724.314 6  -4973539.93921        12.000           0.688
  22719427.065    -8568001.728 6                        12.250
 91  5 22 19  2 14.9990000  0  6G18G11G19G 2G16G 6
  22268932.058     8820089.079 6   6861722.15321        16.500           1.000
  22769186.761    -8282216.219 6  -6420217.60221        15.750           0.844
  20693299.190      440530.593 6    353531.64022        17.750           1.969
  21369529.487   -14433434.242 7                        22.750
  22961360.745    -6585987.642 6  -4976082.80721        12.500           0.594
  22712247.128    -8605728.724 6                        12.500
 91  5 22 19  2 29.9990000  0  6G18G11G19G 2G16G 6
  22276826.855     8861570.424 6   6894045.20821        17.000           1.031
  22767781.886    -8289608.991 6  -6425978.20921        16.750           0.938
  20695030.612      449625.108 6    360618.25722        16.750           2.031
  21362374.847   -14471035.619 7 -11190045.07122        22.750           2.375
  22960763.995    -6589120.441 6  -4978523.95221        12.000           0.531
  22705072.706    -8643439.528 6  -6539732.93421        12.500           0.719
 91  5 22 19  2 44.9990000  0  6G18G11G19G 2G16G 6
  22284730.573     8903115.454 6   6926417.89921        15.750           1.094
  22766402.237    -8296851.881 6  -6431622.02521        16.250           0.844
  20696770.995      458771.693 6    367745.44722        17.750           2.219
  21355233.612   -14508559.242 7 -11219284.23922        22.000           2.375
  22960195.362    -6592120.443 6  -4980861.64121        12.500           0.594
  22697899.261    -8681131.929 6  -6569103.60221        12.750           0.688
 91  5 22 19  2 59.9990000  0  6G18G11G19G 2G16G 6
  22292649.245     8944722.078 6   6958838.56021        16.250           1.125
  22765055.034    -8303946.646 6  -6437150.42021        16.750           1.031
  20698520.394      467968.583 6    374911.84222        17.000           2.031
  21348106.909   -14546006.713 7 -11248464.06722        21.750           2.375
  22959646.706    -6594989.513 6  -4983097.28721        12.250           0.750
  22690731.550    -8718807.467 6  -6598461.15621        13.000           0.625
 91  5 22 19  3 14.9990000  0  6G18G11G19G 2G16G 6
  22300578.862     8986391.963 6   6991308.54321        15.500           1.125
  22763733.815    -8310891.197 6  -6442561.77521        17.250           1.000
  20700279.589      477217.747 6    382118.95922        17.500           2.188
  21340994.565   -14583375.958 7 -11277582.94722        21.750           2.344
  22959123.636    -6597725.574 6  -4985229.30121        12.500           0.531
  22683567.276    -8756464.252 6  -6627804.09021        13.250           0.594
 91  5 22 19  3 29.9990000  0  6G18G11G19G 2G16G 6
  22308518.917     9028120.984 6   7023824.56521        15.500           1.000
  22762438.128    -8317689.583 6  -6447859.22521        16.750           1.000
  20702054.995      486515.102 6    389363.63422        16.000           2.000
  21333898.440   -14620670.959 7 -11306643.96622        21.750           2.313
  22958634.495    -6600332.864 6  -4987260.98121        13.250           0.625
  22676401.815    -8794106.387 6  -6657135.59721        12.500           0.625
 91  5 22 19  3 44.9990000  0  6G18G11G19G 2G16G 6
  22316472.448     9069911.102 6   7056388.23221        15.500           1.094
  22761171.550    -8324339.399 6  -6453040.90921        16.750           1.063
  20703829.128      495863.076 6    396647.74722        18.000           2.031
  21326816.808   -14657889.463 7 -11335645.38822        21.500           2.250
  22958161.347    -6602809.393 6  -4989190.75721        12.750           0.531
  22669239.987    -8831731.506 6  -6686453.84921        12.750           0.656
 91  5 22 19  3 59.9990000  0  6G18G11G19G 2G16G 6
  22324435.464     9111761.682 6   7088998.99221        15.500           0.969
  22759935.745    -8330840.999 6  -6458107.09521        16.250           1.000
  20705622.206      505261.218 6    403970.95622        16.500           2.000
  21319749.269   -14695031.800 7 -11364587.44722        22.250           2.188
  22957713.901    -6605155.632 6  -4991019.01221        12.500           0.531
  22662084.480    -8869340.156 6  -6715759.27621        12.750           0.750
 91  5 22 19  4 14.9990000  0  6G18G11G19G 2G16G 6
  22332411.206     9153672.036 6   7121656.34521        16.250           1.031
  22758726.456    -8337194.923 6  -6463058.20521        16.000           1.094
  20707415.323      514709.088 6    411332.91822        17.750           2.156
  21312694.714   -14732098.472 7 -11393470.54422        22.250           2.219
  22957291.401    -6607372.161 6  -4992746.19221        12.500           0.594
  22654934.636    -8906932.766 6  -6745052.18721        12.500           0.656
 91  5 22 19  4 29.9990000  0  6G18G11G19G 2G16G 6
  22340396.605     9195639.626 6   7154358.30521        15.250           0.969
  22757544.980    -8343403.390 6  -6467895.96621        15.750           1.031
  20709223.800      524204.304 6    418731.76722        17.250           2.063
  21305654.597   -14769091.674 7 -11422296.40622        22.000           2.250
  22956893.542    -6609461.155 6  -4994373.99821        12.750           0.625
  22647778.253    -8944511.697 6  -6774334.44721        12.500           0.719
 91  5 22 19  4 44.9990000  0  6G18G11G19G 2G16G 6
  22348396.464     9237665.253 6   7187105.45821        15.250           1.031
  22756392.472    -8349465.313 6  -6472619.55621        15.750           1.000
  20711037.737      533748.020 6    426168.40922        17.750           1.906
  21298629.136   -14806010.175 7 -11451064.04622        23.000           2.063
  22956517.987    -6611421.856 6  -4995901.82921        12.250           0.563
  22640634.855    -8982075.822 6  -6803605.19721        13.000           0.625
 91  5 22 19  4 59.9990000  0  6G18G11G19G 2G16G 6
  22356404.487     9279751.369 6   7219899.77321        15.250           0.906
  22755266.347    -8355377.897 6  -6477226.76821        15.250           0.969
  20712864.050      543343.072 6    433645.05322        17.250           2.000
  21291620.144   -14842851.266 7 -11479771.37122        23.750           2.313
  22956172.909    -6613251.721 6  -4997327.72121        12.750           0.563
  22633483.808    -9019622.353 6  -6832862.20221        12.750           0.625
 91  5 22 19  5 14.9990000  0  6G18G11G19G 2G16G 6
  22364422.526     9321895.203 6   7252739.05821        14.500           0.938
  22754163.980    -8361143.519 6  -6481719.45321        15.000           0.969
  20714699.011      552986.893 6    441159.70122        18.000           2.031
  21284622.472   -14879617.222 7 -11508420.15122        23.250           2.313
  22955849.761    -6614953.435 6  -4998653.75421        13.000           0.563
  22626347.261    -9057153.910 6  -6862107.55821        13.250           0.750
 91  5 22 19  5 29.9990000  0  6G18G11G19G 2G16G 6
  22372454.331     9364100.102 6   7285625.89221        15.000           1.094
  22753096.065    -8366759.001 6  -6486095.17021        15.000           0.938
  20716547.933      562682.831 6    448714.96022        17.000           1.938
  21277642.073   -14916304.902 7 -11537007.93122        23.250           2.313
  22955549.612    -6616524.034 6  -4999877.60221        12.500           0.531
  22619207.730    -9094667.165 6  -6891338.64121        13.750           0.688
 91  5 22 19  5 44.9990000  0  6G18G11G19G 2G16G 6
  22380498.534     9406365.639 6   7318560.01021        15.500           0.938
  22752061.714    -8372224.189 6  -6490353.76321        16.000           1.031
  20718398.581      572431.067 6    456310.97022        17.500           2.063
  21270676.136   -14952913.976 7 -11565534.46322        23.750           2.313
  22955276.792    -6617963.039 6  -5000998.92421        12.750           0.594
  22612073.308    -9132162.058 6  -6920555.43321        13.000           0.656
 91  5 22 19  5 59.9990000  0  6G18G11G19G 2G16G 6
  22388549.823     9448690.937 6   7351540.71221        14.250           1.063
  22751050.347    -8377539.554 6  -6494495.60921        17.000           0.969
  20720265.886      582231.070 6    463947.31222        17.250           1.969
  21263723.808   -14989445.084 7 -11594000.24222        23.000           2.313
  22955028.886    -6619271.440 6  -5002018.45921        12.750           0.531
  22604938.167    -9169639.170 6  -6949758.34621        12.750           0.656
 91  5 22 19  6 14.9990000  0  6G18G11G19G 2G16G 6
  22396617.784     9491075.716 6   7384567.72421        15.500           0.906
  22750065.425    -8382705.418 6  -6498520.96621        17.250           0.938
  20722139.292      592082.335 6    471623.60322        17.750           2.031
  21256787.136   -15025898.585 7 -11622405.54622        23.000           2.375
  22954803.886    -6620449.356 6  -5002936.33721        12.500           0.625
  22597811.651    -9207098.696 6  -6978947.56621        12.500           0.563
 91  5 22 19  6 29.9990000  0  6G18G11G19G 2G16G 6
  22404696.698     9533518.343 6   7417639.83721        15.500           0.969
  22749109.300    -8387723.103 6  -6502430.86521        17.250           0.938
  20724023.401      601983.779 6    479338.98822        17.000           1.844
  21249864.855   -15062275.652 7 -11650751.29622        23.750           2.406
  22954602.323    -6621498.478 6  -5003753.85521        12.000           0.563
  22590688.511    -9244542.066 6  -7008124.20421        12.750           0.625
 91  5 22 19  6 44.9990000  0  6G18G11G19G 2G16G 6
  22412782.417     9576017.602 6   7450756.07621        15.500           1.000
  22748184.480    -8392593.530 6  -6506226.01421        17.500           0.906
  20725917.511      611934.309 6    487092.63122        17.750           1.938
  21242957.878   -15098577.150 7 -11679038.17322        23.000           2.344
  22954431.284    -6622420.086 6  -5004472.00821        12.750           0.563
  22583563.355    -9281970.328 6  -7037289.06121        12.500           0.656
 91  5 22 19  6 59.9990000  0  6G18G11G19G 2G16G 6
  22420879.972     9618577.495 6   7483919.54721        15.250           0.938
  22747286.292    -8397312.227 6  -6509902.94021        17.500           1.031
  20727821.987      621938.218 6    494887.86722        17.000           2.000
  21236063.675   -15134798.522 7 -11707262.59822        23.000           2.313
  22954278.972    -6623209.582 6  -5005087.21221        12.750           0.594
  22576446.722    -9319378.879 6  -7066438.56821        13.000           0.719
 91  5 22 19  7 14.9990000  0  6G18G11G19G 2G16G 6
  22428989.011     9661194.241 6   7517127.32921        14.250           0.938
  22746418.034    -8401882.901 6  -6513464.50721        17.000           0.969
  20729733.417      631992.134 6    502722.06322        17.750           2.031
  21229184.370   -15170943.430 7 -11735427.44022        22.750           2.344
  22954151.261    -6623870.925 5  -5005602.57221        11.750           0.656
  22569332.698    -9356771.616 6  -7095575.74321        13.250           0.719
 91  5 22 19  7 29.9990000  0  6G18G11G19G 2G16G 6
  22437113.253     9703867.721 6   7550379.30421        15.500           0.813
  22745575.409    -8406305.417 6  -6516910.63421        16.500           1.031
  20731657.964      642096.019 6    510595.20122        17.000           1.938
  21222321.073   -15207011.763 7 -11763532.62522        23.000           2.375
  22954050.050    -6624403.831 5  -5006017.84121        11.750           0.469
  22562220.019    -9394148.216 6  -7124700.35821        13.250           0.656
 91  5 22 19  7 44.9990000  0  6G18G11G19G 2G16G 6
  22445241.823     9746597.690 6   7583675.33321        14.500           0.813
  22744760.105    -8410579.687 6  -6520241.23721        15.250           0.969
  20733588.987      652250.012 6    518507.37422        17.750           2.094
  21215474.183   -15243003.302 7 -11791577.96622        23.500           2.250
  22953972.409    -6624808.583 6  -5006333.24521        12.250           0.500
  22555111.831    -9431508.731 6  -7153812.43021        13.500           0.688
 91  5 22 19  7 59.9990000  0  6G18G11G19G 2G16G 6
  22453383.456     9789383.064 6   7617014.51121        14.250           0.781
  22743974.917    -8414706.516 6  -6523456.94121        15.250           1.094
  20735532.503      662453.261 6    526457.93922        16.750           2.188
  21208638.690   -15278918.916 7 -11819564.14522        23.750           2.313
  22953920.605    -6625086.478 6  -5006549.79921        12.000           0.500
  22548005.519    -9468853.977 6  -7182912.59221        13.750           0.750
 91  5 22 19  8 14.9990000  0  6G18G11G19G 2G16G 6
  22461537.003     9832227.671 6   7650399.85021        14.250           0.875
  22743218.987    -8418681.716 6  -6526554.49521        15.500           0.906
  20737480.870      672709.812 6    534450.03422        17.500           1.938
  21201819.331   -15314754.563 7 -11847488.00722        23.250           2.344
  22953893.456    -6625233.247 6                        12.250
  22540900.433    -9506179.804 6  -7211997.63821        13.750           0.750
 91  5 22 19  8 29.9990000  0  6G18G11G19G 2G16G 6
  22469702.769     9875129.488 6   7683829.75721        15.000           0.938
  22742491.987    -8422507.079 6  -6529535.30621        16.500           1.063
  20739446.651      683017.876 6    542482.27122        16.000           1.938
  21195016.011   -15350511.945 7 -11875350.88522        23.250           2.375
  22953892.987    -6625250.825 6                        12.250
  22533800.167    -9543488.147 6  -7241069.04921        13.250           0.688
 91  5 22 19  8 44.9990000  0  6G18G11G19G 2G16G 6
  22477875.284     9918087.601 6   7717303.54121        14.000           0.906
  22741794.222    -8426183.276 6  -6532399.87321        16.750           1.031
  20741415.612      693376.898 6    550554.21422        18.000           2.031
  21188225.011   -15386191.650 7 -11903153.23322        23.000           2.344
  22953907.565    -6625140.147 5                        11.500
  22526706.050    -9580779.581 6  -7270127.29721        13.750           0.719
 91  5 22 19  8 59.9990000  0  6G18G11G19G 2G16G 6
  22486062.597     9961102.106 6   7750821.25921        14.000           0.844
  22741119.347    -8429709.987 6  -6535147.97621        16.250           0.969
  20743397.792      703787.454 6    558666.32322        17.750           2.000
  21181451.683   -15421793.277 7 -11930894.74522        23.000           2.344
  22953956.230    -6624901.022 5                        11.500
  22519612.261    -9618053.759 6  -7299172.08721        13.500           0.719
 91  5 22 19  9 14.9990000  0  6G18G11G19G 2G16G 6
  22494257.417    10004170.816 6   7784381.23021        14.500           0.938
  22740478.425    -8433088.981 6  -6537780.96021        16.750           0.906
  20745386.144      714247.525 6    566817.00622        18.000           2.000
  21174689.355   -15457318.494 7 -11958576.71222        22.750           2.406
  22954024.144    -6624535.175 6                        12.000
  22512519.237    -9655312.540 6  -7328204.88221        13.000           0.750
 91  5 22 19  9 29.9990000  0  6G18G11G19G 2G16G 6
  22502462.480    10047295.238 6   7817984.60421        14.000           1.000
  22739863.480    -8436318.880 6  -6540297.77721        17.250           0.938
  20747388.386      724758.562 6    575007.39822        16.750           2.000
  21167944.464   -15492765.745 7 -11986197.93322        23.000           2.406
  22954116.800    -6624041.376 5  -5005735.52721        11.750           0.625
  22505431.089    -9692554.440 6  -7357224.52021        13.000           0.719
 91  5 22 19  9 44.9990000  0  6G18G11G19G 2G16G 6
  22510680.659    10090475.016 6   7851631.09521        14.000           0.938
  22739276.698    -8439399.555 6  -6542698.31421        16.750           0.906
  20749396.917      735320.810 6    583237.70022        17.750           2.031
  21161213.847   -15528134.905 7 -12013758.29922        22.750           2.469
  22954236.472    -6623419.749 6  -5005251.15121        12.000           0.594
  22498348.534    -9729779.411 6  -7386230.98721        13.250           0.750
 91  5 22 19  9 59.9990000  0  6G18G11G19G 2G16G 6
  22518905.183    10133703.248 6   7885315.35121        13.500           0.938
  22738717.542    -8442337.778 6  -6544987.84321        16.750           0.969
  20751415.855      745927.272 6    591502.45522        18.000           1.969
  21154497.855   -15563432.771 7 -12041263.11123        22.750           2.500
  22954378.495    -6622677.164 6  -5004672.52721        12.250           0.594
  22491266.058    -9766994.177 6  -7415229.48021        13.000           0.688
 91  5 22 19 10 14.9990000  0  6G18G11G19G 2G16G 6
  22527141.769    10176987.984 6   7919043.64721        13.500           0.875
  22738189.714    -8445125.141 6  -6547159.82721        16.750           0.938
  20753443.542      756586.455 6    599808.29222        18.500           2.000
  21147794.128   -15598650.883 7 -12068705.78223        22.250           2.563
  22954545.808    -6621805.410 6  -5003993.26221        12.000           0.625
  22484189.550    -9804190.495 6  -7444213.59921        12.750           0.656
 91  5 22 19 10 29.9990000  0  6G18G11G19G 2G16G 6
  22535388.526    10220327.699 6   7952814.77821        13.000           0.813
  22737686.167    -8447762.854 6  -6549215.19721        16.000           1.031
  20755482.284      767297.102 6    608154.23822        17.750           2.000
  21141108.558   -15633790.417 7 -12096087.21923        23.000           2.531
  22954735.230    -6620805.984 6  -5003214.50221        12.000           0.719
  22477113.808    -9841369.494 6  -7473184.22421        13.250           0.656
 91  5 22 19 10 44.9990000  0  6G18G11G19G 2G16G 6
  22543646.651    10263719.897 6   7986626.77821        13.750           0.750
  22737211.058    -8450253.377 6  -6551155.86221        16.000           0.906
  20757528.214      778057.069 6    616538.60422        17.500           1.938
  21134436.862   -15668853.744 7 -12123409.27723        22.750           2.531
  22954949.597    -6619681.278 5  -5002338.13421        11.750           0.625
  22470040.745    -9878533.499 6  -7502143.16621        13.500           0.688
 91  5 22 19 10 59.9990000  0  6G18G11G19G 2G16G 6
  22551915.026    10307162.756 6   8020478.29621        14.000           0.813
  22736767.292    -8452598.136 6  -6552982.94821        16.250           0.969
  20759585.362      788864.631 6    624960.05222        18.250           1.875
  21127778.620   -15703842.324 7 -12150673.08823        22.750           2.719
  22955188.534    -6618433.055 6  -5001365.50921        12.750           0.625
  22462974.347    -9915684.104 6  -7531091.67121        13.250           0.750
 91  5 22 19 11 14.9980000  0  6G18G11G19G 2G16G 6
  22560188.756    10350655.253 6   8054368.47721        12.750           0.844
  22736347.381    -8454794.870 6  -6554694.69221        16.500           1.000
  20761652.217      799721.294 6    633419.77922        18.250           1.906
  21121134.225   -15738751.622 7 -12177875.12023        22.750           2.719
  22955449.295    -6617059.154 6  -5000294.95621        12.250           0.656
  22455905.967    -9952816.572 6  -7560026.03721        13.750           0.688
 91  5 22 19 11 29.9980000  0  6G18G11G19G 2G16G 6
  22568479.725    10394203.125 6   8088301.78021        14.000           0.844
  22735958.272    -8456843.644 6  -6556291.14121        16.750           1.063
  20763727.365      810628.815 6    641919.12722        18.000           1.906
  21114503.928   -15773586.067 7 -12205018.84423        22.250           2.719
  22955731.061    -6615559.469 5  -4999126.38821        11.750           0.625
  22448843.076    -9989935.719 6  -7588950.03421        13.500           0.719
 91  5 22 19 11 44.9980000  0  6G18G11G19G 2G16G 6
  22576775.967    10437802.594 6   8122275.33421        15.000           0.844
  22735595.592    -8458744.869 6  -6557772.62521        17.000           0.938
  20765811.662      821585.928 6    650457.11422        17.750           2.000
  21107893.053   -15808343.949 7 -12232102.87923        22.250           2.719
  22956045.732    -6613935.207 6  -4997860.73921        12.000           0.563
  22441782.381   -10027039.615 6  -7617862.13721        14.000           0.688
 91  5 22 19 11 59.9980000  0  6G18G11G19G 2G16G 6
  22585078.318    10481450.195 6   8156286.37621        13.500           0.844
  22735259.389    -8460501.924 6  -6559141.77021        17.000           0.969
  20767907.053      832589.200 6    659031.07022        17.750           2.031
  21101293.115   -15843028.307 7 -12259129.64023        23.000           2.656
  22956372.818    -6612189.716 5  -4996500.64121        10.750           0.594
  22434727.834   -10064131.616 6  -7646764.97421        14.750           0.781
 91  5 22 19 12 14.9980000  0  6G18G11G19G 2G16G 6
  22593397.217    10525147.808 6   8190336.36321        13.500           0.844
  22734957.756    -8462112.667 6  -6560396.89921        17.500           1.000
  20770009.725      843640.786 6    667642.67022        18.000           1.969
  21094704.678   -15877637.046 7 -12286097.47423        22.000           2.625
  22956729.006    -6610320.720 5  -4995044.30021        11.000           0.500
  22427668.272   -10101209.582 6  -7675656.88021        14.750           0.719
 91  5 22 19 12 29.9980000  0  6G18G11G19G 2G16G 6
  22601722.420    10568897.818 6   8224427.21021        14.250           0.781
  22734678.365    -8463574.415 6  -6561535.93421        17.500           0.875
  20772122.998      854743.433 6    676294.06922        17.750           1.938
  21088134.147   -15912167.437 7 -12313004.25623        21.750           2.688
  22957112.998    -6608325.813 5  -4993489.82921        11.500           0.531
  22420613.482   -10138270.780 6  -7704535.71821        14.000           0.688
 91  5 22 19 12 44.9980000  0  6G18G11G19G 2G16G 6
  22610057.084    10612695.210 6   8258554.96921        14.000           0.875
  22734425.811    -8464891.992 6  -6562562.61821        17.250           1.000
  20774242.693      865892.401 6    684981.55922        18.000           1.844
  21081577.928   -15946624.305 7 -12339853.75023        22.250           2.719
  22957514.201    -6606209.937 5  -4991841.13421        11.250           0.469
  22413567.529   -10175320.060 6  -7733405.26621        14.250           0.844
 91  5 22 19 12 59.9980000  0  6G18G11G19G 2G16G 6
  22618399.803    10656541.104 6   8292720.50821        14.000           0.906
  22734201.748    -8466064.045 6  -6563475.91221        16.750           0.875
  20776377.084      877089.170 6    693706.30122        16.750           1.906
  21075036.006   -15981006.234 7 -12366644.84623        22.500           2.688
  22957937.772    -6603971.897 5  -4990097.19221        11.750           0.406
  22406519.709   -10212356.036 6  -7762264.44721        14.500           0.781
 91  5 22 19 13 14.9980000  0  6G18G11G19G 2G16G 6
  22626753.818    10700434.107 6   8326922.77621        14.000           0.781
  22734007.975    -8467091.771 6  -6564276.73621        16.500           0.906
  20778513.107      888332.608 6    702467.39822        17.750           1.875
  21068506.967   -16015314.298 7 -12393378.38423        22.500           2.750
  22958385.873    -6601613.040 6  -4988259.16021        12.000           0.500
  22399470.545   -10249379.837 6  -7791114.13921        14.000           0.875
 91  5 22 19 13 29.9980000  0  6G18G11G19G 2G16G 6
  22635115.342    10744375.961 6   8361163.07921        14.000           0.875
  22733842.107    -8467973.255 6  -6564963.61621        16.500           0.844
  20780663.936      899624.341 6    711266.13322        17.250           1.906
  21061991.732   -16049546.433 7 -12420052.76323        22.750           2.688
  22958859.576    -6599131.568 5  -4986325.54521        11.750           0.469
  22392426.881   -10286389.573 6  -7819952.85921        13.750           0.938
 91  5 22 19 13 44.9980000  0  6G18G11G19G 2G16G 6
  22643487.443    10788367.048 6   8395441.77121        15.250           0.781
  22733700.428    -8468707.794 6  -6565535.99121        16.000           0.844
  20782819.857      910965.234 6    720103.17222        18.000           1.844
  21055492.576   -16083702.148 7 -12446667.58523        22.500           2.625
  22959355.162    -6596526.938 5  -4984295.99121        11.250           0.563
  22385391.154   -10323384.473 6  -7848780.04121        14.000           0.813
 91  5 22 19 13 59.9980000  0  6G18G11G19G 2G16G 6
  22651868.225    10832405.716 6   8429757.53521        14.250           0.906
  22733588.350    -8469296.837 6  -6565994.99321        16.000           0.906
  20784992.764      922353.956 6    728977.48522        17.000           1.969
  21049008.193   -16117782.453 7 -12473223.64623        22.500           2.688
  22959876.607    -6593800.785 6  -4982171.74121        12.000           0.500
  22378353.350   -10360365.956 6  -7877596.76221        14.500           0.719
 91  5 22 19 14 14.9980000  0  6G18G11G19G 2G16G 6
  22660256.428    10876491.978 6   8464110.37421        14.250           0.750
  22733505.365    -8469740.146 6  -6566340.42521        16.250           0.813
  20787164.123      933790.926 6    737889.39222        17.750           2.000
  21042534.545   -16151787.090 7 -12499720.75323        22.250           2.531
  22960417.803    -6590953.119 6  -4979952.80621        12.750           0.531
  22371317.889   -10397333.730 6  -7906402.79521        14.500           0.750
 91  5 22 19 14 29.9980000  0  6G18G11G19G 2G16G 6
  22668653.748    10920629.833 6   8498503.43221        13.500           0.656
  22733449.514    -8470033.459 6  -6566568.98921        16.500           0.781
  20789350.373      945280.352 6    746842.17022        17.000           2.000
  21036080.717   -16185711.808 7 -12526155.58323        23.250           2.688
  22960983.592    -6587979.562 6  -4977635.75521        12.500           0.531
  22364288.436   -10434283.426 6  -7935194.76021        14.500           0.813
 91  5 22 19 14 44.9980000  0  6G18G11G19G 2G16G 6
  22677062.225    10964813.042 6   8532931.82221        14.000           0.688
  22733417.303    -8470182.776 6                        16.500
  20791544.959      956816.242 6    755831.15522        17.750           1.906
  21029641.529   -16219562.553 7 -12552532.77323        24.000           2.594
  22961570.850    -6584886.466 6  -4975225.57621        12.000           0.406
  22357258.475   -10471221.138 6  -7963977.36321        14.000           0.781
 91  5 22 19 14 59.9980000  0  6G18G11G19G 2G16G 6
  22685479.545    11009045.202 6   8567398.36421        13.750           0.656
  22733418.975    -8470184.358 6                        16.500
  20793752.412      968402.478 6    764859.37722        17.000           1.969
  21023211.873   -16253335.353 7 -12578849.22023        23.000           2.500
  22962181.404    -6581670.022 6  -4972719.27621        12.000           0.375
  22350230.725   -10508143.023 6  -7992747.64121        13.750           0.813
 91  5 22 19 15 14.9980000  0  6G18G11G19G 2G16G 6
  22693905.686    11053325.336 6   8601902.28121        13.750           0.750
  22733445.295    -8470038.922 6                        16.500
  20795966.779      980038.481 6    773926.37322        18.000           2.063
  21016800.084   -16287031.039 7 -12605105.57923        23.000           2.656
  22962818.717    -6578330.933 5  -4970117.40321        11.750           0.438
  22343209.522   -10545049.758 6  -8021506.11321        14.250           0.875
 91  5 22 19 15 29.9980000  0  6G18G11G19G 2G16G 6
  22702341.631    11097650.855 6   8636441.55221        14.000           0.688
  22733505.154    -8469748.798 6                        17.500
  20798190.787      991721.833 6    783030.26922        17.000           1.969
  21010402.717   -16320651.923 7 -12631303.66923        23.250           2.719
  22963472.936    -6574872.289 5  -4967422.39521        11.500           0.531
  22336189.045   -10581943.712 6  -8050254.63221        14.500           0.813
 91  5 22 19 15 44.9980000  0  6G18G11G19G 2G16G 6
  22710785.178    11142022.020 6   8671016.40921        12.750           0.625
  22733587.568    -8469313.521 6  -6566008.02321        16.750           0.969
  20800421.404     1003452.990 6    792171.41222        17.250           2.031
  21004020.686   -16354197.490 7 -12657443.04723        23.750           2.594
  22964154.990    -6571293.569 5  -4964633.80421        11.500           0.500
  22329167.561   -10618824.388 6  -8078992.80621        14.250           0.750
 91  5 22 19 15 59.9980000  0  6G18G11G19G 2G16G 6
  22719237.436    11186440.209 6   8705627.89421        13.000           0.594
  22733697.443    -8468731.339 6  -6565554.38921        17.250           1.031
  20802665.779     1015233.816 6    801351.25622        16.000           1.969
  20997650.772   -16387665.915 7 -12683522.32423        23.750           2.594
  22964861.467    -6567593.054 5  -4961750.29421        11.750           0.563
  22322150.342   -10655689.977 6  -8107719.22021        14.500           0.938
 91  5 22 19 16 14.9980000  0  6G18G11G19G 2G16G 6
  22727698.897    11230903.715 6   8740274.70221        13.500           0.625
  22733834.272    -8468003.997 6  -6564987.63321        16.750           0.969
  20804914.998     1027062.664 6    810568.52522        18.250           1.969
  20991294.990   -16421058.826 7 -12709542.75823        23.500           2.625
  22965590.232    -6563772.637 5  -4958773.36721        11.250           0.469
  22315142.576   -10692542.102 6  -8136435.14521        14.750           0.844
 91  5 22 19 16 29.9980000  0  6G18G11G19G 2G16G 6
  22736169.889    11275413.264 6   8774957.37321        14.000           0.656
  22733999.529    -8467130.508 6  -6564306.99521        16.750           0.969
  20807177.303     1038940.472 6    819823.95122        16.000           1.938
  20984954.865   -16454375.130 7 -12735503.50523        23.750           2.563
  22966342.428    -6559831.372 5  -4955702.28721        11.750           0.469
  22308133.928   -10729379.724 6  -8165139.76121        15.000           0.938
 91  5 22 19 16 44.9980000  0  6G18G11G19G 2G16G 6
  22744648.787    11319967.567 6   8809674.91121        13.750           0.563
  22734194.420    -8466112.100 6  -6563513.43121        16.750           1.063
  20809443.912     1050866.295 6    829116.78722        17.000           1.969
  20978631.631   -16487615.988 7 -12761405.45623        23.750           2.688
  22967110.139    -6555770.501 5  -4952537.98521        11.250           0.500
  22301122.428   -10766204.019 6  -8193834.00121        14.500           0.875
 91  5 22 19 16 59.9980000  0  6G18G11G19G 2G16G 6
  22753133.272    11364566.684 6   8844427.39321        13.500           0.531
  22734416.670    -8464948.139 6  -6562606.44621        17.250           0.813
  20811722.412     1062840.666 6    838447.43622        16.250           2.063
  20972319.678   -16520780.866 7 -12787248.19823        24.000           2.625
  22967904.529    -6551589.945 5  -4949280.42121        11.250           0.469
  22294118.826   -10803014.403 6  -8222517.39521        14.500           0.875
 91  5 22 19 17 14.9980000  0  6G18G11G19G 2G16G 6
  22761631.209    11409212.658 6   8879216.38721        14.250           0.438
  22734663.615    -8463636.457 6  -6561584.37721        16.750           0.906
  20814009.717     1074865.864 6    847817.71222        17.250           2.000
  20966022.990   -16553867.202 7 -12813029.75323        24.000           2.719
  22968723.779    -6547287.580 6  -4945927.94421        12.000           0.469
  22287118.389   -10839808.593 6  -8251188.17121        14.500           1.031
 91  5 22 19 17 29.9980000  0  6G18G11G19G 2G16G 6
  22770134.631    11453903.392 6   8914040.26721        14.250           0.563
  22734941.279    -8462179.331 6  -6560448.95621        16.000           0.969
  20816307.639     1086939.590 6    857225.79122        16.500           1.875
  20959742.092   -16586877.293 7 -12838751.88823        24.750           2.656
  22969563.045    -6542865.839 5  -4942482.44821        11.000           0.469
  22280116.912   -10876588.797 6  -8279848.05521        15.000           1.031
 91  5 22 19 17 44.9980000  0  6G18G11G19G 2G16G 6
  22778647.803    11498638.332 6   8948898.57321        13.000           0.531
  22735250.326    -8460576.851 6  -6559200.27221        16.750           0.813
  20818614.990     1099061.888 6    866671.72822        17.750           1.938
  20953474.365   -16619811.275 7 -12864414.71123        24.750           2.625
  22970427.170    -6538324.844 5  -4938944.03621        10.750           0.531
  22273124.404   -10913354.916 6  -8308496.94821        15.000           0.938
 91  5 22 19 17 59.9980000  0  6G18G11G19G 2G16G 6
  22787168.209    11543415.518 6   8983789.79621        13.750           0.563
  22735580.779    -8458830.569 6  -6557839.54321        17.000           1.000
  20820933.732     1111231.229 6    876154.32322        15.750           1.938
  20947220.553   -16652670.519 7 -12890019.30523        24.000           2.656
  22971316.240    -6533666.419 5  -4935314.13621        11.750           0.438
  22266126.881   -10950108.726 6  -8337136.26221        14.750           0.938
 91  5 22 19 18 14.9980000  0  6G18G11G19G 2G16G 6
  22795696.522    11588234.362 6   9018713.49821        14.000           0.625
  22735938.365    -8456940.864 6  -6556367.05921        17.000           0.781
  20823256.100     1123447.446 6    885673.43522        16.750           1.938
  20940983.881   -16685455.302 7 -12915565.87723        24.750           2.563
  22972225.475    -6528890.792 5  -4931592.87821        11.750           0.438
  22259135.897   -10986850.307 6  -8365766.04621        14.250           0.875
 91  5 22 19 18 29.9980000  0  6G18G11G19G 2G16G 6
  22804234.279    11633098.592 6   9053672.54421        13.500           0.750
  22736326.467    -8454903.741 6  -6554779.70721        16.750           0.906
  20825589.967     1135714.433 6    895232.09822        16.500           2.031
  20934759.967   -16718161.592 7 -12941051.28723        24.750           2.656
  22973161.568    -6523994.252 6  -4927777.43321        12.000           0.500
  22252150.334   -11023575.732 6  -8394383.24321        15.000           0.844
 91  5 22 19 18 44.9980000  0  6G18G11G19G 2G16G 6
  22812779.725    11678005.998 6   9088665.22921        12.750           0.656
  22736745.389    -8452721.687 6  -6553079.41321        16.750           0.938
  20827933.967     1148029.951 6    904828.59822        17.750           2.094
  20928549.357   -16750791.700 7 -12966477.33023        24.250           2.750
  22974114.779    -6518979.355 6  -4923869.72521        12.750           0.531
  22245158.381   -11060287.302 6  -8422989.64421        14.500           1.000
 91  5 22 19 18 59.9980000  0  6G18G11G19G 2G16G 6
  22821335.506    11722957.767 6   9123692.48421        12.750           0.688
  22737186.889    -8450393.161 6  -6551264.99121        16.750           0.938
  20830286.748     1160395.525 6    914464.09222        16.500           1.906
  20922355.615   -16783344.074 7 -12991842.80223        24.750           2.781
  22975089.967    -6513844.923 6  -4919868.91321        12.000           0.344
  22238179.857   -11096983.518 6  -8451584.07621        15.250           1.000
 91  5 22 19 19 14.9980000  0  6G18G11G19G 2G16G 6
  22829897.162    11767951.634 6   9158752.53621        13.250           0.594
  22737653.147    -8447920.102 6  -6549337.93721        16.000           0.844
  20832647.990     1172809.294 6    924137.14922        17.000           1.844
  20916176.670   -16815820.504 7 -13017149.09323        25.500           2.531
  22976088.412    -6508593.033 5  -4915776.52821        11.000           0.438
  22231199.326   -11133666.155 6  -8480167.93221        15.250           1.000
 91  5 22 19 19 29.9980000  0  6G18G11G19G 2G16G 6
  22838468.100    11812987.232 6   9193845.14421        13.500           0.563
  22738155.240    -8445302.605 6  -6547298.34021        16.250           0.969
  20835020.615     1185271.169 6    933847.67822        16.000           1.969
  20910011.029   -16848221.027 7 -13042396.24123        25.250           2.656
  22977110.701    -6503223.827 5  -4911592.77021        11.250           0.406
  22224219.342   -11170335.367 6  -8508741.31621        15.250           0.969
 91  5 22 19 19 44.9980000  0  6G18G11G19G 2G16G 6
  22847044.256    11858063.992 6   9228969.81321        12.250           0.625
  22738679.381    -8442541.025 6  -6545146.46921        16.250           0.906
  20837400.522     1197780.907 6    943595.51422        17.000           2.063
  20903858.990   -16880545.740 7 -13067584.31323        25.250           2.625
  22978157.857    -6497737.548 5  -4907317.76221        11.750           0.406
  22217244.225   -11206991.223 6  -8537304.30421        15.000           1.094
 91  5 22 19 19 59.9980000  0  6G18G11G19G 2G16G 6
  22855629.326    11903181.244 6   9264126.00621        13.500           0.813
  22739232.803    -8439636.156 6  -6542882.93821        16.250           0.875
  20839790.498     1210337.864 6    953380.13522        16.250           2.063
  20897723.568   -16912795.459 7 -13092713.95123        24.750           2.563
  22979218.670    -6492135.132 5  -4902952.26421        10.750           0.438
  22210270.537   -11243634.554 6  -8565857.53621        14.250           1.031
 91  5 22 19 20 14.9980000  0  6G18G11G19G 2G16G 6
  22864223.420    11948340.797 6   9299315.16021        13.500           0.656
  22739812.670    -8436585.868 6  -6540506.10421        16.500           1.031
  20842186.748     1222944.404 6    963203.39222        17.000           2.063
  20891600.545   -16944967.978 7 -13117783.43423        25.000           2.563
  22980310.834    -6486414.834 5  -4898494.93321        11.500           0.469
  22203301.482   -11280263.018 6  -8594399.17821        15.000           1.031
 91  5 22 19 20 29.9980000  0  6G18G11G19G 2G16G 6
  22872824.131    11993543.904 6   9334538.27521        12.250           0.531
  22740420.436    -8433388.603 6  -6538014.74121        16.500           0.906
  20844599.670     1235602.035 6    973066.47222        16.250           1.938
  20885493.381   -16977061.802 7 -13142791.58623        25.000           2.656
  22981422.326    -6480575.477 5  -4893944.77721        11.250           0.469
  22196336.131   -11316875.157 6  -8622928.09621        15.250           1.000
 91  5 22 19 20 44.9980000  0  6G18G11G19G 2G16G 6
  22881435.061    12038787.863 6   9369793.22221        12.750           0.563
  22741055.936    -8430047.004 6  -6535410.91121        16.250           0.813
  20847015.131     1248308.343 6    982967.48222        17.000           2.063
  20879398.904   -17009079.250 7 -13167740.23523        24.250           2.719
  22982555.240    -6474619.269 5  -4889303.61621        11.000           0.406
  22189369.615   -11353473.393 6  -8651446.17921        14.750           1.000
 91  5 22 19 20 59.9980000  0  6G18G11G19G 2G16G 6
  22890053.545    12084074.051 6   9405081.06621        12.250           0.563
  22741722.326    -8426559.413 6  -6532693.31921        16.750           0.906
  20849446.951     1261064.932 6    992907.66222        15.500           2.031
  20873320.139   -17041018.688 7 -13192628.08923        24.500           2.688
  22983710.779    -6468544.991 5  -4884570.43321        11.750           0.500
  22182409.756   -11390056.148 6  -8679952.21121        14.750           0.969
 91  5 22 19 21 14.9980000  0  6G18G11G19G 2G16G 6
  22898680.451    12129400.600 6   9440400.34621        13.000           0.625
  22742411.795    -8422927.490 6  -6529863.26721        16.750           0.875
  20851879.100     1273870.185 6   1002885.75922        17.250           2.031
  20867259.053   -17072881.847 7 -13217456.51223        24.500           2.750
  22984889.982    -6462354.431 5  -4879746.64021        11.500           0.625
  22175451.045   -11426624.894 6  -8708447.31221        14.750           0.938
 91  5 22 19 21 29.9980000  0  6G18G11G19G 2G16G 6
  22907312.467    12174764.121 6   9475748.46821        13.500           0.563
  22743130.068    -8419154.433 6  -6526923.23921        17.000           0.906
  20854325.326     1286721.054 6   1012899.41422        16.750           2.094
  20861208.451   -17104671.589 7 -13242227.73123        23.500           2.875
  22986087.967    -6456050.918 5  -4874834.84121        11.250           0.531
  22168493.006   -11463182.797 6  -8736933.97621        15.250           1.031
 91  5 22 19 21 44.9980000  0  6G18G11G19G 2G16G 6
  22915951.381    12220170.209 6   9511129.73921        12.250           0.531
  22743877.764    -8415234.671 6  -6523868.89421        17.250           0.844
  20856779.584     1299623.338 6   1022953.12022        16.750           2.063
  20855173.232   -17136382.273 7 -13266937.33823        23.750           2.906
  22987310.436    -6449628.985 5  -4869830.76821        11.750           0.469
  22161537.600   -11499724.047 6  -8765407.65821        15.500           1.063
 91  5 22 19 21 59.9980000  0  6G18G11G19G 2G16G 6
  22924600.295    12265614.013 6   9546540.38321        12.500           0.594
  22744646.607    -8411172.655 6  -6520703.69721        16.750           0.969
  20859249.303     1312572.535 6   1033043.38622        15.750           2.031
  20849154.365   -17168018.178 7 -13291588.67623        24.500           2.781
  22988553.404    -6443093.307 5  -4864738.04521        11.000           0.563
  22154588.717   -11536253.066 6  -8793871.80821        15.750           0.938
 91  5 22 19 22 14.9980000  0  6G18G11G19G 2G16G 6
  22933253.357    12311095.221 6   9581980.20521        12.250           0.500
  22745448.709    -8406968.430 6  -6517427.69721        16.500           0.969
  20861717.334     1325568.586 6   1043170.15922        16.750           2.000
  20843148.326   -17199579.319 7 -13316181.75523        24.500           2.875
  22989819.068    -6436443.724 5  -4859556.60021        11.250           0.500
  22147639.779   -11572769.931 6  -8822326.49121        15.500           0.938
 91  5 22 19 22 29.9980000  0  6G18G11G19G 2G16G 6
  22941915.967    12356615.913 5   9617450.78521        11.750           0.594
  22746276.998    -8402619.808 6  -6514039.18221        16.750           0.906
  20864200.897     1338613.780 6   1053335.22922        16.250           1.906
  20837155.873   -17231063.425 7 -13340714.81223        24.500           2.969
  22991106.381    -6429678.600 6  -4854285.09521        12.000           0.500
  22140693.186   -11609272.306 6  -8850769.88221        15.250           1.031
 91  5 22 19 22 44.9980000  0  6G18G11G19G 2G16G 6
  22950585.467    12402176.141 5   9652952.15221        11.750           0.656
  22747132.584    -8398126.658 6  -6510538.03421        17.000           0.875
  20866690.037     1351708.552 6   1063538.93022        16.500           2.031
  20831181.912   -17262470.090 7 -13365187.53023        24.500           2.938
  22992415.678    -6422797.723 5  -4848923.37921        11.500           0.500
  22133746.592   -11645759.792 6  -8879201.65821        15.250           1.000
 91  5 22 19 22 59.9980000  0  6G18G11G19G 2G16G 6
  22959261.951    12447771.954 6   9688481.23521        12.500           0.625
  22748015.951    -8393492.716 6  -6506927.18321        16.750           1.000
  20869193.326     1364849.221 6   1073778.39922        16.500           2.094
  20825218.990   -17293803.054 7 -13389602.80723        24.500           2.938
  22993744.772    -6415805.164 5  -4843474.66121        11.000           0.563
  22126809.178   -11682236.102 6  -8907624.73621        15.750           1.000
 91  5 22 19 23 14.9980000  0  6G18G11G19G 2G16G 6
  22967946.451    12493406.506 6   9724040.51921        12.000           0.594
  22748918.701    -8388714.795 6  -6503204.14021        16.750           1.031
  20871701.514     1378039.004 6   1084056.12622        16.250           1.969
  20819269.459   -17325059.090 7 -13413958.14723        24.750           3.031
  22995097.811    -6408697.753 5  -4837936.44121        11.000           0.563
  22119870.529   -11718698.006 6  -8936036.59021        15.500           1.031
 91  5 22 19 23 29.9980000  0  6G18G11G19G 2G16G 6
  22976638.623    12539080.734 6   9759630.72921        12.500           0.594
  22749861.428    -8383791.427 6  -6499367.76821        17.000           0.875
  20874222.553     1391279.482 6   1094373.36222        16.750           1.938
  20813338.076   -17356236.626 7 -13438252.32323        24.250           3.000
  22996475.029    -6401474.163 5  -4832307.70521        10.750           0.563
  22112933.811   -11755143.842 6  -8964435.92821        15.250           0.906
 91  5 22 19 23 44.9980000  0  6G18G11G19G 2G16G 6
  22985337.662    12584794.896 6   9795252.06021        12.500           0.531
  22750822.607    -8378722.182 6  -6495417.73021        16.500           0.844
  20876749.389     1404571.109 6   1104730.45122        16.250           1.969
  20807420.412   -17387335.315 7 -13462485.04623        25.250           3.125
  22997867.943    -6394134.063 5  -4826588.17321        10.500           0.500
  22106006.904   -11791573.221 6  -8992822.43221        15.750           0.969
 91  5 22 19 23 59.9980000  0  6G18G11G19G 2G16G 6
  22994045.982    12630549.344 5   9830904.77421        11.750           0.563
  22751813.686    -8373506.908 6  -6491353.88421        16.250           0.906
  20879290.967     1417914.410 6   1115127.80822        16.500           1.906
  20801516.514   -17418354.559 7 -13486655.87623        24.750           3.094
  22999288.693    -6386677.340 5  -4820777.76721        10.250           0.563
  22099072.084   -11827985.744 6  -9021195.81421        15.500           0.969
 91  5 22 19 24 14.9980000  0  6G18G11G19G 2G16G 6
  23002759.139    12676337.708 5   9866583.90621        11.500           0.563
  22752834.365    -8368151.467 6  -6487180.83221        16.500           0.906
  20881837.076     1431303.434 6   1125560.79522        16.250           2.094
  20795627.811   -17449300.198 7 -13510769.34923        25.250           3.094
  23000730.561    -6379110.288 5  -4814881.38221        11.500           0.406
  22092147.834   -11864387.244 6  -9049560.59021        15.500           1.031
 91  5 22 19 24 29.9980000  0  6G18G11G19G 2G16G 6
  23011479.256    12722164.488 5   9902292.96721        11.750           0.531
  22753882.061    -8362651.497 6  -6482895.17221        16.500           0.875
  20884396.897     1444742.682 6   1136032.91822        16.500           1.906
  20789755.209   -17480167.835 7 -13534822.03823        25.250           3.031
  23002192.982    -6371428.374 5  -4808895.48521        11.250           0.438
  22085221.631   -11900773.222 6  -9077913.28921        15.750           1.000
 91  5 22 19 24 44.9980000  0  6G18G11G19G 2G16G 6
  23020206.365    12768028.794 5   9938031.29721        11.750           0.438
  22754958.061    -8357007.614 6  -6478497.35021        16.500           0.938
  20886960.897     1458231.605 6   1146543.74522        16.000           2.000
  20783893.772   -17510957.915 7 -13558814.29023        25.000           2.938
  23003674.522    -6363632.437 5  -4802820.76821        11.250           0.469
  22078300.482   -11937144.162 6  -9106254.26121        15.500           1.000
 91  5 22 19 24 59.9980000  0  6G18G11G19G 2G16G 6
  23028941.178    12813930.363 5   9973798.64721        11.500           0.594
  22756056.600    -8351219.838 6  -6473987.41121        16.750           0.813
  20889539.186     1471770.412 6   1157093.44822        16.750           1.844
  20778047.701   -17541670.355 7 -13582746.05123        24.500           2.594
  23005181.334    -6355722.772 5  -4796657.41821        11.750           0.438
  22071385.248   -11973499.891 6  -9134583.38821        15.250           0.844
 91  5 22 19 25 14.9980000  0  6G18G11G19G 2G16G 6
  23037683.600    12859869.420 6  10009595.20221        12.000           0.594
  22757186.522    -8345287.857 6  -6469365.09821        16.500           0.969
  20892124.006     1485359.778 6   1167682.54222        16.250           1.906
  20772221.756   -17572304.658 7 -13606616.92723        25.250           2.969
  23006707.584    -6347698.951 5  -4790405.11921        11.250           0.438
  22064465.264   -12009840.043 6  -9162900.37921        15.000           1.000
 91  5 22 19 25 29.9980000  0  6G18G11G19G 2G16G 6
  23046430.217    12905842.827 5  10045418.53121        11.750           0.656
  22758343.959    -8339214.524 6  -6464632.64821        17.000           1.000
  20894724.264     1498996.796 6   1178308.77922        15.250           1.875
  20766406.404   -17602863.542 7 -13630429.03023        25.250           2.969
  23008256.904    -6339563.968 5  -4784066.19621        11.250           0.375
  22057552.693   -12046167.405 6  -9191207.39121        15.500           1.000
 91  5 22 19 25 44.9980000  0  6G18G11G19G 2G16G 6
  23055188.139    12951855.419 6  10081272.38521        12.250           0.625
  22759525.178    -8332994.921 6  -6459786.21921        17.250           0.938
  20897323.537     1512686.515 6   1188976.06322        16.000           1.875
  20760604.373   -17633342.210 7 -13654178.62723        24.500           3.000
  23009823.451    -6331313.288 5  -4777637.13721        11.000           0.500
  22050644.787   -12082476.814 6  -9219500.41921        15.750           1.063
 91  5 22 19 25 59.9980000  0  6G18G11G19G 2G16G 6
  23063950.506    12997903.368 6  10117153.78421        12.000           0.563
  22760736.092    -8326632.822 6  -6454828.75621        16.500           1.000
  20899941.412     1526425.285 6   1199681.58222        16.000           1.906
  20754819.772   -17663744.138 7 -13677868.43223        24.500           3.031
  23011421.615    -6322950.658 6  -4771120.83821        12.250           0.438
  22043739.826   -12118772.001 6  -9247782.36221        16.000           1.031
 91  5 22 19 26 14.9980000  0  6G18G11G19G 2G16G 6
  23072720.162    13043984.717 5  10153061.23121        11.500           0.438
  22761974.545    -8320130.089 6  -6449761.71721        16.500           1.063
  20902562.717     1540211.379 6   1210423.96822        16.500           1.906
  20749049.482   -17694070.971 7 -13701499.71323        24.750           3.031
  23013028.740    -6314478.050 5  -4764518.80721        11.000           0.344
  22036833.951   -12155054.555 6  -9276054.46321        15.750           1.000
 91  5 22 19 26 29.9980000  0  6G18G11G19G 2G16G 6
  23081494.865    13090104.249 5  10188998.42921        11.000           0.438
  22763239.920    -8313481.663 6  -6444581.15121        16.250           0.906
  20905199.748     1554049.835 6   1221207.16622        15.750           1.875
  20743293.920   -17724317.614 7 -13725068.51123        25.000           3.000
  23014662.045    -6305890.333 5  -4757827.11321        11.000           0.375
  22029933.053   -12191319.318 6  -9304312.70121        16.250           0.938
 91  5 22 19 26 44.9980000  0  6G18G11G19G 2G16G 6
  23090277.732    13136259.684 5  10224963.60521        11.750           0.625
  22764530.670    -8306689.472 6  -6439288.55621        16.000           0.875
  20907837.764     1567938.828 6   1232029.73022        16.250           1.906
  20737554.389   -17754485.965 7 -13748576.30623        25.500           3.094
  23016319.717    -6297189.932 5  -4751047.60921        11.500           0.375
  22023037.389   -12227568.162 6  -9332558.53621        16.500           1.063
 91  5 22 19 26 59.9980000  0  6G18G11G19G 2G16G 6
  23099068.240    13182451.991 5  10260957.48521        11.500           0.688
  22765851.873    -8299752.501 6  -6433883.14621        15.750           1.031
  20910493.443     1581879.759 6   1242892.78422        16.250           1.906
  20731827.748   -17784574.758 7 -13772022.10523        25.250           2.969
  23017996.092    -6288375.938 5  -4744179.59721        11.500           0.344
  22016141.334   -12263799.885 6  -9360791.03121        16.500           1.000
 91  5 22 19 27 14.9980000  0  6G18G11G19G 2G16G 6
  23107864.662    13228677.242 5  10296977.02521        11.500           0.625
  22767198.100    -8292674.445 6  -6428367.80221        16.000           0.906
  20913153.318     1595868.839 6   1253793.33822        16.250           1.906
  20726116.303   -17814587.721 7 -13795408.81423        25.250           3.219
  23019696.225    -6279451.789 5  -4737225.76121        11.500           0.375
  22009247.107   -12300018.178 6  -9389013.06021        16.500           1.125
 91  5 22 19 27 29.9980000  0  6G18G11G19G 2G16G 6
  23116666.818    13274937.746 5  10333024.04921        11.750           0.656
  22768575.686    -8285453.026 6  -6422740.75621        16.250           1.000
  20915826.967     1609908.667 6   1264733.45022        16.000           1.844
  20720418.584   -17844522.350 7 -13818734.49123        25.000           3.219
  23021414.115    -6270415.517 5  -4730184.53521        11.250           0.469
  22002358.014   -12336220.436 6  -9417222.59421        15.750           1.063
 91  5 22 19 27 44.9980000  0  6G18G11G19G 2G16G 6
  23125480.022    13321232.597 6  10369097.86421        12.250           0.469
  22769978.123    -8278089.004 6  -6417002.57021        16.250           0.875
  20918507.412     1623998.518 6   1275712.53722        17.000           1.688
  20714738.545   -17874379.229 7 -13841999.57723        25.250           3.125
  23023154.740    -6261268.032 5  -4723056.65021        11.000           0.438
  21995474.428   -12372407.395 6  -9445420.20021        15.750           1.125
 91  5 22 19 27 59.9980000  0  6G18G11G19G 2G16G 6
  23134295.537    13367559.473 5  10405196.62021        11.000           0.531
  22771403.732    -8270584.617 6  -6411155.02821        16.500           0.875
  20921200.256     1638136.249 6   1286728.94022        16.500           1.781
  20709069.053   -17904160.593 7 -13865205.82223        24.750           3.063
  23024918.420    -6252011.669 5  -4715843.91921        11.750           0.406
  21988591.068   -12408581.016 6  -9473607.42721        16.000           1.000
 91  5 22 19 28 14.9980000  0  6G18G11G19G 2G16G 6
  23143118.389    13413919.854 5  10441321.46921        11.500           0.500
  22772856.756    -8262938.200 6  -6405196.81921        16.500           0.844
  20923896.475     1652323.730 6   1297784.09322        16.750           1.906
  20703417.022   -17933864.373 7 -13888351.61723        25.000           3.156
  23026696.951    -6242644.949 5  -4708545.20221        10.750           0.406
  21981706.459   -12444739.558 6  -9501782.89621        16.000           1.125
 91  5 22 19 28 29.9980000  0  6G18G11G19G 2G16G 6
  23151946.928    13460315.969 5  10477474.18321        11.750           0.531
  22774338.850    -8255147.303 6  -6399126.00221        16.500           0.844
  20926611.772     1666563.491 6   1308879.99922        15.500           1.938
  20697782.115   -17963488.182 7 -13911435.09323        25.250           3.094
  23028501.592    -6233165.528 5  -4701158.68621        10.250           0.406
  21974829.201   -12480880.393 6  -9529944.56821        15.750           1.094
 91  5 22 19 28 44.9980000  0  6G18G11G19G 2G16G 6
  23160781.701    13506745.411 5  10513652.85121        10.500           0.563
  22775852.022    -8247214.052 6  -6392944.27121        17.000           0.875
  20929325.545     1680853.641 6   1320015.15422        16.750           1.781
  20692160.201   -17993033.888 7 -13934457.70523        25.750           3.156
  23030325.209    -6223575.698 5  -4693686.11521         9.500           0.406
  21967955.740   -12517005.494 6  -9558093.98421        16.000           1.063
 91  5 22 19 28 59.9980000  0  6G18G11G19G 2G16G 6
  23169623.522    13553208.402 5  10549857.63621        10.750           0.500
  22777386.693    -8239138.409 6  -6386651.59321        17.000           1.000
  20932059.818     1695194.344 6   1331189.71622        16.000           1.719
  20686548.357   -18022501.431 7 -13957419.42023        24.500           3.125
  23032172.975    -6213875.539 5  -4686127.59421        10.500           0.313
  21961086.701   -12553114.824 6  -9586231.10621        16.500           1.094
 91  5 22 19 29 14.9980000  0  6G18G11G19G 2G16G 6
  23178470.201    13599706.236 5  10586089.57021        11.000           0.469
  22778949.279    -8230918.713 6  -6380246.64921        16.750           0.906
  20934794.881     1709587.321 6   1342405.00022        17.500           1.813
  20680958.006   -18051889.048 7 -13980318.85023        24.750           3.125
  23034041.881    -6204063.546 5  -4678481.93121        10.750           0.406
  21954216.467   -12589206.477 6  -9614354.44721        16.250           1.094
 91  5 22 19 29 29.9980000  0  6G18G11G19G 2G16G 6
  23187323.662    13646234.453 5  10622345.20221        10.250           0.406
  22780537.186    -8222559.383 6  -6373732.90421        16.250           0.875
  20937545.147     1724028.372 6   1353657.75122        16.750           1.875
  20675382.748   -18081201.016 7 -14003159.32923        25.750           3.188
  23035929.022    -6194144.162 5  -4670752.56221        10.750           0.469
  21947354.725   -12625284.673 6  -9642467.32221        16.250           1.125
 91  5 22 19 29 44.9980000  0  6G18G11G19G 2G16G 6
  23196185.732    13692798.905 5  10658629.09521         9.500           0.250
  22782160.061    -8214054.369 6  -6367105.63121        16.250           0.844
  20940299.068     1738523.653 6   1364952.75322        17.250           1.688
  20669819.217   -18110431.063 7 -14025935.97723        26.000           3.063
  23037832.842    -6184111.323 5  -4662934.81121        10.250           0.531
  21940489.615   -12661343.179 6  -9670564.84921        16.250           1.063
 91  5 22 19 29 59.9980000  0  6G18G11G19G 2G16G 6
  23205055.326    13739395.130 5  10694937.70121         9.750           0.344
  22783805.975    -8205408.097 6  -6360368.29321        16.500           0.813
  20943069.264     1753068.948 6   1376286.72822        16.500           1.844
  20664270.811   -18139583.605 7 -14048652.23623        25.500           3.063
  23039771.232    -6173969.646 5  -4655032.23221        11.000           0.406
  21933631.045   -12697386.271 6  -9698650.35421        16.250           1.031
 91  5 22 19 30 14.9980000  0  6G18G11G19G 2G16G 6
  23213925.693    13786023.339 5  10731271.27521        10.500           0.438
  22785477.357    -8196620.080 6  -6353520.51121        16.250           0.875
  20945845.803     1767664.749 6   1387660.05622        17.250           1.813
  20658740.076   -18168657.878 7 -14071307.50623        25.500           2.906
  23041716.576    -6163718.921 5  -4647044.66921        10.250           0.469
  21926775.662   -12733413.300 6  -9726723.34221        16.250           1.063
 91  5 22 19 30 29.9980000  0  6G18G11G19G 2G16G 6
  23222804.607    13832685.700 5  10767631.43121        10.250           0.438
  22787176.584    -8187687.934 6  -6346560.41521        16.500           0.875
  20948636.967     1782313.653 6   1399074.77222        16.000           1.813
  20653222.107   -18197651.554 7 -14093899.96723        25.750           2.906
  23043693.607    -6153356.941 5  -4638970.46321        10.750           0.469
  21919925.092   -12769421.818 6  -9754781.91421        16.500           1.125
 91  5 22 19 30 44.9980000  0  6G18G11G19G 2G16G 6
  23231690.639    13879378.583 5  10804015.37521         9.500           0.406
  22788903.420    -8178615.305 6  -6339490.86221        16.000           0.969
  20951430.693     1797012.360 6   1410528.28422        17.250           1.844
  20647718.756   -18226568.054 7 -14116432.29323        26.000           2.969
  23045682.873    -6142887.271 5  -4630812.30221        10.250           0.406
  21913073.092   -12805415.285 6  -9782828.75521        16.750           1.031
 91  5 22 19 30 59.9980000  0  6G18G11G19G 2G16G 6
  23240585.600    13926102.390 5  10840423.39621        10.000           0.344
  22790656.779    -8169401.637 6  -6332311.41521        15.750           0.938
  20954240.107     1811761.479 6   1422021.08422        16.500           1.781
  20642230.193   -18255406.721 7 -14138903.96823        25.750           3.031
  23047694.943    -6132309.448 5  -4622569.88321        10.250           0.438
  21906229.506   -12841392.927 6  -9810863.26721        16.750           1.094
 91  5 22 19 31 14.9980000  0  6G18G11G19G 2G16G 6
  23249479.936    13972857.488 5  10876855.81621         9.750           0.406
  22792438.818    -8160046.323 6  -6325021.57821        15.750           0.906
  20957053.014     1826561.795 6   1433553.77522        16.500           1.719
  20636758.529   -18284166.812 7 -14161314.41823        26.000           3.063
  23049727.865    -6121623.134 5  -4614242.92121        10.250           0.406
  21899383.670   -12877353.917 6  -9838884.80621        16.500           1.063
 91  5 22 19 31 29.9980000  0  6G18G11G19G 2G16G 6
  23258384.162    14019641.684 5  10913310.89221        10.500           0.375
  22794242.959    -8150551.520 6  -6317623.05421        16.000           0.844
  20959880.459     1841411.197 6   1445124.71622        16.000           1.813
  20631300.600   -18312850.219 7 -14183665.11623        26.250           2.938
  23051783.123    -6110830.631 5  -4605833.20421        10.000           0.625
  21892544.686   -12913300.339 6  -9866894.98321        16.500           1.000
 91  5 22 19 31 44.9980000  0  6G18G11G19G 2G16G 6
  23267294.615    14066456.365 5  10949789.73221        10.500           0.531
  22796079.975    -8140915.869 6  -6310114.77621        16.000           0.750
  20962714.061     1856311.469 6   1456735.29922        16.750           1.656
  20625857.373   -18341455.401 7 -14205954.85123        26.250           3.031
  23053855.131    -6099930.413 5  -4597339.56021        10.000           0.406
  21885705.873   -12949230.466 6  -9894892.47821        16.250           1.156
 91  5 22 19 31 59.9980000  0  6G18G11G19G 2G16G 6
  23276207.795    14113305.239 5  10986295.20421        10.750           0.500
  22797938.826    -8131135.418 6  -6302493.67621        15.750           0.844
  20965563.436     1871266.506 6   1468388.55222        16.250           1.781
  20620428.522   -18369978.383 7 -14228180.54523        25.500           3.031
  23055949.889    -6088918.789 5  -4588759.11621         9.250           0.438
  21878875.803   -12985140.330 6  -9922874.17021        17.250           1.125
 91  5 22 19 32 14.9980000  0  6G18G11G19G 2G16G 6
  23285128.279    14160180.634 5  11022821.36421        10.000           0.500
  22799828.428    -8121217.695 6  -6294765.59021        16.000           0.875
  20968415.592     1886268.917 6   1480078.72422        16.750           1.938
  20615014.232   -18398426.652 7 -14250348.01823        25.250           3.000
  23058068.420    -6077803.513 5  -4580097.91421        10.500           0.406
  21872044.264   -13021037.246 6  -9950845.77721        17.250           1.125
 91  5 22 19 32 29.9980000  0  6G18G11G19G 2G16G 6
  23294053.873    14207084.817 5  11059369.94121        10.000           0.406
  22801740.561    -8111160.402 6  -6286928.76021        16.250           0.875
  20971279.998     1901321.011 6   1491807.60922        15.500           1.875
  20609616.779   -18426797.611 7 -14272455.25023        25.750           3.000
  23060203.936    -6066582.460 5  -4571354.26021        10.000           0.406
  21865212.436   -13056918.814 6  -9978805.42421        16.250           1.094
 91  5 22 19 32 44.9980000  0  6G18G11G19G 2G16G 6
  23302981.607    14254019.011 5  11095941.90221        10.000           0.531
  22803679.154    -8100962.263 6  -6278982.17821        16.000           0.813
  20974153.342     1916424.555 6   1503576.57722        16.500           1.875
  20604233.451   -18455089.727 7 -14294501.03923        25.500           2.906
  23062353.928    -6055254.248 5  -4562527.10521         9.500           0.406
  21858390.975   -13092783.496 6 -10006751.90221        17.250           1.063
 91  5 22 19 32 59.9980000  0  6G18G11G19G 2G16G 6
  23311918.107    14300983.651 5  11132537.60621        10.000           0.469
  22805647.615    -8090622.507 6  -6270925.24321        16.750           0.938
  20977041.787     1931580.383 6   1515386.29422        15.750           1.719
  20598863.732   -18483302.126 7 -14316484.72123        25.000           2.906
  23064539.568    -6043818.280 5  -4553616.02821        10.750           0.438
  21851569.045   -13128630.164 6 -10034684.35721        17.500           1.156
 91  5 22 19 33 14.9980000  0  6G18G11G19G 2G16G 6
  23320861.107    14347974.961 5  11169154.06521        10.000           0.500
  22807645.139    -8080144.807 6  -6262760.83121        17.250           0.938
  20979932.740     1946785.058 6   1527234.07422        16.500           1.813
  20593510.701   -18511438.477 7 -14338409.13923        25.500           2.969
  23066731.732    -6032278.545 5  -4544624.03621        10.250           0.438
  21844749.834   -13164462.444 6 -10062605.59421        17.250           1.063
 91  5 22 19 33 29.9980000  0  6G18G11G19G 2G16G 6
  23329807.959    14394993.650 5  11205791.87621         9.750           0.594
  22809660.568    -8069528.576 6  -6254488.47021        16.500           0.813
  20982839.631     1962039.436 6   1539120.57822        15.500           1.781
  20588170.022   -18539497.844 7 -14360273.57323        25.000           2.969
  23068947.256    -6020634.168 5  -4535550.52221        10.750           0.500
  21837933.545   -13200279.557 6 -10090515.02621        17.250           1.219
 91  5 22 19 33 44.9980000  0  6G18G11G19G 2G16G 6
  23338764.326    14442039.825 5  11242451.06621         9.750           0.500
  22811706.318    -8058773.397 6  -6246107.83721        16.500           0.875
  20985747.568     1977344.051 6   1551046.23522        16.500           1.844
  20582844.248   -18567479.855 7 -14382077.73123        24.750           2.906
  23071183.115    -6008884.916 5  -4526395.30621        10.500           0.438
  21831121.248   -13236080.848 6 -10118412.11421        17.250           1.219
 91  5 22 19 33 59.9980000  0  6G18G11G19G 2G16G 6
  23347718.623    14489113.823 5  11279131.97021         9.250           0.438
  22813781.318    -8047878.708 6  -6237618.48821        16.500           0.938
  20988668.662     1992699.443 6   1563011.45122        16.000           1.719
  20577536.217   -18595383.700 7 -14403820.97923        25.750           2.969
  23073440.178    -5997030.680 5  -4517158.27621        10.750           0.469
  21824311.506   -13271865.692 6 -10146296.38721        17.250           1.281
 91  5 22 19 34 14.9980000  0  6G18G11G19G 2G16G 6
  23356683.256    14536215.131 5  11315834.16721         9.250           0.344
  22815882.920    -8036844.920 6  -6229020.76721        16.250           0.938
  20991599.365     2008105.453 6   1575016.10522        16.750           1.688
  20572238.600   -18623209.705 7 -14425503.57223        25.000           3.094
  23075709.014    -5985071.836 5  -4507839.73221        10.500           0.500
  21817505.647   -13307634.288 6 -10174168.00521        17.500           1.250
 91  5 22 19 34 29.9980000  0  6G18G11G19G 2G16G 6
  23365651.443    14583342.960 5  11352556.99821         9.000           0.406
  22818008.139    -8025672.911 6  -6220315.32921        16.250           1.000
  20994545.693     2023561.485 6   1587059.74922        16.000           1.781
  20566960.014   -18650958.463 7 -14447125.97623        25.000           3.125
  23078008.287    -5973009.422 5  -4498440.48721        10.500           0.469
  21810702.506   -13343387.256 6 -10202027.44321        17.500           1.250
 91  5 22 19 34 44.9980000  0  6G18G11G19G 2G16G 6
  23374626.686    14630497.247 5  11389300.45821         9.000           0.469
  22820161.475    -8014362.735 6  -6211502.22921        16.500           0.813
  20997493.998     2039067.526 6   1599142.35222        16.750           1.781
  20561694.951   -18678629.834 7 -14468688.06923        25.000           3.063
  23080321.436    -5960843.576 5  -4488960.62521        10.000           0.344
  21803900.904   -13379124.426 6 -10229874.57621        17.500           1.094
 91  5 22 19 34 59.9980000  0  6G18G11G19G 2G16G 6
  23383604.076    14677677.284 5  11426063.99321         8.750           0.438
  22822337.936    -8002914.724 6  -6202581.72621        16.250           0.875
  21000453.256     2054623.382 6   1611263.78222        16.750           1.844
  20556443.514   -18706224.137 7 -14490190.10923        25.000           2.938
  23082660.209    -5948574.635 5  -4479400.46221        10.000           0.344
  21797102.459   -13414846.013 6 -10257709.56221        17.500           1.281
 91  5 22 19 35 14.9980000  0  6G18G11G19G 2G16G 6
  23392588.037    14724886.053 5  11462849.90521         9.250           0.438
  22824543.889    -7991325.749 6  -6193551.38421        15.750           0.938
  21003422.881     2070232.520 6   1623426.72922        16.750           1.844
  20551206.498   -18733738.271 7 -14511629.68523        25.250           3.031
  23085009.647    -5936199.683 5  -4469757.66221         9.500           0.438
  21790310.881   -13450548.706 6 -10285529.82921        17.250           1.219
 91  5 22 19 35 29.9980000  0  6G18G11G19G 2G16G 6
  23401576.561    14772121.365 5  11499656.48321         9.750           0.406
  22826775.756    -7979597.914 6  -6184412.85021        16.500           0.906
  21006406.053     2085892.884 6   1635629.58622        16.500           1.781
  20545986.381   -18761173.904 7 -14533008.09923        25.250           3.031
  23087392.373    -5923720.989 5  -4460034.06121        10.500           0.344
  21783517.779   -13486234.253 6 -10313336.72521        16.750           1.219
 91  5 22 19 35 44.9980000  0  6G18G11G19G 2G16G 6
  23410573.061    14819383.935 5  11536484.31621        10.000           0.344
  22829035.412    -7967730.570 6  -6175165.59421        16.000           0.844
  21009391.662     2101605.229 6   1647872.94322        16.500           1.813
  20540782.053   -18788530.239 7 -14554324.71323        25.500           3.156
  23089786.100    -5911138.084 5  -4450229.22021        10.500           0.438
  21776732.443   -13521901.905 6 -10341129.68821        17.500           1.219
 91  5 22 19 35 59.9980000  0  6G18G11G19G 2G16G 6
  23419571.779    14866671.550 5  11573331.67921         9.500           0.313
  22831317.795    -7955725.686 6  -6165811.16221        16.000           0.813
  21012393.342     2117367.881 6   1660155.51222        17.000           1.781
  20535589.295   -18815809.202 7 -14575581.03423        25.000           3.031
  23092201.443    -5898452.871 5  -4440344.67821        10.000           0.344
  21769948.725   -13557553.462 6 -10368910.10321        17.750           1.313
 91  5 22 19 36 14.9980000  0  6G18G11G19G 2G16G 6
  23428573.131    14913986.822 5  11610200.60821         8.750           0.344
  22833629.647    -7943580.658 6  -6156347.52721        16.500           0.781
  21015402.943     2133183.698 6   1672479.49922        17.250           1.750
  20530412.967   -18843007.935 7 -14596774.84423        25.250           3.063
  23094630.342    -5885662.841 5  -4430378.44921         9.500           0.344
  21763163.357   -13593185.935 6 -10396675.65021        17.250           1.219
 91  5 22 19 36 29.9980000  0  6G18G11G19G 2G16G 6
  23437582.006    14961326.721 5  11647088.67721         8.250           0.188
  22835966.787    -7931298.569 6  -6146777.08921        16.250           0.813
  21018421.568     2149049.850 6   1684842.71422        17.250           1.844
  20525253.240   -18870129.371 7 -14617908.42323        25.750           3.031
  23097084.631    -5872771.209 5  -4420333.08121         9.750           0.375
  21756386.522   -13628802.231 6 -10424428.59121        17.250           1.125
 91  5 22 19 36 44.9980000  0  6G18G11G19G 2G16G 6
  23446596.576    15008693.100 5  11683997.39221         8.250           0.375
  22838327.420    -7918877.298 6  -6137098.21721        16.000           0.875
  21021451.397     2164968.674 6   1697246.97222        16.500           1.750
  20520106.881   -18897171.091 7 -14638979.87723        25.500           3.000
  23099558.467    -5859775.698 5  -4410206.72621         9.750           0.469
  21749614.592   -13664399.970 6 -10452167.07121        17.750           1.250
 91  5 22 19 36 59.9980000  0  6G18G11G19G 2G16G 6
  23455615.107    15056084.150 5  11720925.32721         9.750           0.375
  22840721.279    -7906318.217 6  -6127311.93821        16.250           0.750
  21024490.607     2180938.818 6   1709691.20922        16.500           1.719
  20514974.850   -18924134.481 7 -14659990.30623        25.000           3.031
  23102049.381    -5846678.072 5  -4400000.81321         9.500           0.438
  21742845.936   -13699980.423 6 -10479892.07821        18.250           1.313
 91  5 22 19 37 14.9980000  0  6G18G11G19G 2G16G 6
  23464636.600    15103500.120 5  11757872.71021         9.750           0.438
  22843137.904    -7893621.271 6  -6117418.23821        16.250           0.750
  21027538.506     2196960.561 6   1722175.65822        16.500           1.781
  20509858.678   -18951019.330 7 -14680939.52523        25.250           3.031
  23104560.092    -5833478.240 5  -4389715.26921         9.750           0.313
  21736076.451   -13735543.443 6 -10507603.50421        17.750           1.313
 91  5 22 19 37 29.9980000  0  6G18G11G19G 2G16G 6
  23473664.553    15150940.807 5  11794839.32121         9.750           0.344
  22845581.826    -7880786.618 6  -6107417.24721        16.500           0.750
  21030596.818     2213033.856 6   1734700.28822        16.500           1.719
  20504760.568   -18977825.682 7 -14701827.58123        25.750           3.094
  23107091.482    -5820176.503 5  -4379350.32621         9.750           0.438
  21729311.436   -13771088.959 6 -10535301.29021        17.500           1.250
 91  5 22 19 37 44.9980000  0  6G18G11G19G 2G16G 6
  23482697.818    15198407.226 5  11831826.00321         9.250           0.344
  22848050.287    -7867813.028 6  -6097307.97821        15.750           0.844
  21033666.490     2229160.210 6   1747266.25722        17.000           1.781
  20499671.803   -19004552.069 7 -14722653.33023        25.000           3.094
  23109642.647    -5806772.029 5  -4368905.32721         9.500           0.375
  21722551.467   -13806615.332 6 -10562984.16321        17.500           1.156
 91  5 22 19 37 59.9980000  0  6G18G11G19G 2G16G 6
  23491734.912    15245900.777 5  11868833.81321         8.500           0.250
  22850545.295    -7854699.292 6  -6087089.50121        15.250           0.781
  21036748.467     2245341.124 6   1759874.75022        15.750           1.844
  20494602.022   -19031196.770 7 -14743415.41823        25.750           3.094
  23112215.365    -5793263.496 5  -4358379.22021        10.000           0.438
  21715795.029   -13842121.026 6 -10590650.91521        17.500           1.219
 91  5 22 19 38 14.9980000  0  6G18G11G19G 2G16G 6
  23500778.022    15293415.449 5  11905858.08321         8.500           0.219
  22853065.678    -7841451.314 6  -6076766.43221        15.500           0.906
  21039833.381     2261570.942 6   1772521.33522        16.250           1.813
  20489545.772   -19057765.881 7 -14764118.61423        26.000           3.188
  23114805.772    -5779656.792 5  -4347776.64521        10.250           0.406
  21709042.006   -13877611.901 6 -10618306.13321        17.750           1.250
 91  5 22 19 38 29.9980000  0  6G18G11G19G 2G16G 6
  23509823.990    15340954.761 5  11942901.57221         9.250           0.219
  22855611.193    -7828065.414 6  -6066335.88421        15.500           0.875
  21042932.943     2277853.463 6   1785208.98822        15.500           1.813
  20484506.076   -19084255.560 7 -14784759.91323        26.000           3.063
  23117414.600    -5765948.432 5  -4337094.85121        10.500           0.375
  21702291.545   -13913084.031 6 -10645946.74621        17.750           1.281
 91  5 22 19 38 44.9980000  0  6G18G11G19G 2G16G 6
  23518875.482    15388518.089 5  11979963.76721         9.000           0.188
  22858184.857    -7814542.161 6  -6055798.31821        16.250           0.875
  21046040.209     2294188.224 6   1797937.34622        15.750           1.844
  20479480.647   -19110666.212 7 -14805339.63223        26.000           3.031
  23120042.467    -5752139.137 5  -4326334.39421        10.000           0.250
  21695546.084   -13948537.695 6 -10673572.95221        17.750           1.281
 91  5 22 19 38 59.9980000  0  6G18G11G19G 2G16G 6
  23527931.436    15436105.838 5  12017044.99821         8.750           0.250
  22860785.381    -7800880.697 6  -6045153.04421        16.250           0.813
  21049164.311     2310576.279 6   1810707.24222        15.750           1.844
  20474468.232   -19136996.774 7 -14825856.94023        25.250           3.000
  23122687.240    -5738228.409 5  -4315494.88421        10.000           0.375
  21688802.873   -13983971.910 6 -10701184.01921        17.750           1.219
 91  5 22 19 39 14.9980000  0  6G18G11G19G 2G16G 6
  23536988.498    15483717.460 5  12054144.84421         8.250           0.219
  22863412.115    -7787081.491 6  -6034400.45621        16.500           0.906
  21052287.311     2327017.354 6   1823518.44922        16.500           1.875
  20469474.803   -19163247.572 7 -14846312.09723        26.000           3.219
  23125352.053    -5724216.381 5  -4304576.45821         9.250           0.313
  21682062.639   -14019386.754 6 -10728779.98921        18.250           1.375
 91  5 22 19 39 29.9980000  0  6G18G11G19G 2G16G 6
  23546052.436    15531353.330 5  12091263.51721         8.250           0.281
  22866061.014    -7773144.368 6  -6023540.37321        16.500           0.719
  21055428.522     2343512.069 6   1836371.45222        15.750           1.906
  20464493.404   -19189418.162 7 -14866704.76023        25.750           3.063
  23128039.584    -5710103.305 5  -4293579.28421        10.000           0.375
  21675328.740   -14054781.881 6 -10756360.59421        18.250           1.313
 91  5 22 19 39 44.9980000  0  6G18G11G19G 2G16G 6
  23555121.928    15579011.395 5  12128399.52921         8.250           0.313
  22868740.022    -7759071.155 6  -6012574.27321        16.750           0.844
  21058575.404     2360058.623 6   1849264.84422        16.000           1.844
  20459529.076   -19215510.162 7 -14887036.17423        26.500           3.000
  23130742.928    -5695891.103 5  -4282504.89421         9.750           0.469
  21668594.326   -14090158.992 6 -10783927.16121        18.000           1.375
 91  5 22 19 39 59.9980000  0  6G18G11G19G 2G16G 6
  23564194.186    15626692.674 5  12165553.61321         7.750           0.438
  22871447.342    -7744860.749 6                        16.500
  21061736.334     2376658.247 6   1862199.59422        15.250           1.875
  20454578.404   -19241522.529 7 -14907305.54623        26.250           3.094
  23133469.748    -5681578.751 5                         9.750
  21661863.561   -14125516.673 6 -10811478.58221        18.000           1.281
 91  5 22 19 40 14.9980000  0  6G18G11G19G 2G16G 6
  23573271.561    15674393.745 4  12202723.08821         6.750           0.344
  22874173.389    -7730516.633 6                        15.750
  21064902.701     2393307.662 6   1875173.13622        16.000           1.906
  20449644.545   -19267458.486 7 -14927515.37023        26.750           3.156
  23136212.115    -5667169.697 5                         9.250
  21655142.451   -14160858.236 6 -10839017.44021        18.250           1.281
 91  5 22 19 40 29.9980000  0  6G18G11G19G 2G16G 6
  23582356.467    15722120.230 4  12239912.40321         7.000           0.313
  22876930.943    -7716033.003 6                        15.750
  21068083.623     2410012.942 6   1888190.22022        16.250           1.875
  20444722.865   -19293311.930 7 -14947660.89823        26.250           3.156
  23138972.147    -5652658.261 5                         9.250
  21648422.154   -14196177.501 6 -10866538.93021        18.500           1.375
 91  5 22 19 40 44.9980000  0  6G18G11G19G 2G16G 6
  23591442.498    15769871.780 4  12277121.23521         7.000           0.281
  22879716.076    -7701410.328 6                        16.000
  21071270.357     2426773.971 6   1901250.74322        16.750           1.906
  20439818.990   -19319083.107 7 -14967742.32323        26.750           3.125
  23141751.326    -5638045.032 5                         8.750
  21641705.764   -14231474.660 6 -10894043.19321        18.000           1.375
 91  5 22 19 40 59.9980000  0  6G18G11G19G 2G16G 6
  23600536.006    15817646.122 5  12314347.82021         7.750           0.344
  22882520.076    -7686650.593 6                        15.750
  21074476.326     2443588.919 6   1914353.28022        15.000           1.906
  20434930.600   -19344773.828 7 -14987761.05923        27.000           3.063
  23144551.334    -5623331.894 5                         9.000
  21634990.990   -14266751.604 6 -10921531.70821        17.750           1.313
 91  5 22 19 41 14.9980000  0  6G18G11G19G 2G16G 6
  23609632.256    15865442.556 5  12351591.65821         7.750           0.406
  22885355.764    -7671754.864 6  -5944535.76021        15.500           0.875
  21077681.178     2460456.937 6   1927497.16022        16.000           1.813
  20430058.029   -19370385.050 7 -15007717.84323        27.000           3.031
  23147368.318    -5608520.117 5  -4214423.83621         9.250           0.344
  21628281.365   -14302009.025 6 -10949005.00621        17.250           1.406
 91  5 22 19 41 29.9980000  0  6G18G11G19G 2G16G 6
  23618729.311    15913260.095 5  12388851.90721         7.750           0.406
  22888220.475    -7656723.604 6  -5932823.12021        15.750           0.906
  21080904.873     2477377.797 6   1940682.22622        15.000           1.781
  20425198.897   -19395916.955 7 -15027612.82823        27.000           3.156
  23150206.154    -5593610.163 5  -4202805.72221         9.000           0.375
  21621575.029   -14337247.150 6 -10976463.26521        17.750           1.313
 91  5 22 19 41 44.9980000  0  6G18G11G19G 2G16G 6
  23627836.201    15961098.718 5  12426128.58121         7.500           0.469
  22891102.311    -7641556.466 6  -5921004.59421        15.250           0.875
  21084129.701     2494351.950 6   1953908.81022        16.000           1.938
  20420354.943   -19421369.259 7 -15047445.78223        27.000           3.125
  23153060.248    -5578601.819 5  -4191110.93921         8.500           0.313
  21614874.928   -14372465.349 6 -11003906.00521        18.000           1.250
 91  5 22 19 41 59.9980000  0  6G18G11G19G 2G16G 6
  23636943.123    16008956.796 4  12463420.41321         7.250           0.438
  22894010.803    -7626255.357 6  -5909081.68821        14.750           0.906
  21087373.115     2511377.749 6   1967175.64122        16.250           1.813
  20415526.764   -19446743.484 7 -15067217.90323        26.500           3.188
  23155935.506    -5563497.164 5  -4179341.12721         9.000           0.375
  21608175.678   -14407665.274 6 -11031334.50221        17.750           1.313
 91  5 22 19 42 14.9980000  0  6G18G11G19G 2G16G 6
  23646056.662    16056838.196 5  12500730.40921         7.750           0.438
  22896954.850    -7610816.644 6  -5897051.55421        16.000           0.875
  21090620.998     2528459.138 6   1980485.79322        16.750           1.969
  20410713.623   -19472035.860 7 -15086926.23123        26.750           3.156
  23158831.936    -5548292.878 5  -4167493.65921         9.250           0.344
  21601481.693   -14442842.999 6 -11058745.70821        17.500           1.313
 91  5 22 19 42 29.9980000  0  6G18G11G19G 2G16G 6
  23655173.037    16104737.848 5  12538054.64621         8.750           0.375
  22899916.209    -7595245.210 6  -5884917.98821        15.750           0.906
  21093883.100     2545591.390 6   1993835.58122        15.750           1.844
  20405915.014   -19497250.974 7 -15106574.36223        26.750           3.188
  23161742.889    -5532993.759 5  -4155572.30621         9.500           0.281
  21594789.592   -14478003.264 6 -11086143.30721        17.250           1.313
 91  5 22 19 42 44.9980000  0  6G18G11G19G 2G16G 6
  23664289.279    16152659.026 5  12575395.65121         9.500           0.406
  22902906.615    -7579537.539 6  -5872678.27321        15.250           0.813
  21097151.342     2562778.043 6   2007227.74522        15.750           1.750
  20401131.482   -19522385.300 7 -15126159.54623        26.500           3.188
  23164669.404    -5517596.476 5  -4143574.48621         9.000           0.438
  21588104.248   -14513142.304 6 -11113524.36022        17.750           1.531
 91  5 22 19 42 59.9980000  0  6G18G11G19G 2G16G 6
  23673412.272    16200599.392 5  12612751.64221         9.250           0.313
  22905918.279    -7563695.956 6  -5860334.21421        15.250           0.813
  21100437.373     2580017.183 6   2020660.81222        15.000           1.813
  20396363.084   -19547440.971 7 -15145683.43823        26.500           3.219
  23167620.357    -5502103.341 5  -4131501.93621         9.000           0.313
  21581420.240   -14548262.016 6 -11140890.35321        17.750           1.406
 91  5 22 19 43 14.9980000  0  6G18G11G19G 2G16G 6
  23682536.420    16248558.180 5  12650121.95921         8.500           0.281
  22908959.498    -7547721.041 6  -5847886.25421        15.250           0.750
  21103721.873     2597308.477 6   2034134.52722        16.250           1.719
  20391611.998   -19572418.367 7 -15165146.33123        27.000           3.250
  23170585.756    -5486515.230 5  -4119355.39821         9.500           0.313
  21574742.256   -14583362.900 6 -11168241.66822        17.750           1.500
 91  5 22 19 43 29.9980000  0  6G18G11G19G 2G16G 6
  23691663.857    16296535.740 5  12687506.91021         8.000           0.281
  22912024.295    -7531612.483 6  -5835334.15121        15.500           0.844
  21107025.662     2614652.385 6   2047649.24222        16.250           1.625
  20386873.631   -19597317.036 7 -15184547.88123        27.000           3.250
  23173573.053    -5470831.954 5  -4107134.70421         9.500           0.344
  21568063.725   -14618444.460 6 -11195577.93221        17.250           1.469
 91  5 22 19 43 44.9980000  0  6G18G11G19G 2G16G 6
  23700795.990    16344528.188 5  12724903.47021         8.000           0.313
  22915113.857    -7515374.005 6  -5822680.82121        15.250           0.750
  21110334.865     2632045.351 6   2061202.18022        16.750           1.750
  20382149.615   -19622140.517 7 -15203890.84723        27.000           3.156
  23176574.420    -5455057.352 5  -4094842.84521         9.250           0.375
  21561393.982   -14653509.982 6 -11222901.70722        17.750           1.500
 91  5 22 19 43 59.9980000  0  6G18G11G19G 2G16G 6
  23709930.412    16392537.661 5  12762313.25921         7.500           0.313
  22918227.459    -7499003.493 6  -5809924.59521        15.000           0.719
  21113653.201     2649489.900 6   2074795.31122        15.750           1.875
  20377439.787   -19646886.353 7 -15223173.31123        27.000           3.063
  23179592.889    -5439189.260 5  -4082478.14221         9.500           0.375
  21554726.420   -14688557.084 6 -11250211.12521        18.500           1.469
 91  5 22 19 44 14.9980000  0  6G18G11G19G 2G16G 6
  23719069.553    16440565.085 5  12799737.04621         7.750           0.188
  22921370.451    -7482500.037 6  -5797064.79221        15.500           0.813
  21116981.522     2666987.146 6   2088429.50122        16.000           1.813
  20372745.584   -19671553.501 7 -15242394.45523        27.000           3.125
  23182631.826    -5423226.709 5  -4070039.82721        10.000           0.344
  21548056.826   -14723584.561 6 -11277505.24521        17.500           1.469
 91  5 22 19 44 29.9980000  0  6G18G11G19G 2G16G 6
  23728217.623    16488612.559 5  12837176.46921         8.750           0.313
  22924533.131    -7465861.376 6  -5784099.64521        15.000           0.813
  21120326.084     2684539.585 6   2102106.69822        15.750           1.750
  20368068.092   -19696139.389 7 -15261552.28323        27.250           3.156
  23185686.529    -5407167.610 5  -4057526.30721        10.000           0.344
  21541394.772   -14758589.895 6 -11304782.10921        17.000           1.438
 91  5 22 19 44 44.9980000  0  6G18G11G19G 2G16G 6
  23737365.506    16536677.530 5  12874629.52421         8.500           0.156
  22927730.959    -7449090.266 6  -5771031.27221        15.500           0.656
  21123670.709     2702144.601 6   2115824.86022        15.750           1.656
  20363404.795   -19720646.633 7 -15280648.82623        27.500           3.188
  23188761.654    -5391014.802 5  -4044939.73921        10.250           0.406
  21534738.561   -14793575.427 6 -11332043.54221        17.250           1.438
 91  5 22 19 44 59.9980000  0  6G18G11G19G 2G16G 6
  23746517.061    16584763.111 5  12912098.66121         8.250           0.219
  22930947.607    -7432183.117 6  -5757856.90821        15.250           0.719
  21127036.553     2719806.029 6   2129586.99522        16.250           1.656
  20358755.912   -19745071.632 7 -15299681.28423        27.000           3.125
  23191854.029    -5374764.747 5  -4032277.39121         9.750           0.469
  21528086.076   -14828537.611 6 -11359286.79421        17.500           1.469
 91  5 22 19 45 14.9980000  0  6G18G11G19G 2G16G 6
  23755672.209    16632867.894 5  12949582.70721         8.000           0.219
  22934190.350    -7415141.463 6  -5744577.71421        15.000           0.750
  21130404.568     2737522.773 6   2143392.23422        16.500           1.656
  20354124.162   -19769415.467 7 -15318650.49823        27.500           3.188
  23194963.365    -5358418.765 5  -4019540.32021         9.500           0.406
  21521440.061   -14863477.304 6 -11386512.51721        17.750           1.406
 91  5 22 19 45 29.9980000  0  6G18G11G19G 2G16G 6
  23764827.014    16680987.269 5  12987078.15221         7.500           0.188
  22937455.740    -7397969.972 6  -5731197.35121        15.000           0.813
  21133789.115     2755290.161 6   2157236.93122        15.250           1.750
  20349506.701   -19793682.666 7 -15337559.99523        27.750           3.219
  23198089.272    -5341982.167 5  -4006732.60921         9.000           0.375
  21514792.811   -14898399.241 6 -11413724.39621        17.750           1.438
 91  5 22 19 45 44.9980000  0  6G18G11G19G 2G16G 6
  23773987.279    16729121.189 5  13024584.92921         8.000           0.219
  22940748.318    -7380668.330 6  -5717715.55721        15.500           0.781
  21137174.834     2773108.679 6   2171121.46022        15.750           1.531
  20344903.412   -19817872.840 7 -15356409.47723        27.500           3.125
  23201235.850    -5325454.608 5  -3993854.02321         9.000           0.313
  21508151.537   -14933302.667 6 -11440921.85121        18.000           1.469
 91  5 22 19 45 59.9980000  0  6G18G11G19G 2G16G 6
  23783149.272    16777276.425 4  13062108.28721         7.250           0.188
  22944068.662    -7363230.233 6  -5704127.46021        15.500           0.719
  21140583.232     2790984.950 6   2185050.98822        14.500           1.688
  20340314.850   -19841979.394 7 -15375193.79323        27.750           3.219
  23204400.084    -5308829.721 5  -3980899.60321         9.000           0.313
  21501512.178   -14968180.970 6 -11468099.73321        17.750           1.406
 91  5 22 19 46 14.9980000  0  6G18G11G19G 2G16G 6
  23792314.732    16825448.870 4  13099645.08421         6.500           0.156
  22947410.412    -7345659.603 6  -5690436.07921        14.750           0.781
  21143991.732     2808915.391 6   2199022.73422        15.750           1.656
  20335743.811   -19866005.977 7 -15393915.79823        27.750           3.313
  23207579.842    -5292111.646 5  -3967872.57821         9.250           0.281
  21494881.287   -15003037.658 6 -11495260.78021        18.250           1.469
 91  5 22 19 46 29.9980000  0  6G18G11G19G 2G16G 6
  23801486.623    16873633.913 4  13137191.70121         6.500           0.125
  22950779.318    -7327960.740 6  -5676644.78521        15.250           0.688
  21147416.193     2826895.900 6   2213033.49522        16.000           1.656
  20331185.811   -19889956.834 7 -15412578.80023        27.250           3.156
  23210777.959    -5275304.781 5  -3954776.34721         8.750           0.313
  21488252.537   -15037877.104 6 -11522408.38622        18.000           1.563
 91  5 22 19 46 44.9980000  0  6G18G11G19G 2G16G 6
  23810657.740    16921835.570 4  13174751.22521         6.250           0.219
  22954173.592    -7310129.856 6  -5662750.61321        16.000           0.781
  21150846.131     2844930.615 6   2227086.49822        16.750           1.625
  20326643.303   -19913827.983 7 -15431179.68423        27.500           3.188
  23213995.795    -5258405.284 5  -3941607.96321         9.250           0.313
  21481625.084   -15072695.016 6 -11549539.20422        17.750           1.594
 91  5 22 19 46 59.9980000  0  6G18G11G19G 2G16G 6
  23819827.154    16970051.919 4  13212322.21021         6.250           0.156
  22957590.865    -7292168.515 6                        15.750
  21154289.959     2863018.218 6                        15.500
  20322115.959   -19937620.718 7 -15449719.46923        27.500           3.219
  23217230.350    -5241414.816 5  -3928368.67521         9.250           0.313
  21475003.022   -15107492.606 6 -11576654.19622        17.750           1.563
 91  5 22 19 47 14.9980000  0  6G18G11G19G 2G16G 6
  23829012.607    17018281.475 4  13249903.49321         7.250           0.344
  22961034.139    -7274078.195 6                        15.750
  21157739.365     2881157.215 6                        15.500
  20317603.232   -19961336.446 7 -15468199.25223        27.750           3.250
  23220481.334    -5224335.040 5  -3915059.79121         9.750           0.406
  21468384.795   -15142271.211 6 -11603754.39622        18.000           1.625
 91  5 22 19 47 29.9980000  0  5G11G19G 2G16G 6
  22964497.561    -7255855.420 6                        15.000
  21161202.076     2899351.368 6                        15.000
  20313104.936   -19984971.549 8 -15486616.20523        28.250           3.156
  23223747.334    -5207162.549 5  -3901678.65921         9.500           0.250
  21461770.889   -15177026.983 6 -11630836.80322        18.500           1.531
 91  5 22 19 47 44.9980000  0  5G11G19G 2G16G 6
  22967994.068    -7237502.488 6  -5606157.96321        15.000           0.688
  21164672.381     2917598.725 6   2283710.89722        15.250           1.813
  20308622.522   -20008528.132 7 -15504971.98123        27.750           3.188
  23227032.701    -5189899.814 5  -3888227.22821         9.000           0.281
  21455162.287   -15211762.015 6 -11657903.04922        18.000           1.531
 91  5 22 19 47 59.9980000  0  5G11G19G 2G16G 6
  22971509.272    -7219019.656 6  -5591755.76721        14.750           0.688
  21168157.303     2935899.166 6   2297970.95722        16.000           1.813
  20304155.256   -20032006.040 7 -15523266.44623        27.750           3.125
  23230332.451    -5172547.328 5  -3874705.85321         8.750           0.313
  21448554.350   -15246476.253 6 -11684953.08922        18.000           1.656
 91  5 22 19 48 14.9980000  0  5G11G19G 2G16G 6
  22975049.686    -7200407.865 6  -5577253.09621        14.000           0.594
  21171648.357     2954251.995 6   2312271.84222        16.250           1.625
  20299702.795   -20055406.210 8 -15541500.33523        28.250           3.219
  23233652.193    -5155106.012 5  -3861115.26821         9.000           0.313
  21441950.811   -15281170.387 6 -11711987.46822        17.750           1.563
 91  5 22 19 48 29.9980000  0  5G11G19G 2G16G 6
  22978620.264    -7181667.001 6  -5562649.85321        14.250           0.625
  21175149.436     2972657.755 6   2326613.97522        16.250           1.625
  20295264.522   -20078728.218 7 -15559673.32123        27.250           3.188
  23236990.693    -5137575.795 5  -3847455.40821         9.500           0.375
  21435354.936   -15315843.887 6 -11739005.76922        18.250           1.688
 91  5 22 19 48 44.9980000  0  5G11G19G 2G16G 6
  22982213.522    -7162792.710 6  -5547942.63021        14.250           0.688
  21178663.951     2991121.140 6   2341001.00222        16.250           1.781
  20290840.889   -20101967.368 7 -15577781.74023        27.500           3.219
  23240342.303    -5119952.290 5  -3833722.84321         9.000           0.406
  21428762.412   -15350492.043 6 -11766004.31822        18.750           1.625
 91  5 22 19 48 59.9980000  0  5G11G19G 2G16G 6
  22985824.795    -7143793.563 6  -5533138.13221        14.500           0.656
  21182187.100     3009633.657 6   2355426.31622        15.250           1.719
  20286433.568   -20125132.127 8 -15595832.19023        28.000           3.156
  23243712.272    -5102244.147 5  -3819924.33721         9.250           0.438
  21422172.615   -15385123.125 6 -11792989.56922        18.750           1.688
 91  5 22 19 49 14.9980000  0  5G11G19G 2G16G 6
  22989462.686    -7124660.657 6  -5518229.39421        14.000           0.656
  21185719.592     3028204.405 6   2369896.99422        15.500           1.719
  20282040.779   -20148213.458 8 -15613817.63723        28.000           3.156
  23247101.725    -5084442.663 5  -3806053.10221         9.250           0.344
  21415588.904   -15419727.981 6 -11819954.38022        18.750           1.594
 91  5 22 19 49 29.9980000  0  5G11G19G 2G16G 6
  22993133.451    -7105397.016 6  -5503218.78221        15.000           0.563
  21189266.201     3046830.658 6   2384410.92922        15.750           1.688
  20277664.607   -20171214.110 7 -15631740.21723        27.750           3.094
  23250504.553    -5066550.789 5  -3792111.43021         8.750           0.406
  21409006.123   -15454309.340 6 -11846900.88322        18.000           1.688
 91  5 22 19 49 44.9980000  0  5G11G19G 2G16G 6
  22996822.779    -7085999.465 6  -5488103.84521        14.750           0.656
  21192820.576     3065515.907 6   2398970.84022        16.000           1.625
  20273302.154   -20194130.469 7 -15649597.11423        27.500           3.188
  23253927.162    -5048565.376 5  -3778096.86121         8.250           0.313
  21402429.584   -15488863.571 6 -11873826.24922        18.500           1.563
 91  5 22 19 49 59.9980000  0  5G11G19G 2G16G 6
  23000535.006    -7066475.025 6  -5472890.01521        14.250           0.688
  21196386.725     3084253.311 6   2413571.39022        15.750           1.563
  20268956.287   -20216969.592 7 -15667393.82823        27.250           3.219
  23257368.100    -5030493.430 5  -3764014.87621         8.750           0.344
  21395859.826   -15523397.644 6 -11900735.89822        18.500           1.625
 91  5 22 19 50 14.9980000  0  5G11G19G 2G16G 6
  23004280.264    -7046820.535 6  -5457574.84021        15.000           0.656
  21199963.897     3103046.293 6   2428215.25222        16.250           1.719
  20264626.592   -20239728.202 8 -15685127.79723        28.000           3.188
  23260820.959    -5012332.215 5  -3749863.32021         8.250           0.375
  21389290.498   -15557907.751 6 -11927626.87922        18.000           1.625
 91  5 22 19 50 29.9980000  0  5G11G19G 2G16G 6
  23008041.889    -7027037.899 6  -5442159.82721        15.000           0.719
  21203554.662     3121893.127 6   2442901.07022        14.750           1.781
  20260310.443   -20262407.937 8 -15702800.31223        28.000           3.250
  23264292.178    -4994083.510 5  -3735643.59421         8.500           0.344
  21382727.139   -15592395.653 6 -11954500.55522        18.250           1.625
 91  5 22 19 50 44.9980000  0  5G11G19G 2G16G 6
  23011834.232    -7007124.839 6  -5426643.18021        15.250           0.656
  21207145.420     3140796.404 6   2457630.86522        15.250           1.688
  20256009.857   -20285006.108 7 -15720409.27423        27.750           3.156
  23267787.951    -4975745.477 5  -3721354.26421         8.500           0.344
  21376171.279   -15626858.785 6 -11981354.93722        18.500           1.594
 91  5 22 19 50 59.9980000  0  5G11G19G 2G16G 6
  23015648.818    -6987082.108 6  -5411025.48221        15.500           0.656
  21210754.897     3159755.643 6   2472404.25622        15.250           1.719
  20251724.951   -20307523.298 7 -15737955.12923        27.750           3.031
  23271292.756    -4957318.761 5  -3706995.82721         8.250           0.375
  21369616.639   -15661297.544 6 -12008190.32422        18.500           1.531
 91  5 22 19 51 14.9980000  0  5G11G19G 2G16G 6
  23019484.303    -6966908.406 6  -5395305.74121        15.000           0.719
  21214374.873     3178772.554 6   2487222.60222        16.000           1.719
  20247456.022   -20329958.020 7 -15755436.72423        27.750           3.219
  23274814.568    -4938801.993 5  -3692567.20921         8.000           0.250
  21363067.443   -15695710.165 6 -12035005.34622        18.000           1.656
 91  5 22 19 51 29.9980000  0  5G11G19G 2G16G 6
  23023350.936    -6946607.123 6  -5379486.60321        15.250           0.594
  21218005.107     3197843.976 6   2502083.42322        14.750           1.719
  20243203.107   -20352313.440 8 -15772856.52923        28.000           3.094
  23278357.561    -4920198.771 5  -3678071.24321         8.000           0.250
  21356525.209   -15730099.925 6 -12061802.55122        18.500           1.594
 91  5 22 19 51 44.9980000  0  5G11G19G 2G16G 6
  23027238.811    -6926172.303 6  -5363563.40921        15.000           0.625
  21221641.592     3216975.964 6   2516991.43622        16.000           1.594
  20238964.490   -20374583.615 7 -15790209.90523        27.750           3.156
  23281913.850    -4901503.150 5  -3663503.27121         8.000           0.313
  21349986.787   -15764460.412 6 -12088576.94122        18.750           1.750
 91  5 22 19 51 59.9980000  0  5G11G19G 2G16G 6
  23031153.467    -6905607.454 6  -5347538.86821        15.250           0.500
  21225295.412     3236165.303 6   2531944.14622        15.250           1.625
  20234742.748   -20396771.687 8 -15807499.30823        28.000           3.031
  23285486.147    -4882718.655 5  -3648866.03321         8.000           0.406
  21343453.045   -15798794.852 6 -12115331.03522        19.250           1.594
 91  5 22 19 52 14.9980000  0  5G11G19G 2G16G 6
  23035091.545    -6884919.842 6  -5331418.68221        15.500           0.656
  21228954.029     3255405.174 6   2546936.22522        15.500           1.625
  20230534.053   -20418884.677 8 -15824730.20723        28.000           3.125
  23289080.795    -4863852.850 5  -3634165.45121         9.250           0.375
  21336924.068   -15833110.355 6 -12142070.37621        19.500           1.469
 91  5 22 19 52 29.9980000  0  5G11G19G 2G16G 6
  23039051.615    -6864104.216 6  -5315198.72321        15.000           0.563
  21232628.779     3274700.953 6   2561971.86322        15.000           1.625
  20226341.123   -20440917.055 7 -15841898.29023        27.750           3.094
  23292685.201    -4844900.310 5  -3619397.28621         8.750           0.344
  21330397.662   -15867401.125 6 -12168790.44722        19.250           1.563
 91  5 22 19 52 44.9980000  0  5G11G19G 2G16G 6
  23043035.451    -6843161.347 6  -5298879.61321        14.750           0.594
  21236310.154     3294052.254 6   2577050.76722        15.500           1.688
  20222163.639   -20462869.390 7 -15859003.99623        27.500           3.063
  23296307.475    -4825861.791 5  -3604562.11221         8.750           0.344
  21323877.365   -15901667.599 6 -12195491.58522        19.250           1.563
 91  5 22 19 52 59.9980000  0  5G11G19G 2G16G 6
  23047042.490    -6822092.496 6  -5282462.36421        14.500           0.625
  21240003.881     3313457.877 6   2592171.99422        15.250           1.656
  20218000.303   -20484742.676 7 -15876048.10723        27.500           3.031
  23299945.865    -4806739.013 5  -3589661.29321         8.500           0.406
  21317359.772   -15935910.717 6 -12222174.52522        19.250           1.625
 91  5 22 19 53 14.9980000  0  5G11G19G 2G16G 6
  23051077.420    -6800893.088 6  -5265943.37221        14.500           0.594
  21243705.193     3332922.572 6   2607339.25822        15.500           1.594
  20213856.842   -20506532.368 8 -15893027.08223        28.000           3.063
  23303598.115    -4787527.369 5  -3574691.25621         8.250           0.406
  21310849.420   -15970125.658 6 -12248835.50122        19.500           1.500
 91  5 22 19 53 29.9980000  0  5G11G19G 2G16G 6
  23055135.670    -6779567.548 6  -5249326.08221        14.500           0.688
  21247427.131     3352442.254 6   2622549.36922        14.500           1.500
  20209723.529   -20528242.525 7 -15909944.08523        27.500           3.250
  23307275.342    -4768231.441 5  -3559655.51321         8.750           0.313
  21304342.975   -16004316.525 6 -12275477.72622        19.500           1.563
 91  5 22 19 53 44.9980000  0  5G11G19G 2G16G 6
  23059217.326    -6758116.590 6  -5232611.07721        14.250           0.594
  21251146.389     3372016.599 6   2637802.07721        15.000           1.469
  20205608.225   -20549873.818 7 -15926799.63123        27.750           3.094
  23310962.014    -4748851.850 5  -3544554.57421         8.250           0.250
  21297840.131   -16038483.607 6 -12302101.42122        19.250           1.625
 91  5 22 19 53 59.9980000  0  5G11G19G 2G16G 6
  23063323.818    -6736540.923 6  -5215798.89721        14.250           0.656
  21254886.357     3391645.173 6   2653097.04121        13.250           1.406
  20201506.475   -20571426.436 8 -15943593.87223        28.000           3.031
  23314660.475    -4729389.372 5  -3529389.06521         8.000           0.125
  21291343.131   -16072627.244 6 -12328706.83422        19.500           1.563
 91  5 22 19 54 14.9980000  0  5G11G19G 2G16G 6
  23067452.412    -6714838.928 6  -5198888.28921        14.500           0.563
  21258627.193     3411329.729 6   2668435.63121        14.750           1.438
  20197420.764   -20592898.594 7 -15960325.42323        27.750           2.938
  23318382.686    -4709842.602 5  -3514157.86821         8.500           0.281
  21284851.389   -16106745.473 6 -12355292.45522        19.500           1.719
 91  5 22 19 54 29.9980000  0  5G11G19G 2G16G 6
  23071605.397    -6693011.690 6  -5181880.08221        14.500           0.656
  21262386.897     3431069.681 6   2683817.37421        14.250           1.469
  20193348.975   -20614291.252 8 -15976995.02223        28.000           3.063
  23322119.029    -4690212.453 5  -3498861.71521         8.750           0.313
  21278363.131   -16140839.319 6 -12381859.07322        19.000           1.656
 91  5 22 19 54 44.9980000  0  5G11G19G 2G16G 6
  23075785.256    -6671058.733 6  -5164773.92621        14.250           0.750
  21266148.123     3450865.743 6                        14.750
  20189293.232   -20635603.667 7 -15993602.09123        27.500           3.094
  23325871.561    -4670498.399 5                         8.750
  21271878.990   -16174907.377 6 -12408405.59722        19.250           1.719
 91  5 22 19 54 59.9980000  0  5G11G19G 2G16G 6
  23079982.834    -6648981.687 6  -5147571.05821        14.000           0.750
  21269929.701     3470716.418 6                        15.000
  20185252.576   -20656837.225 7 -16010147.72123        27.750           3.188
  23329636.639    -4650702.318 5                         8.750
  21265402.217   -16208951.263 6 -12434933.28522        19.750           1.563
 91  5 22 19 55 14.9980000  0  5G11G19G 2G16G 6
  23084211.576    -6626777.090 6  -5130268.78321        14.250           0.719
  21273716.873     3490625.557 6                        15.000
  20181228.420   -20677988.395 7 -16026629.14823        27.250           3.063
  23333428.154    -4630820.887 5                         9.500
  21258929.420   -16242967.297 6 -12461439.27822        19.750           1.656
 91  5 22 19 55 29.9980000  0  5G11G19G 2G16G 6
  23088458.811    -6604450.764 6  -5112871.65921        14.000           0.625
  21277519.092     3510587.546 6                        14.250
  20177217.256   -20699062.541 7 -16043050.55023        27.750           3.125
  23337224.678    -4610860.211 5                         9.000
  21252461.584   -16276960.796 6 -12487927.70522        19.750           1.625
 91  5 22 19 55 44.9980000  0  5G11G19G 2G16G 6
  23092730.068    -6581999.718 6  -5095377.37821        14.000           0.813
  21281323.303     3530605.585 6                        14.250
  20173223.107   -20720056.537 8 -16059409.50123        28.250           3.094
  23341033.490    -4590817.265 5                         8.500
  21245997.279   -16310928.370 6 -12514395.92722        19.250           1.688
 91  5 22 19 55 59.9980000  0  5G11G19G 2G16G 6
  23097026.107    -6559423.873 6  -5077785.84421        13.750           0.625
  21285146.334     3550680.015 6                        13.750
  20169244.061   -20740970.091 8 -16075705.77323        28.500           3.125
  23344865.053    -4570692.061 5                         8.750
  21239537.029   -16344869.817 6 -12540843.79722        19.250           1.719
 91  5 22 19 56 14.9980000  0  5G11G19G 2G16G 6
  23101349.826    -6536726.600 6  -5060099.67321        13.500           0.719
  21288974.623     3570807.822 6                        14.000
  20165279.115   -20761806.279 8 -16091941.75823        28.500           3.000
  23348712.139    -4550487.862 5                         9.250
  21233083.264   -16378788.000 6 -12567273.54122        19.250           1.719
 91  5 22 19 56 29.9980000  0  5G11G19G 2G16G 6
  23105691.451    -6513906.272 6  -5042317.64021        13.500           0.656
  21292817.576     3590991.070 6   2808431.20621        14.500           1.313
  20161328.295   -20782563.304 8 -16108116.05723        28.250           3.031
  23352569.147    -4530203.228 5  -3374179.61921         9.000           0.344
  21226633.357   -16412680.849 7 -12593683.53622        20.000           1.688
 91  5 22 19 56 44.9980000  0  5G11G19G 2G16G 6
  23110050.654    -6490964.974 6  -5024441.32421        13.000           0.875
  21296667.428     3611227.895 6   2824200.13321        15.250           1.438
  20157392.998   -20803243.136 8 -16124230.20423        28.000           3.156
  23356445.107    -4509840.106 5  -3358312.29421         9.250           0.281
  21220189.412   -16446550.305 6 -12620075.30622        19.750           1.750
 91  5 22 19 56 59.9980000  0  5G11G19G 2G16G 6
  23114438.264    -6467904.073 6  -5006471.82221        13.250           0.719
  21300529.076     3631517.160 6   2840009.93122        14.500           1.563
  20153472.459   -20823846.756 7 -16140284.96623        27.750           3.063
  23360338.912    -4489400.077 5  -3342385.01821         9.750           0.406
  21213747.287   -16480397.220 6 -12646449.51322        19.500           1.750
 91  5 22 19 57 14.9980000  0  5G11G19G 2G16G 6
  23118855.459    -6444718.930 6  -4988405.51421        14.000           0.719
  21304400.264     3651863.707 6   2855864.34921        15.000           1.406
  20149567.318   -20844369.328 7 -16156276.57623        27.750           3.063
  23364242.420    -4468878.590 5  -3326394.29821         9.000           0.281
  21207312.107   -16514216.594 7 -12672802.26322        20.000           1.719
 91  5 22 19 57 29.9980000  0  5G11G19G 2G16G 6
  23123291.561    -6421410.701 6  -4970243.28321        14.000           0.750
  21308282.256     3672266.657 6   2871762.71922        14.250           1.500
  20145677.186   -20864811.888 7 -16172205.83623        27.750           3.125
  23368159.990    -4448276.737 5  -3310340.95421         8.250           0.344
  21200881.756   -16548009.250 7 -12699134.18722        20.250           1.625
 91  5 22 19 57 44.9980000  0  5G11G19G 2G16G 6
  23127751.623    -6397980.715 6  -4951986.18321        13.750           0.781
  21312175.193     3692725.059 6   2887704.30022        14.750           1.531
  20141801.545   -20885175.496 7 -16188073.58023        27.500           3.125
  23372096.381    -4427595.896 5  -3294226.07321         8.250           0.313
  21194454.897   -16581776.108 7 -12725446.00822        20.000           1.594
 91  5 22 19 57 59.9980000  0  5G11G19G 2G16G 6
  23132232.982    -6374432.556 6  -4933636.99721        13.500           0.719
  21316080.740     3713235.620 6   2903686.52222        14.250           1.563
  20137940.748   -20905463.429 7 -16203882.35523        27.750           3.000
  23376044.561    -4406839.922 5  -3278052.64521         7.750           0.219
  21188034.779   -16615520.357 7 -12751740.21222        20.000           1.688
 91  5 22 19 58 14.9980000  0  5G11G19G 2G16G 6
  23136735.826    -6350764.128 6  -4915194.09421        13.500           0.656
  21319991.522     3733800.630 6   2919711.17921        14.750           1.438
  20134094.873   -20925673.398 8 -16219630.37823        28.000           3.000
  23380004.311    -4386006.756 5  -3261819.06121         7.500           0.219
  21181617.920   -16649239.638 6 -12778014.96522        19.750           1.719
 91  5 22 19 58 29.9980000  0  5G11G19G 2G16G 6
  23141263.639    -6326973.181 6  -4896655.70521        14.250           0.781
  21323920.076     3754422.504 6   2935780.14621        13.750           1.313
  20130265.022   -20945802.723 8 -16235315.56223        28.000           3.031
  23383987.076    -4365094.535 5  -3245523.85721         8.250           0.094
  21175207.147   -16682931.299 7 -12804268.18722        20.000           1.719
 91  5 22 19 58 44.9980000  0  5G11G19G 2G16G 6
  23145814.068    -6303062.417 6  -4878023.97921        14.250           0.656
  21327851.178     3775099.089 6   2951891.74421        15.000           1.344
  20126449.834   -20965853.930 8 -16250939.87023        28.250           3.094
  23387985.006    -4344105.642 5  -3229168.94921         8.250           0.156
  21168800.217   -16716597.755 6 -12830501.77522        19.750           1.688
 91  5 22 19 58 59.9980000  0  5G11G19G 2G16G 6
  23150385.217    -6279031.844 6  -4859298.86621        14.250           0.563
  21331796.232     3795830.558 6   2968046.11721        14.500           1.406
  20122648.654   -20985827.179 8 -16266503.43423        28.500           3.031
  23391988.865    -4323040.155 5  -3212754.27621         7.500           0.156
  21162399.334   -16750238.663 7 -12856715.45622        20.000           1.688
 91  5 22 19 59 14.9980000  0  5G11G19G 2G16G 6
  23154978.897    -6254882.600 6  -4840481.28221        14.500           0.594
  21335752.592     3816616.231 6   2984242.71221        14.250           1.469
  20118863.576   -21005723.134 8 -16282006.76723        28.500           2.969
  23396014.381    -4301899.326 5  -3196280.95821         7.750           0.188
  21155999.920   -16783854.585 6 -12882909.67122        19.500           1.625
 91  5 22 19 59 29.9980000  0  5G11G19G 2G16G 6
  23159597.826    -6230613.616 6  -4821570.40721        14.750           0.656
  21339720.092     3837457.167 6   3000482.36521        13.750           1.469
  20115090.014   -21025540.531 8 -16297448.89223        28.000           2.969
  23400053.412    -4280682.112 5  -3179748.13821         8.500           0.250
  21149609.514   -16817444.279 6 -12909083.44622        19.750           1.719
 91  5 22 19 59 44.9980000  0  5G11G19G 2G16G 6
  23164238.795    -6206224.857 6  -4802566.22121        15.250           0.563
  21343694.279     3858353.812 6   3016765.43222        15.000           1.500
  20111334.514   -21045278.981 8 -16312829.49123        28.000           3.063
  23404101.850    -4259388.565 5  -3163155.81921         8.250           0.313
  21143222.982   -16851006.967 6 -12935236.17222        19.750           1.750
 91  5 22 19 59 59.9980000  0  5G11G19G 2G16G 6
  23168901.436    -6181717.969 6  -4783469.97621        15.000           0.688
  21347680.740     3879304.772 6   3033090.83122        14.500           1.500
  20107594.123   -21064939.901 8 -16328149.68523        28.000           3.094
  23408170.076    -4238020.309 5  -3146505.28721         8.000           0.344
  21136840.045   -16884544.316 6 -12961369.15722        19.500           1.844
 91  5 22 20  0 14.9980000  0  5G11G19G 2G16G 6
  23173588.662    -6157095.657 6  -4764283.78021        15.000           0.656
  21351677.139     3900307.557 6   3049456.60621        15.250           1.375
  20103865.240   -21084525.699 7 -16343411.33923        27.250           3.219
  23412247.170    -4216580.310 5  -3129798.83721         7.750           0.406
  21130463.100   -16918058.547 6 -12987484.13322        19.500           1.719
 91  5 22 20  0 29.9980000  0  5G11G19G 2G16G 6
  23178295.850    -6132352.827 6  -4745003.66721        14.750           0.719
  21355684.748     3921367.677 6   3065867.06521        14.500           1.344
  20100153.998   -21104031.164 7 -16358610.39123        27.750           3.125
  23416348.131    -4195063.413 5  -3113032.51221         9.000           0.375
  21124090.545   -16951544.054 7 -13013576.72022        20.000           1.750
 91  5 22 20  0 44.9980000  0  5G11G19G 2G16G 6
  23183028.154    -6107489.987 6  -4725630.06021        15.000           0.719
  21359703.936     3942484.798 6   3082321.93621        14.500           1.375
  20096458.287   -21123456.610 8 -16373747.10023        28.250           3.156
  23420452.147    -4173470.426 5  -3096206.85121         7.750           0.313
  21117724.467   -16985001.103 6 -13039647.13322        19.750           1.844
 91  5 22 20  0 59.9980000  0  5G11G19G 2G16G 6
  23187781.318    -6082506.845 6  -4706162.71621        14.500           0.625
  21363731.022     3963659.673 6   3098821.81021        14.750           1.313
  20092776.998   -21142801.293 8 -16388820.88023        28.000           3.188
  23424579.014    -4151800.835 5  -3079321.52821         8.000           0.375
  21111364.576   -17018428.953 7 -13065694.79622        20.250           1.781
 91  5 22 20  1 14.9980000  0  5G11G19G 2G16G 6
  23192562.240    -6057409.961 6  -4686606.72921        15.250           0.625
  21367773.045     3984885.968 6   3115361.75721        15.000           1.469
  20089110.115   -21162071.496 7 -16403836.61523        27.750           3.094
  23428715.100    -4130061.004 5  -3062381.48621         9.000           0.188
  21105005.779   -17051833.799 6 -13091724.53522        19.500           1.938
 91  5 22 20  1 29.9980000  0  5G11G19G 2G16G 6
  23197360.045    -6032196.393 6  -4666959.81821        14.500           0.625
  21371822.443     4006166.935 6   3131944.30222        15.000           1.563
  20085458.373   -21181264.243 7 -16418791.99623        27.750           3.156
  23432865.092    -4108248.587 5  -3045384.79121         8.500           0.188
  21098655.475   -17085212.438 7 -13117733.84722        20.250           1.781
 91  5 22 20  1 44.9980000  0  5G11G19G 2G16G 6
  23202176.092    -6006867.555 6  -4647223.08421        13.750           0.688
  21375881.467     4027501.449 6   3148568.56221        15.250           1.438
  20081820.193   -21200380.841 8 -16433688.04023        28.000           3.156
  23437027.998    -4086364.792 5  -3028332.54621         7.750           0.313
  21092308.506   -17118565.637 7 -13143723.34122        20.500           1.844
 91  5 22 20  1 59.9980000  0  5G11G19G 2G16G 6
  23207015.600    -5981422.049 6  -4627395.45021        14.000           0.625
  21379953.639     4048891.275 6   3165235.92722        15.250           1.531
  20078197.787   -21219419.431 8 -16448523.30223        28.500           3.125
  23441211.459    -4064408.260 5  -3011223.59521         7.750           0.250
  21085966.662   -17151891.678 6 -13169691.66722        19.750           1.844
 91  5 22 20  2 14.9980000  0  5G11G19G 2G16G 6
  23211882.748    -5955858.562 6  -4607475.88521        14.000           0.563
  21384033.889     4070337.823 6   3181947.49521        15.000           1.438
  20074588.631   -21238378.663 8 -16463296.71923        28.000           3.031
  23445403.303    -4042377.869 5  -2994057.10121         8.250           0.219
  21079629.779   -17185189.023 7 -13195637.63322        20.250           1.844
 91  5 22 20  2 29.9980000  0  5G11G19G 2G16G 6
  23216770.162    -5930178.854 6  -4587465.75321        14.250           0.625
  21388126.131     4091839.839 6   3198702.28221        14.500           1.438
  20070997.467   -21257259.782 8 -16478009.26923        28.500           3.250
  23449605.498    -4020275.217 4  -2976834.35521         7.250           0.219
  21073298.811   -17218458.895 6 -13221562.19922        19.750           1.781
 91  5 22 20  2 44.9980000  0  5G11G19G 2G16G 6
  23221679.420    -5904382.163 6  -4567364.44621        14.000           0.469
  21392224.311     4113398.200 6   3215500.97721        14.250           1.438
  20067417.014   -21276061.962 8 -16492660.31523        28.500           3.156
  23453826.514    -3998099.861 4  -2959554.88721         7.250           0.281
  21066972.475   -17251700.185 7 -13247464.48622        20.000           1.938
 91  5 22 20  2 59.9980000  0  5G11G19G 2G16G 6
  23226608.459    -5878471.044 6  -4547173.97621        13.750           0.594
  21396343.334     4135010.903 6   3232342.01421        14.250           1.344
  20063855.482   -21294787.443 8 -16507251.59123        28.500           3.125
  23458057.639    -3975854.482 4  -2942220.89321         6.750           0.219
  21060652.662   -17284915.110 7 -13273346.23422        20.000           1.750
 91  5 22 20  3 14.9980000  0  5G11G19G 2G16G 6
  23231560.803    -5852447.843 6  -4526896.20721        13.750           0.594
  21400461.873     4156675.775 6   3249223.70821        14.750           1.375
  20060306.662   -21313438.341 8 -16521784.75423        28.500           3.125
  23462305.584    -3953541.463 5  -2924834.21421         8.000           0.344
  21054335.037   -17318105.446 6 -13299208.81722        19.750           1.688
 91  5 22 20  3 29.9980000  0  5G11G19G 2G16G 6
  23236536.561    -5826313.279 6  -4506531.63921        14.250           0.594
  21404595.826     4178392.421 6   3266145.73721        14.500           1.438
  20056769.639   -21332015.133 8 -16536260.16823        28.000           3.156
  23466562.162    -3931161.537 4  -2907395.34721         7.000           0.313
  21048024.561   -17351271.633 6 -13325052.58522        19.750           1.813
 91  5 22 20  3 44.9980000  0  5G11G19G 2G16G 6
  23241529.123    -5800067.298 6  -4486080.26221        13.750           0.688
  21408736.076     4200161.047 6   3283108.26322        14.750           1.500
  20053250.959   -21350517.500 8 -16550677.59123        29.250           3.219
  23470836.787    -3908714.346 4  -2889904.06321         7.250           0.250
  21041718.420   -17384413.277 6 -13350877.23222        19.750           1.750
 91  5 22 20  3 59.9980000  0  5G11G19G 2G16G 6
  23246546.803    -5773701.732 6  -4465535.69721        13.250           0.625
  21412897.201     4221990.411 6   3300118.13222        14.000           1.500
  20049746.022   -21368936.899 8 -16565030.36823        29.250           3.125
  23475126.818    -3886191.936 4  -2872354.18221         7.000           0.250
  21035417.990   -17417521.534 6 -13376675.85122        19.750           1.969
 91  5 22 20  4 14.9970000  0  5G11G19G 2G16G 6
  23251587.485    -5747222.626 6  -4444902.65321        13.250           0.719
  21417054.743     4243874.942 6   3317170.97521        14.750           1.406
  20046255.313   -21387276.211 8 -16579320.72523        29.000           3.313
  23479419.642    -3863600.427 4  -2854750.46121         6.750           0.250
  21029124.892   -17450598.331 7 -13402449.96522        20.250           1.906
 91  5 22 20  4 29.9970000  0  5G11G19G 2G16G 6
  23256645.610    -5720628.574 6  -4424180.06621        12.750           0.688
  21421234.056     4265815.344 6   3334267.36921        14.500           1.281
  20042779.353   -21405539.843 8 -16593552.12923        28.250           3.219
  23483730.688    -3840939.188 4  -2837092.44321         6.250           0.125
  21022834.470   -17483649.815 7 -13428204.35322        21.000           1.875
 91  5 22 20  4 44.9970000  0  5G11G19G 2G16G 6
  23261726.267    -5693921.988 6  -4403369.78621        12.500           0.688
  21425414.392     4287810.049 6   3351406.06621        14.500           1.219
  20039318.993   -21423727.015 8 -16607723.94223        29.000           3.219
  23488057.228    -3818209.988 4  -2819381.44121         6.250           0.156
  21016550.587   -17516673.955 7 -13453937.43622        20.500           1.969
 91  5 22 20  4 59.9970000  0  5G11G19G 2G16G 6
  23266832.126    -5667104.739 6  -4382473.25221        13.000           0.594
  21429616.134     4309857.628 6   3368585.97221        14.500           1.313
  20035871.360   -21441839.329 8 -16621837.42923        28.750           3.250
  23492396.892    -3795414.774 4  -2801619.00921         7.250           0.188
  21010272.134   -17549672.213 7 -13479650.35022        21.000           1.969
 91  5 22 20  5 14.9970000  0  5G11G19G 2G16G 6
  23271954.673    -5640176.982 6  -4361490.62821        13.500           0.625
  21433818.056     4331958.258 6   3385807.20821        14.500           1.406
  20032440.876   -21459876.800 8 -16635892.59423        29.000           3.188
  23496745.931    -3772553.696 4  -2783805.24421         7.250           0.125
  21003996.103   -17582644.273 7 -13505342.85222        20.750           1.969
 91  5 22 20  5 29.9970000  0  5G11G19G 2G16G 6
  23277100.642    -5613136.352 6  -4340420.02021        13.750           0.531
  21438036.728     4354114.484 6   3403071.76721        14.250           1.281
  20029021.860   -21477836.757 8 -16649887.35423        28.000           3.188
  23501108.884    -3749624.557 5  -2765938.40921         8.000           0.219
  20997728.540   -17615587.459 7 -13531012.85022        20.750           1.938
 91  5 22 20  5 44.9970000  0  5G11G19G 2G16G 6
  23282271.884    -5585983.857 6  -4319262.24721        13.750           0.500
  21442261.103     4376325.533 6   3420379.04421        14.250           1.313
  20025619.181   -21495719.840 8 -16663822.22123        29.000           3.063
  23505485.017    -3726628.558 5  -2748019.49521         7.500           0.219
  20991464.134   -17648502.310 7 -13556660.77222        20.000           1.938
 91  5 22 20  5 59.9970000  0  5G11G19G 2G16G 6
  23287460.282    -5558716.871 6  -4298015.27421        14.250           0.625
  21446503.860     4398594.416 6   3437731.39321        12.750           1.281
  20022232.032   -21513523.288 8 -16677695.03323        29.000           3.156
  23509878.767    -3703562.829 5  -2730046.26921         8.250           0.313
  20985207.149   -17681385.709 7 -13582284.18622        20.500           1.938
 91  5 22 20  6 14.9970000  0  5G11G19G 2G16G 6
  23292667.446    -5531338.155 6  -4276681.23221        14.000           0.563
  21450745.985     4420918.749 6   3455126.94721        14.000           1.281
  20018858.931   -21531249.560 8 -16691507.70923        28.750           3.188
  23514281.462    -3680430.373 5  -2712021.02421         8.250           0.250
  20978952.626   -17714240.236 7 -13607885.10322        20.250           2.000
 91  5 22 20  6 29.9970000  0  5G11G19G 2G16G 6
  23297898.415    -5503852.499 6  -4255263.86421        14.250           0.688
  21455008.501     4443293.886 6   3472562.08021        13.000           1.188
  20015499.165   -21548903.230 8 -16705263.80823        28.500           3.125
  23518692.040    -3657236.180 5  -2693947.68621         7.750           0.281
  20972706.181   -17747070.058 7 -13633466.76822        20.250           2.000
 91  5 22 20  6 44.9970000  0  5G11G19G 2G16G 6
  23303149.837    -5476254.672 6  -4233759.09621        13.750           0.625
  21459272.821     4465725.466 6   3490041.21021        14.250           1.219
  20012153.743   -21566478.881 8 -16718959.11823        28.250           3.250
  23523117.329    -3633974.805 5  -2675821.99621         8.000           0.281
  20966466.392   -17779869.634 7 -13659024.86222        20.500           2.031
 91  5 22 20  6 59.9970000  0  4G11G19G 2G 6
  23308423.618    -5448546.449 6  -4212168.29421        13.750           0.563
  21463552.649     4488212.212 6   3507563.31821        13.750           1.219
  20008823.392   -21583977.735 8 -16732594.58323        28.250           3.156
  20960228.673   -17812640.172 7 -13684560.33422        20.500           2.031
 91  5 22 20  7 14.9970000  0  4G11G19G 2G 6
  23313712.696    -5420727.511 6  -4190491.22821        13.250           0.625
  21467844.196     4510754.588 6   3525128.78321        14.750           1.219
  20005508.634   -21601399.365 8 -16746169.86923        28.500           3.031
  20953999.157   -17845381.045 7 -13710072.69122        20.500           1.906
 91  5 22 20  7 29.9970000  0  4G11G19G 2G 6
  23319031.118    -5392798.407 6  -4168728.32821        13.250           0.656
  21472141.188     4533352.356 6   3542737.40621        13.750           1.344
  20002206.556   -21618744.029 8 -16759685.18723        28.250           3.000
  20947774.743   -17878092.304 7 -13735561.96722        20.750           2.031
 91  5 22 20  7 44.9970000  0  4G11G19G 2G 6
  23324366.696    -5364761.651 6  -4146881.54921        13.500           0.563
  21476454.368     4556003.169 6   3560387.35921        14.500           1.313
  19998920.806   -21636013.829 8 -16773142.17423        28.250           3.000
  20941554.665   -17910776.049 7 -13761029.80422        20.500           2.094
 91  5 22 20  7 59.9970000  0  4G11G19G 2G 6
  23329721.845    -5336614.234 6  -4124948.52421        13.250           0.688
  21480777.079     4578710.371 6   3578081.24021        13.250           1.281
  19995650.392   -21653205.782 8 -16786538.49123        28.750           3.094
  20935339.688   -17943428.931 7 -13786473.59822        20.250           1.844
 91  5 22 20  8 14.9970000  0  4G11G19G 2G 6
  23335103.673    -5308361.289 6  -4102933.26921        14.000           0.594
  21485104.485     4601469.258 6   3595815.41221        14.000           1.406
  19992392.431   -21670324.529 8 -16799877.77223        28.500           3.094
  20929133.321   -17976055.642 7 -13811896.99422        20.500           2.125
 91  5 22 20  8 29.9970000  0  4G11G19G 2G 6
  23340495.657    -5279997.359 6  -4080831.54421        13.750           0.531
  21489447.962     4624285.644 6   3613594.37621        13.750           1.313
  19989150.970   -21687364.549 8 -16813155.70123        28.250           3.219
  20922929.681   -18008650.257 7 -13837295.38022        21.000           2.031
 91  5 22 20  8 44.9970000  0  4G11G19G 2G 6
  23345916.368    -5251525.270 6  -4058645.54621        14.250           0.531
  21493798.790     4647157.054 6   3631416.23221        14.500           1.250
  19985923.313   -21704328.400 8 -16826374.28823        28.500           3.094
  20916733.892   -18041215.225 7 -13862670.67222        21.250           2.031
 91  5 22 20  8 59.9970000  0  4G11G19G 2G 6
  23351352.501    -5222943.782 6  -4036374.28021        13.750           0.500
  21498165.087     4670084.916 6   3649282.06621        14.250           1.250
  19982708.993   -21721214.622 8 -16839532.37823        28.250           3.156
  20910540.376   -18073748.847 7 -13888021.53322        20.750           2.063
 91  5 22 20  9 14.9970000  0  4G11G19G 2G 6
  23356812.907    -5194255.683 6  -4014019.94721        13.500           0.594
  21502535.673     4693066.762 6   3667189.97021        14.500           1.250
  19979509.860   -21738025.611 8 -16852631.84723        28.500           3.063
  20904357.470   -18106253.480 7 -13913349.80522        20.750           2.031
 91  5 22 20  9 29.9970000  0  4G11G19G 2G 6
  23362290.728    -5165461.086 6  -3991582.63321        13.500           0.531
  21506920.126     4716102.822 6   3685140.11121        13.500           1.250
  19976326.329   -21754761.220 8 -16865672.57623        29.000           3.156
  20898177.415   -18138728.698 7 -13938655.15922        21.250           2.031
 91  5 22 20  9 44.9970000  0  4G11G19G 2G 6
  23367793.892    -5136558.413 6  -3969061.11521        13.250           0.531
  21511313.446     4739195.049 6   3703134.02721        14.000           1.188
  19973155.220   -21771419.664 8 -16878653.17623        28.750           3.156
  20892002.618   -18171172.682 7 -13963936.17322        21.000           2.000
 91  5 22 20  9 59.9970000  0  4G11G19G 2G 6
  23373309.024    -5107552.241 6  -3946458.92721        12.750           0.531
  21515719.063     4762339.048 6   3721168.27621        13.000           1.313
  19969999.540   -21788005.433 8 -16891577.14923        28.750           3.063
  20885834.774   -18203589.477 7 -13989196.00222        21.500           2.094
 91  5 22 20 10 14.9970000  0  4G11G19G 2G 6
  23378850.821    -5078438.272 6  -3923772.75321        12.250           0.438
  21520132.095     4785539.378 6   3739246.41621        13.750           1.281
  19966857.470   -21804513.966 8 -16904440.93523        28.250           3.063
  20879674.353   -18235974.320 7 -14014430.93422        22.000           2.188
 91  5 22 20 10 29.9970000  0  4G11G19G 2G 6
  23384418.032    -5049215.754 6  -3901001.98521        13.250           0.531
  21524562.196     4808797.119 6   3757369.29921        13.500           1.281
  19963730.751   -21820944.291 8 -16917243.78223        28.500           3.094
  20873514.798   -18268326.168 7 -14039640.15322        21.000           2.219
 91  5 22 20 10 44.9970000  0  4G11G19G 2G 6
  23389991.657    -5019889.594 5  -3878150.46621        11.500           0.594
  21528993.368     4832107.607 6   3775533.28121        14.500           1.250
  19960619.610   -21837301.014 8 -16929989.27723        28.750           3.031
  20867363.712   -18300649.518 7 -14064827.16722        21.250           2.281
 91  5 22 20 10 59.9970000  0  4G11G19G 2G 6
  23395592.899    -4990460.516 6  -3855218.74821        12.250           0.563
  21533445.251     4855470.575 6   3793738.16521        13.250           1.156
  19957519.704   -21853584.429 8 -16942677.65523        28.500           3.031
  20861219.751   -18332944.448 7 -14089992.03922        21.250           2.188
 91  5 22 20 11 14.9970000  0  4G11G19G 2G 6
  23401214.368    -4960926.075 6  -3832204.92821        12.250           0.563
  21537894.837     4878888.788 6   3811986.09121        14.250           1.250
  19954435.720   -21869791.972 8 -16955306.90823        28.500           3.156
  20855078.657   -18365208.218 7 -14115132.63422        21.250           2.219
 91  5 22 20 11 29.9970000  0  4G11G19G 2G 6
  23406854.478    -4931287.191 6  -3809109.74621        12.250           0.531
  21542360.704     4902361.650 6   3830276.60021        13.250           1.125
  19951366.540   -21885924.040 8 -16967877.34623        29.000           3.156
  20848945.837   -18397441.265 7 -14140249.27422        21.250           2.219
 91  5 22 20 11 44.9970000  0  4G11G19G 2G 6
  23412511.103    -4901546.097 6  -3785934.89021        12.250           0.469
  21546839.806     4925887.406 6   3848608.32321        13.500           1.250
  19948310.032   -21901982.662 8 -16980390.55823        28.250           3.219
  20842816.610   -18429645.340 7 -14165343.34222        21.500           2.156
 91  5 22 20 11 59.9970000  0  4G11G19G 2G 6
  23418194.556    -4871700.876 6  -3762678.93121        13.000           0.531
  21551327.806     4949468.113 6   3866982.86421        12.500           1.156
  19945267.259   -21917965.725 8 -16992844.89023        28.750           3.156
  20836695.907   -18461818.033 7 -14190412.96822        21.500           2.188
 91  5 22 20 12 14.9970000  0  4G11G19G 2G 6
  23423890.712    -4841754.991 6  -3739344.53921        12.500           0.531
  21555824.735     4973100.766 6   3885397.88521        13.500           1.281
  19942240.978   -21933876.479 8 -17005242.87423        28.500           3.281
  20830577.056   -18493962.387 7 -14215460.51222        20.500           2.156
 91  5 22 20 12 29.9970000  0  4G11G19G 2G 6
  23429610.563    -4811703.676 6  -3715927.97821        12.500           0.531
  21560331.212     4996790.277 6   3903857.20321        12.500           1.281
  19939227.142   -21949709.799 8 -17017580.52623        28.250           3.156
  20824467.790   -18526073.186 7 -14240481.90122        21.500           2.125
 91  5 22 20 12 44.9970000  0  4G11G19G 2G 6
  23435348.282    -4781549.777 6  -3692431.48421        12.000           0.531
  21564852.571     5020534.033 6   3922358.80721        14.250           1.250
  19936228.868   -21965468.348 8 -17029859.91223        28.250           3.188
  20818362.876   -18558152.936 7 -14265479.09822        21.500           2.156
 91  5 22 20 12 59.9970000  0  4G11G19G 2G 6
  23441108.587    -4751294.632 6  -3668856.08621        12.250           0.531
  21569380.665     5044330.960 6   3940901.84121        13.750           1.219
  19933243.923   -21981153.451 8 -17042082.06923        28.500           3.125
  20812265.267   -18590202.644 7 -14290452.88522        21.000           2.125
 91  5 22 20 13 14.9970000  0  4G11G19G 2G 6
  23446886.649    -4720938.829 6  -3645202.25721        12.000           0.531
  21573917.790     5068180.952 6   3959486.21921        13.750           1.281
  19930273.251   -21996765.214 8 -17054247.08023        28.250           3.063
  20806171.259   -18622222.222 7 -14315403.19922        21.250           2.219
 91  5 22 20 13 29.9970000  0  4G11G19G 2G 6
  23452680.235    -4690481.197 5  -3621469.10521        11.750           0.438
  21578466.931     5092085.734 6   3978113.28621        13.250           1.250
  19927315.853   -22012302.089 8 -17066353.72923        28.250           2.969
  20800085.790   -18654209.965 7 -14340328.70122        22.500           2.125
 91  5 22 20 13 44.9970000  0  4G11G19G 2G 6
  23458495.626    -4659921.129 5  -3597656.09721        11.500           0.500
  21583027.040     5116046.045 6   3996783.62121        13.250           1.250
  19924374.790   -22027763.234 8 -17078401.37123        29.250           3.031
  20794002.149   -18686164.879 7 -14365228.62222        21.500           2.188
 91  5 22 20 13 59.9970000  0  4G11G19G 2G 6
  23464328.751    -4629257.098 5  -3573762.06721        11.500           0.469
  21587597.931     5140063.587 6   4015498.55521        13.500           1.188
  19921447.509   -22043146.898 8 -17090388.64123        29.000           2.938
  20787930.829   -18718085.105 7 -14390101.51522        21.750           2.125
 91  5 22 20 14 14.9970000  0  4G11G19G 2G 6
  23470179.220    -4598493.206 5  -3549790.25021        11.500           0.469
  21592175.720     5164134.630 6   4034255.17621        13.500           1.156
  19918534.126   -22058456.813 8 -17102318.44323        29.000           2.969
  20781862.173   -18749974.174 7 -14414950.13222        22.500           2.125
 91  5 22 20 14 29.9970000  0  4G11G19G 2G 6
  23476061.501    -4567628.070 6  -3525739.56121        12.750           0.469
  21596769.587     5188260.966 6   4053054.89221        13.500           1.188
  19915634.587   -22073691.489 8 -17114189.61223        28.500           2.938
  20775797.954   -18781830.325 7 -14439773.09422        21.750           2.250
 91  5 22 20 14 44.9970000  0  4G11G19G 2G 6
  23481949.954    -4536663.043 6  -3501610.99321        13.000           0.406
  21601368.751     5212441.466 6   4071896.79921        14.000           1.188
  19912750.423   -22088852.215 8 -17126003.15823        28.750           3.031
  20769742.509   -18813654.518 7 -14464571.15122        21.500           2.156
 91  5 22 20 14 59.9970000  0  4G11G19G 2G 6
  23487858.923    -4505596.281 6  -3477403.17221        12.500           0.438
  21605986.009     5236678.190 6   4090782.54421        13.500           1.094
  19909879.204   -22103936.736 8 -17137757.32823        28.500           3.063
  20763693.853   -18845444.413 7 -14489342.48922        21.500           2.156
 91  5 22 20 15 14.9970000  0  4G11G19G 2G 6
  23493788.462    -4474429.639 6  -3453117.50821        12.750           0.469
  21610603.415     5260969.790 6   4109711.02521        13.500           1.188
  19907021.634   -22118946.524 8 -17149453.25923        28.250           3.125
  20757651.313   -18877201.347 7 -14514088.14422        21.500           2.281
 91  5 22 20 15 29.9970000  0  4G11G19G 2G 6
  23499741.892    -4443163.102 6  -3428754.03821        13.250           0.438
  21615240.931     5285316.618 6   4128682.53921        12.250           1.219
  19904181.251   -22133881.248 8 -17161090.70423        28.500           3.094
  20751614.649   -18908924.785 7 -14538807.69422        21.750           2.250
 91  5 22 20 15 44.9970000  0  4G11G19G 2G 6
  23505713.532    -4411799.085 6  -3404314.59721        13.000           0.500
  21619881.970     5309716.513 6   4147695.41421        13.000           1.094
  19901352.860   -22148743.041 8 -17172671.31523        28.250           3.125
  20745582.907   -18940616.780 7 -14563502.74222        21.750           2.250
 91  5 22 20 15 59.9970000  0  4G11G19G 2G 6
  23511696.782    -4380336.263 6  -3379798.13821        12.000           0.438
  21624534.368     5334171.200 6   4166750.97221        12.500           1.125
  19898539.313   -22163530.241 8 -17184193.80823        29.000           3.188
  20739559.188   -18972275.387 7 -14588171.78122        21.500           2.094
 91  5 22 20 16 14.9970000  0  4G11G19G 2G 6
  23517703.634    -4348773.154 6  -3355203.56521        12.250           0.406
  21629198.790     5358682.401 6   4185850.57721        13.000           1.125
  19895740.157   -22178241.126 8 -17195656.83723        29.000           3.156
  20733541.524   -19003898.733 7 -14612813.33822        21.750           2.313
 91  5 22 20 16 29.9970000  0  4G11G19G 2G 6
  23523730.743    -4317111.007 6  -3330531.79821        12.500           0.500
  21633876.595     5383249.171 6   4204993.47521        12.250           1.063
  19892953.759   -22192876.806 8 -17207061.25823        28.500           3.219
  20727530.876   -19035487.717 7 -14637428.12022        22.000           2.219
 91  5 22 20 16 44.9970000  0  4G11G19G 2G 6
  23529769.532    -4285350.594 5  -3305783.46421        11.500           0.438
  21638558.657     5407871.027 6   4224179.31721        13.500           0.969
  19890183.134   -22207437.737 8 -17218407.43923        28.500           3.094
  20721526.751   -19067042.580 7 -14662016.31622        22.250           2.281
 91  5 22 20 16 59.9970000  0  4G11G19G 2G 6
  23535833.235    -4253493.101 5  -3280959.46921        11.750           0.500
  21643257.384     5432547.270 6   4243407.52721        13.250           1.031
  19887426.478   -22221924.953 8 -17229696.17323        28.750           3.125
  20715525.384   -19098564.126 7 -14686578.54522        21.500           2.281
 91  5 22 20 17 14.9970000  0  4G11G19G 2G 6
  23541913.931    -4221536.570 6  -3256058.34521        12.000           0.500
  21647959.759     5457280.272 6   4262679.96921        12.750           1.094
  19884684.837   -22236336.288 8 -17240925.77923        29.000           3.125
  20709534.321   -19130049.838 7 -14711112.85522        21.250           2.156
 91  5 22 20 17 29.9970000  0  4G11G19G 2G 6
  23548019.993    -4189482.294 6  -3231081.04521        12.750           0.438
  21652681.196     5482069.056 6   4281995.86821        12.000           0.969
  19881956.056   -22250672.709 8 -17252097.01723        28.750           3.063
  20703552.095   -19161500.565 7 -14735619.90022        22.250           2.250
 91  5 22 20 17 44.9970000  0  4G11G19G 2G 6
  23554136.438    -4157332.229 6  -3206029.09721        12.500           0.531
  21657402.853     5506911.719 6   4301353.74421        12.500           1.094
  19879242.532   -22264935.826 8 -17263211.12923        29.000           3.125
  20697569.501   -19192917.759 7 -14760100.81822        21.500           2.219
 91  5 22 20 17 59.9970000  0  4G11G19G 2G 6
  23560266.938    -4125086.293 6  -3180902.44421        12.250           0.563
  21662145.290     5531808.736 6   4320753.98121        12.250           1.031
  19876542.845   -22279125.245 8 -17274267.81823        28.750           3.000
  20691598.923   -19224300.793 7 -14784555.11822        22.000           2.156
 91  5 22 20 18 14.9970000  0  4G11G19G 2G 6
  23566419.329    -4092742.258 5  -3155699.33621        11.500           0.563
  21666890.478     5556762.502 6   4340198.43221        12.250           1.188
  19873856.884   -22293238.636 8 -17285265.26223        28.750           3.094
  20685632.228   -19255647.114 7 -14808980.81322        21.750           2.219
 91  5 22 20 18 29.9970000  0  4G11G19G 2G 6
  23572597.071    -4060302.453 6  -3130421.60421        12.250           0.531
  21671656.110     5581771.078 5   4359685.59221        11.750           1.063
  19871185.423   -22307277.865 8 -17296204.92023        29.000           2.938
  20679676.946   -19286958.464 7 -14833379.25322        22.750           2.406
 91  5 22 20 18 44.9970000  0  4G11G19G 2G 6
  23578793.438    -4027765.924 6  -3105068.49821        12.250           0.531
  21676421.399     5606835.879 6   4379216.57121        13.500           1.094
  19868527.157   -22321241.683 8 -17307085.81723        29.000           2.969
  20673725.087   -19318233.395 7 -14857749.31522        22.250           2.344
